[[{"header":{"parameterUnit":"m.s-1","parameterCategory":1,"la1":30.6,"la2":28.766,"lo1":-90.7593,"lo2":-88.6598,"dy":0.0162,"dx":0.0183,"nx":116,"ny":114,"refTime":"2023-03-16T00:00:00:Z","depth":0,"parameterNumber":2,"parameterNumberName":"U-component_of_WINDS"},"data":[0.0,0.0,0.0,0.0,0.0,0.0,0.0,0.0,0.0,0.0,0.0,0.0,0.0,0.0,0.0,0.0,0.0,0.0,0.0,0.0,0.0,0.0,0.0,0.0,0.0,0.0,0.0,0.0,0.0,0.0,0.0,0.0,0.0,0.0,0.0,0.0,0.0,0.0,0.0,0.0,0.0,0.0,0.0,0.0,0.0,0.0,0.0,0.0,0.0,0.0,0.0,0.0,0.0,0.0,0.0,0.0,0.0,0.0,0.0,0.0,0.0,0.0,0.0,0.0,0.0,0.0,0.0,0.0,0.0,0.0,0.0,0.0,0.0,0.0,0.0,0.0,0.0,0.0,0.0,0.0,0.0,0.0,0.0,0.0,0.0,0.0,0.0,0.0,0.0,0.0,0.0,0.0,0.0,0.0,0.0,0.0,0.0,0.0,0.0,0.0,0.0,0.0,0.0,0.0,0.0,0.0,0.0,0.0,0.0,0.0,0.0,0.0,0.0,0.0,0.0,0.0,0.0,0.0,0.0,0.0,0.0,0.0,0.0,0.0,0.0,0.0,0.0,0.0,0.0,0.0,0.0,0.0,0.0,0.0,0.0,0.0,0.0,0.0,0.0,0.0,0.0,0.0,0.0,0.0,0.0,0.0,0.0,0.0,0.0,0.0,0.0,0.0,0.0,0.0,0.0,0.0,0.0,0.0,0.0,0.0,0.0,0.0,0.0,0.0,0.0,0.0,0.0,0.0,0.0,0.0,0.0,0.0,0.0,0.0,0.0,0.0,0.0,0.0,0.0,0.0,0.0,0.0,0.0,0.0,0.0,0.0,0.0,0.0,0.0,0.0,0.0,0.0,0.0,0.0,0.0,0.0,0.0,0.0,0.0,0.0,0.0,0.0,0.0,0.0,0.0,0.0,0.0,0.0,0.0,0.0,0.0,0.0,0.0,0.0,0.0,0.0,0.0,0.0,0.0,0.0,0.0,0.0,0.0,0.0,0.0,0.0,0.0,0.0,0.0,0.0,0.0,0.0,0.0,0.0,0.0,0.0,0.0,0.0,0.0,0.0,0.0,0.0,0.0,0.0,0.0,0.0,0.0,0.0,0.0,0.0,0.0,0.0,0.0,0.0,0.0,0.0,0.0,0.0,0.0,0.0,0.0,0.0,0.0,0.0,0.0,0.0,0.0,0.0,0.0,0.0,0.0,0.0,0.0,0.0,0.0,0.0,0.0,0.0,0.0,0.0,0.0,0.0,0.0,0.0,0.0,0.0,0.0,0.0,0.0,0.0,0.0,0.0,0.0,0.0,0.0,0.0,0.0,0.0,0.0,0.0,0.0,0.0,0.0,0.0,0.0,0.0,0.0,0.0,0.0,0.0,0.0,0.0,0.0,0.0,0.0,0.0,0.0,0.0,0.0,0.0,0.0,0.0,0.0,0.0,0.0,0.0,0.0,0.0,0.0,0.0,0.0,0.0,0.0,0.0,0.0,0.0,0.0,0.0,0.0,0.0,0.0,0.0,0.0,0.0,0.0,0.0,0.0,0.0,0.0,0.0,0.0,0.0,0.0,0.0,0.0,0.0,0.0,0.0,0.0,0.0,0.0,0.0,0.0,0.0,0.0,0.0,0.0,0.0,0.0,0.0,0.0,0.0,0.0,0.0,0.0,0.0,0.0,0.0,0.0,0.0,0.0,0.0,0.0,0.0,0.0,0.0,0.0,0.0,0.0,0.0,0.0,0.0,0.0,0.0,0.0,0.0,0.0,0.0,0.0,0.0,0.0,0.0,0.0,0.0,0.0,0.0,0.0,0.0,0.0,0.0,0.0,0.0,0.0,0.0,0.0,0.0,0.0,0.0,0.0,0.0,0.0,0.0,0.0,0.0,0.0,0.0,0.0,0.0,0.0,0.0,0.0,0.0,0.0,0.0,0.0,0.0,0.0,0.0,0.0,0.0,0.0,0.0,0.0,0.0,0.0,0.0,0.0,0.0,0.0,0.0,0.0,0.0,0.0,0.0,0.0,0.0,0.0,0.0,0.0,0.0,0.0,0.0,0.0,0.0,0.0,0.0,0.0,0.0,0.0,0.0,0.0,0.0,0.0,0.0,0.0,0.0,0.0,0.0,0.0,0.0,0.0,0.0,0.0,0.0,0.0,0.0,0.0,0.0,0.0,0.0,0.0,0.0,0.0,0.0,0.0,0.0,0.0,0.0,0.0,0.0,0.0,0.0,0.0,0.0,0.0,0.0,0.0,0.0,0.0,0.0,0.0,0.0,0.0,0.0,0.0,0.0,0.0,0.0,0.0,0.0,0.0,0.0,0.0,0.0,0.0,0.0,0.0,0.0,0.0,0.0,0.0,0.0,0.0,0.0,0.0,0.0,0.0,0.0,0.0,0.0,0.0,0.0,0.0,0.0,0.0,0.0,0.0,0.0,0.0,0.0,0.0,0.0,0.0,0.0,0.0,0.0,0.0,0.0,0.0,0.0,0.0,0.0,0.0,0.0,0.0,0.0,0.0,0.0,0.0,0.0,0.0,0.0,0.0,0.0,0.0,0.0,0.0,0.0,0.0,0.0,0.0,0.0,0.0,0.0,0.0,0.0,0.0,0.0,0.0,0.0,0.0,0.0,0.0,0.0,0.0,0.0,0.0,0.0,0.0,0.0,0.0,0.0,0.0,0.0,0.0,0.0,0.0,0.0,0.0,0.0,0.0,0.0,0.0,0.0,0.0,0.0,0.0,0.0,0.0,0.0,0.0,0.0,0.0,0.0,0.0,0.0,0.0,0.0,0.0,0.0,0.0,0.0,0.0,0.0,0.0,0.0,0.0,0.0,0.0,0.0,0.0,0.0,0.0,0.0,0.0,0.0,0.0,0.0,0.0,0.0,0.0,0.0,0.0,0.0,0.0,0.0,0.0,0.0,0.0,0.0,0.0,0.0,0.0,0.0,0.0,0.0,0.0,0.0,0.0,0.0,0.0,0.0,0.0,0.0,0.0,0.0,0.0,0.0,0.0,0.0,0.0,0.0,0.0,0.0,0.0,0.0,0.0,0.0,0.0,0.0,0.0,0.0,0.0,0.0,0.0,0.0,0.0,0.0,0.0,0.0,0.0,0.0,0.0,0.0,0.0,0.0,0.0,0.0,0.0,0.0,0.0,0.0,0.0,0.0,0.0,0.0,0.0,0.0,0.0,0.0,0.0,0.0,0.0,0.0,0.0,0.0,0.0,0.0,0.0,0.0,0.0,0.0,0.0,0.0,0.0,0.0,0.0,0.0,0.0,0.0,0.0,0.0,0.0,0.0,0.0,0.0,0.0,0.0,0.0,0.0,0.0,0.0,0.0,0.0,0.0,0.0,0.0,0.0,0.0,0.0,0.0,0.0,0.0,0.0,0.0,0.0,0.0,0.0,0.0,0.0,0.0,0.0,0.0,0.0,0.0,0.0,0.0,0.0,0.0,0.0,0.0,0.0,0.0,0.0,0.0,0.0,0.0,0.0,0.0,0.0,0.0,0.0,0.0,0.0,0.0,0.0,0.0,0.0,0.0,0.0,0.0,0.0,0.0,0.0,0.0,0.0,0.0,0.0,0.0,0.0,0.0,0.0,0.0,0.0,0.0,0.0,0.0,0.0,0.0,0.0,0.0,0.0,0.0,0.0,0.0,0.0,0.0,0.0,0.0,0.0,0.0,0.0,0.0,0.0,0.0,0.0,0.0,0.0,0.0,0.0,0.0,0.0,0.0,0.0,0.0,0.0,0.0,0.0,0.0,0.0,0.0,0.0,0.0,0.0,0.0,0.0,0.0,0.0,0.0,0.0,0.0,0.0,0.0,0.0,0.0,0.0,0.0,0.0,0.0,0.0,0.0,0.0,0.0,0.0,0.0,0.0,0.0,0.0,0.0,0.0,0.0,0.0,0.0,0.0,0.0,0.0,0.0,0.0,0.0,0.0,0.0,0.0,0.0,0.0,0.0,0.0,0.0,0.0,0.0,0.0,0.0,0.0,0.0,0.0,0.0,0.0,0.0,0.0,0.0,0.0,0.0,0.0,0.0,0.0,0.0,0.0,0.0,0.0,0.0,0.0,0.0,0.0,0.0,0.0,0.0,0.0,0.0,0.0,0.0,0.0,0.0,0.0,0.0,0.0,0.0,0.0,0.0,0.0,0.0,0.0,0.0,0.0,0.0,0.0,0.0,0.0,0.0,0.0,0.0,0.0,0.0,0.0,0.0,0.0,0.0,0.0,0.0,0.0,0.0,0.0,0.0,0.0,0.0,0.0,0.0,0.0,0.0,0.0,0.0,0.0,0.0,0.0,0.0,0.0,0.0,0.0,0.0,0.0,0.0,0.0,0.0,0.0,0.0,0.0,0.0,0.0,0.0,0.0,0.0,0.0,0.0,0.0,0.0,0.0,0.0,0.0,0.0,0.0,0.0,0.0,0.0,0.0,0.0,0.0,0.0,0.0,0.0,0.0,0.0,0.0,0.0,0.0,0.0,0.0,0.0,0.0,0.0,0.0,0.0,0.0,0.0,0.0,0.0,0.0,0.0,0.0,0.0,0.0,0.0,0.0,0.0,0.0,0.0,0.0,0.0,0.0,0.0,0.0,0.0,0.0,0.0,0.0,0.0,0.0,0.0,0.0,0.0,0.0,0.0,0.0,0.0,0.0,0.0,0.0,0.0,0.0,0.0,0.0,0.0,0.0,0.0,0.0,0.0,0.0,0.0,0.0,0.0,0.0,0.0,0.0,0.0,0.0,0.0,0.0,0.0,0.0,0.0,0.0,0.0,0.0,0.0,0.0,0.0,0.0,0.0,0.0,0.0,0.0,0.0,0.0,0.0,0.0,0.0,0.0,0.0,0.0,0.0,0.0,0.0,0.0,0.0,0.0,0.0,0.0,0.0,0.0,0.0,0.0,0.0,0.0,0.0,0.0,0.0,0.0,0.0,0.0,0.0,0.0,0.0,0.0,0.0,0.0,0.0,0.0,0.0,0.0,0.0,0.0,0.0,0.0,0.0,0.0,0.0,0.0,0.0,0.0,0.0,0.0,0.0,0.0,0.0,0.0,0.0,0.0,0.0,0.0,0.0,0.0,0.0,0.0,0.0,0.0,0.0,0.0,0.0,0.0,0.0,0.0,0.0,0.0,0.0,0.0,0.0,0.0,0.0,0.0,0.0,0.0,0.0,0.0,0.0,0.0,0.0,0.0,0.0,0.0,0.0,0.0,0.0,0.0,0.0,0.0,0.0,0.0,0.0,0.0,0.0,0.0,0.0,0.0,0.0,0.0,0.0,0.0,0.0,0.0,0.0,0.0,0.0,0.0,0.0,0.0,0.0,0.0,0.0,0.0,0.0,0.0,0.0,0.0,0.0,0.0,0.0,0.0,0.0,0.0,0.0,0.0,0.0,0.0,0.0,0.0,0.0,0.0,0.0,0.0,0.0,0.0,0.0,0.0,0.0,0.0,0.0,0.0,0.0,0.0,0.0,0.0,0.0,0.0,0.0,0.0,0.0,0.0,0.0,0.0,0.0,0.0,0.0,0.0,0.0,0.0,0.0,0.0,0.0,0.0,0.0,0.0,0.0,0.0,0.0,0.0,0.0,0.0,0.0,0.0,0.0,0.0,0.0,0.0,0.0,0.0,0.0,0.0,0.0,0.0,0.0,0.0,0.0,0.0,0.0,0.0,0.0,0.0,0.0,0.0,0.0,0.0,0.0,0.0,0.0,0.0,0.0,0.0,0.0,0.0,0.0,0.0,0.0,0.0,0.0,0.0,0.0,0.0,0.0,0.0,0.0,0.0,0.0,0.0,0.0,0.0,0.0,0.0,0.0,0.0,0.0,0.0,0.0,0.0,0.0,0.0,0.0,0.0,0.0,0.0,0.0,0.0,0.0,0.0,0.0,0.0,0.0,0.0,0.0,0.0,0.0,0.0,0.0,0.0,0.0,0.0,0.0,0.0,0.0,0.0,0.0,0.0,0.0,0.0,0.0,0.0,0.0,0.0,0.0,0.0,0.0,0.0,0.0,0.0,0.0,0.0,0.0,0.0,0.0,0.0,0.0,0.0,0.0,0.0,0.0,0.0,0.0,0.0,0.0,0.0,0.0,0.0,0.0,0.0,8.5143,0.0,0.0,0.0,0.0,0.0,0.0,0.0,0.0,0.0,0.0,0.0,0.0,0.0,0.0,0.0,0.0,0.0,0.0,0.0,0.0,0.0,0.0,0.0,0.0,0.0,0.0,0.0,0.0,0.0,0.0,0.0,0.0,0.0,0.0,0.0,0.0,0.0,0.0,0.0,8.2516,8.3131,8.3516,8.267,8.2285,8.2285,0.0,0.0,0.0,0.0,0.0,0.0,0.0,0.0,0.0,0.0,0.0,0.0,0.0,0.0,0.0,0.0,0.0,0.0,0.0,0.0,0.0,0.0,0.0,0.0,0.0,0.0,0.0,0.0,0.0,0.0,0.0,0.0,0.0,0.0,0.0,0.0,0.0,0.0,0.0,0.0,0.0,0.0,0.0,0.0,0.0,0.0,0.0,0.0,0.0,0.0,0.0,0.0,0.0,0.0,0.0,0.0,0.0,0.0,0.0,0.0,0.0,0.0,0.0,0.0,0.0,0.0,0.0,0.0,0.0,0.0,0.0,8.8266,0.0,0.0,0.0,0.0,0.0,0.0,0.0,0.0,0.0,0.0,0.0,0.0,0.0,0.0,0.0,0.0,0.0,0.0,0.0,0.0,0.0,0.0,0.0,0.0,0.0,0.0,0.0,0.0,0.0,0.0,0.0,0.0,0.0,0.0,0.0,0.0,0.0,0.0,8.3747,8.5093,8.6209,8.5632,8.544,8.5478,8.3593,0.0,0.0,0.0,0.0,0.0,0.0,0.0,0.0,0.0,0.0,0.0,0.0,0.0,0.0,0.0,0.0,0.0,0.0,0.0,0.0,0.0,0.0,0.0,0.0,0.0,0.0,0.0,0.0,0.0,0.0,0.0,0.0,0.0,0.0,0.0,0.0,0.0,0.0,0.0,0.0,0.0,0.0,0.0,0.0,0.0,0.0,0.0,0.0,0.0,0.0,0.0,0.0,0.0,0.0,0.0,0.0,0.0,0.0,0.0,0.0,0.0,0.0,0.0,0.0,9.7572,9.8587,10.0712,10.1891,10.2203,9.7597,9.4512,9.26,0.0,0.0,0.0,0.0,0.0,0.0,0.0,0.0,0.0,0.0,0.0,0.0,0.0,0.0,0.0,0.0,0.0,0.0,0.0,0.0,0.0,0.0,0.0,0.0,0.0,0.0,0.0,0.0,0.0,0.0,0.0,0.0,0.0,0.0,8.2978,8.3054,8.2285,8.6132,8.921,9.1518,9.2095,9.2749,9.3249,8.7248,8.5363,8.6594,0.0,0.0,0.0,0.0,0.0,0.0,0.0,0.0,0.0,0.0,0.0,0.0,0.0,0.0,0.0,0.0,0.0,0.0,0.0,0.0,0.0,0.0,0.0,0.0,0.0,0.0,0.0,0.0,0.0,0.0,0.0,0.0,0.0,0.0,0.0,0.0,0.0,0.0,0.0,0.0,0.0,8.129,8.1427,0.0,0.0,0.0,0.0,0.0,0.0,0.0,0.0,0.0,0.0,0.0,0.0,0.0,0.0,9.4518,9.8908,10.019,9.8403,10.2711,10.3809,10.1899,10.5397,10.6614,10.6107,10.7512,0.0,9.7792,9.5527,0.0,0.0,0.0,0.0,0.0,0.0,0.0,0.0,0.0,0.0,0.0,0.0,0.0,0.0,0.0,0.0,0.0,0.0,0.0,0.0,0.0,0.0,0.0,0.0,0.0,0.0,0.0,0.0,0.0,0.0,0.0,0.0,8.3016,8.3862,8.5324,8.7286,9.1024,9.4176,9.6788,9.7442,9.8517,9.971,9.6174,9.218,8.791,8.6265,0.0,0.0,0.0,0.0,0.0,0.0,0.0,0.0,0.0,0.0,0.0,0.0,0.0,0.0,0.0,0.0,0.0,0.0,0.0,0.0,0.0,0.0,0.0,0.0,0.0,0.0,0.0,0.0,0.0,0.0,0.0,0.0,0.0,0.0,0.0,0.0,0.0,0.0,0.0,8.1148,8.4011,8.1519,8.4479,8.5463,0.0,0.0,0.0,0.0,0.0,0.0,0.0,0.0,0.0,9.4387,9.6616,9.8725,10.0825,10.4481,10.6399,10.6615,11.0787,11.2581,11.2293,11.4895,11.6299,11.6609,11.7194,11.4789,11.0011,10.2984,9.8065,9.463,0.0,0.0,0.0,0.0,0.0,9.2131,0.0,0.0,0.0,0.0,0.0,0.0,0.0,0.0,0.0,0.0,0.0,0.0,0.0,0.0,0.0,8.417,0.0,0.0,0.0,0.0,0.0,0.0,0.0,8.3939,8.3939,8.5632,8.8444,9.2482,9.6405,9.967,10.2325,10.2884,10.3991,10.5498,10.4291,9.9313,9.1605,8.9535,8.7079,8.4234,0.0,0.0,0.0,0.0,0.0,0.0,0.0,0.0,0.0,0.0,0.0,0.0,0.0,0.0,0.0,0.0,0.0,0.0,0.0,0.0,0.0,0.0,0.0,0.0,0.0,0.0,0.0,0.0,0.0,0.0,0.0,0.0,0.0,0.0,0.0,0.0,0.0,8.3527,8.6129,8.1719,8.698,8.8789,0.0,0.0,0.0,0.0,0.0,0.0,9.2471,9.4578,9.7401,10.1107,10.3383,10.5673,10.8193,11.1209,11.3396,11.4591,11.8177,12.0302,12.1224,12.3071,12.4293,12.4709,12.4515,12.3001,11.9899,11.0608,10.4194,10.0095,9.7206,9.5567,9.4786,9.4786,9.6191,9.8377,0.0,0.0,0.0,0.0,0.0,0.0,0.0,0.0,0.0,0.0,0.0,0.0,0.0,0.0,8.6055,8.9248,8.894,8.8863,0.0,0.0,8.6055,8.5978,8.5247,8.4824,8.4824,8.8825,9.2523,9.5828,10.1587,10.569,10.8132,10.8968,10.9772,11.0701,10.8911,10.5197,10.0118,9.5131,9.2104,8.9957,8.4387,0.0,0.0,0.0,0.0,0.0,0.0,0.0,0.0,0.0,0.0,0.0,0.0,0.0,0.0,0.0,0.0,0.0,0.0,0.0,0.0,0.0,0.0,0.0,0.0,0.0,0.0,0.0,0.0,0.0,0.0,0.0,0.0,0.0,0.0,0.0,0.0,0.0,0.0,8.3096,9.0285,0.0,0.0,0.0,0.0,9.1069,9.3427,9.5825,9.8247,10.1736,10.5093,10.8295,11.3104,11.6182,11.7112,12.1308,12.2617,12.1231,12.4013,12.4982,12.448,12.7198,12.7626,12.6306,12.7782,12.6578,12.2983,11.6506,11.1416,10.7083,10.3687,10.1813,10.0993,10.0993,10.1696,10.2711,0.0,0.0,0.0,0.0,0.0,0.0,0.0,0.0,0.0,0.0,0.0,0.0,0.0,8.8094,9.0941,9.3787,9.4249,9.4287,9.4018,0.0,8.8325,8.7786,8.594,8.6137,8.8759,9.2486,9.6711,10.1618,10.64,11.0117,11.257,11.3304,11.3789,11.4196,11.3393,11.1213,10.758,10.0887,9.615,9.2789,8.8002,8.5125,0.0,0.0,0.0,0.0,0.0,0.0,0.0,0.0,0.0,0.0,0.0,0.0,0.0,0.0,0.0,0.0,0.0,0.0,0.0,0.0,0.0,0.0,0.0,0.0,0.0,0.0,0.0,0.0,0.0,0.0,0.0,0.0,0.0,0.0,0.0,0.0,0.0,9.0501,9.713,0.0,9.3687,9.4193,9.5735,9.7662,10.0206,10.3406,10.7482,11.1109,11.4584,11.8101,12.1436,12.3587,12.4584,12.7213,12.8123,12.7371,12.9727,13.0503,13.0075,13.1608,13.2095,13.1713,13.183,13.0582,12.8403,12.5706,11.9994,11.291,11.0009,10.8082,10.7104,10.7689,10.8184,10.8918,0.0,0.0,0.0,0.0,0.0,0.0,0.0,0.0,0.0,0.0,0.0,8.4093,8.8632,9.2402,9.598,9.9404,9.9404,9.8865,9.8057,0.0,8.9863,8.8748,8.7325,8.8371,9.2143,9.7018,10.1891,10.6905,11.1324,11.4541,11.6468,11.6797,11.7011,11.7117,11.6705,11.5696,11.3709,10.752,10.2026,9.6986,9.1903,8.9152,8.7501,0.0,0.0,0.0,0.0,0.0,0.0,0.0,0.0,0.0,0.0,0.0,0.0,0.0,0.0,0.0,0.0,0.0,0.0,0.0,0.0,0.0,0.0,0.0,0.0,0.0,0.0,0.0,0.0,0.0,0.0,0.0,0.0,0.0,0.0,0.0,9.8491,9.7324,10.4005,10.6488,10.0981,10.2097,10.3982,10.629,10.9098,11.2483,11.6792,11.9908,12.2816,12.5205,12.7592,12.8978,12.9485,13.1189,13.1826,13.1372,13.3021,13.3831,13.391,13.4718,13.5113,13.4973,13.4703,13.3603,13.187,13.0979,12.6835,12.0603,11.7306,11.5289,11.429,11.4601,11.4914,11.5296,0.0,0.0,0.0,0.0,0.0,0.0,0.0,0.0,0.0,7.9438,8.2824,8.6978,9.2056,9.648,10.1096,10.6213,10.4212,10.2404,10.1404,9.498,9.0441,8.8748,8.9517,9.1525,9.4786,10.239,10.7993,11.1267,11.6111,11.893,11.9811,11.9572,11.9517,11.9479,11.8677,11.8294,11.8103,11.4817,10.9583,10.2973,9.6222,9.3931,9.3782,0.0,0.0,0.0,0.0,0.0,0.0,0.0,0.0,0.0,0.0,0.0,0.0,0.0,0.0,0.0,0.0,0.0,0.0,0.0,0.0,0.0,0.0,0.0,0.0,0.0,0.0,0.0,0.0,0.0,0.0,0.0,0.0,0.0,9.0686,9.8277,10.3609,10.3213,11.069,11.3583,10.76,11.1483,11.5099,11.6676,11.9985,12.2985,12.5486,12.7986,12.941,12.941,13.191,13.2795,13.191,13.3603,13.3987,13.318,13.4103,13.4911,13.5719,13.6488,13.6488,13.5719,13.6488,13.5411,13.3103,13.2179,13.1295,13.0124,12.5593,12.3295,12.2509,12.1694,12.1494,12.1596,0.0,0.0,0.0,0.0,0.0,0.0,0.0,0.0,7.5976,7.8515,8.3978,8.9594,9.4711,10.1212,10.679,11.0598,10.8098,10.5097,10.2404,9.5326,9.0136,8.7721,9.0183,9.4561,10.0787,10.6614,11.1772,11.63,11.8273,11.9916,12.1292,12.009,11.9517,11.9517,11.9288,11.8791,11.818,11.7301,11.5505,11.2487,10.3899,9.8784,9.5849,0.0,0.0,0.0,0.0,0.0,0.0,0.0,0.0,0.0,0.0,0.0,0.0,0.0,0.0,0.0,0.0,0.0,0.0,0.0,0.0,0.0,0.0,0.0,0.0,0.0,0.0,0.0,0.0,0.0,0.0,0.0,0.0,9.8026,9.7343,10.3724,10.9992,11.4318,11.8401,12.0698,12.0177,12.1985,12.3408,12.3909,12.6986,12.9179,12.991,13.2987,13.468,13.468,13.6603,13.7488,13.7219,13.7719,13.8104,13.8488,13.8104,13.8719,14.0104,13.9719,13.9412,13.9219,13.8796,13.7488,13.568,13.4795,13.3603,13.1922,12.8194,12.637,12.5712,12.5089,12.4087,12.2812,0.0,0.0,0.0,0.0,0.0,0.0,0.0,7.4399,7.5899,7.9169,8.6132,9.2595,9.7365,10.4982,11.0714,11.3022,10.979,10.5982,10.1789,9.502,9.0682,8.9765,9.4713,10.0497,10.6815,11.199,11.6314,11.9933,12.0719,12.1637,12.261,12.1942,12.1389,12.1084,12.1389,12.1084,12.0281,11.9594,11.9097,11.7989,11.1608,10.6728,10.2685,9.7222,9.4088,9.2217,8.9226,8.8685,8.8838,8.5445,0.0,0.0,0.0,0.0,0.0,0.0,0.0,0.0,0.0,0.0,0.0,0.0,0.0,0.0,0.0,0.0,0.0,0.0,0.0,0.0,0.0,0.0,0.0,0.0,10.0914,10.6912,10.84,11.2608,11.7591,12.2878,12.532,12.7101,12.8486,12.941,13.0179,13.091,13.3103,13.4487,13.4911,13.7103,13.8411,13.8411,13.9719,14.0412,14.0412,13.9989,14.0104,14.0604,14.0104,14.0604,14.1912,14.1412,14.1104,0.0,13.9796,13.8604,13.718,13.5988,13.4911,0.0,0.0,0.0,0.0,0.0,12.6303,12.5023,0.0,0.0,0.0,0.0,0.0,0.0,0.0,7.4553,7.6092,8.04,8.8325,9.5172,9.9327,10.7405,11.2791,11.3907,11.0021,10.5405,10.0327,9.4522,9.2258,9.4394,10.1674,10.7868,11.2678,11.7791,12.1173,12.278,12.3395,12.3777,12.4136,12.458,12.4408,12.3797,12.4484,12.4293,12.3491,12.2001,12.1389,12.1122,11.8715,11.5505,11.1302,10.3603,10.1315,10.1698,9.7089,9.4676,9.3141,9.0524,0.0,0.0,0.0,0.0,0.0,0.0,0.0,0.0,0.0,0.0,0.0,0.0,0.0,0.0,0.0,0.0,0.0,0.0,0.0,0.0,0.0,0.0,0.0,0.0,10.8679,11.5901,12.1192,12.3586,12.6007,12.9421,13.1179,13.2487,13.3603,13.4603,13.5719,13.7103,13.8181,13.8988,13.9604,0.0,0.0,0.0,0.0,14.2297,14.2181,14.1489,14.1181,14.1181,14.1104,14.1489,14.2489,14.2297,14.2181,14.2104,14.0296,13.9104,13.8104,13.6488,13.5603,13.5103,13.2679,13.1691,13.1405,12.9306,12.8108,0.0,0.0,0.0,0.0,0.0,0.0,0.0,0.0,7.3745,7.5245,7.9515,8.744,9.4095,9.7634,10.5597,11.1598,11.3791,10.9521,10.4403,9.9249,9.5175,9.5783,10.2081,10.8404,11.3712,11.7989,12.2439,12.5115,12.6224,12.628,12.67,12.7409,12.6777,12.6509,12.6395,12.6509,12.6089,12.5287,12.4981,12.479,12.4675,12.2803,11.8409,11.2601,10.8895,10.5991,10.3594,10.071,10.0377,10.0812,9.6903,9.6328,9.6365,9.1941,8.8517,0.0,0.0,0.0,0.0,0.0,0.0,0.0,0.0,0.0,0.0,0.0,0.0,0.0,0.0,0.0,0.0,0.0,0.0,0.0,10.9106,11.6303,12.3002,12.8776,13.2203,13.4012,13.341,13.4218,13.5603,13.7911,13.9488,14.0296,13.9912,14.1912,14.272,14.1489,14.2797,0.0,14.2604,14.4105,14.4605,14.3912,14.4412,14.472,14.4682,0.0,0.0,14.5913,14.4489,14.3912,14.3797,14.2104,14.0489,13.8988,13.7988,13.6411,13.4295,13.241,13.1385,13.0893,12.9816,12.8689,12.7501,0.0,0.0,0.0,0.0,0.0,0.0,0.0,7.3514,7.5014,7.9246,8.644,9.2172,9.4711,10.1404,10.5713,10.5713,10.1403,9.8096,9.6669,9.7699,10.1705,10.9225,11.5229,11.9916,12.3185,12.5783,12.7312,12.7694,12.7694,12.7885,12.8305,12.8305,12.8114,12.7694,12.8191,12.7885,12.7006,12.6586,12.6509,12.628,12.5096,12.2497,11.9097,11.5314,11.2296,10.9774,10.7868,10.6928,10.6131,10.2896,10.1594,10.0595,9.6865,9.3326,9.0056,0.0,0.0,0.0,0.0,0.0,0.0,0.0,0.0,0.0,0.0,0.0,0.0,0.0,0.0,9.1979,0.0,0.0,10.9213,11.5984,12.3216,12.9294,13.3103,13.6488,13.8219,13.6988,13.7911,13.9412,14.0989,14.2412,14.3181,14.3181,14.472,14.5297,14.4412,14.5182,14.5682,14.5682,14.6105,14.649,14.6913,14.6105,14.5913,14.6297,14.549,14.549,14.6297,14.5413,14.4797,14.4297,14.2604,14.0912,13.9219,13.7488,13.5988,13.4718,13.2987,13.1674,13.0714,13.0213,12.9466,12.8492,0.0,0.0,0.0,0.0,0.0,0.0,0.0,0.0,7.4899,7.8784,8.4786,8.9325,9.1056,9.6095,9.8365,9.6019,9.3293,9.2949,9.5898,10.1399,10.8001,11.5887,12.1389,12.5287,12.7503,12.8496,12.8993,12.8802,12.8993,12.8993,12.8993,12.9604,12.949,12.9108,12.9604,12.9413,12.8725,12.8114,12.7808,12.7694,12.6891,12.6395,12.5783,12.158,11.8791,11.6881,11.5192,11.2588,10.9869,10.8311,10.5896,10.3091,10.1288,9.8519,9.5172,9.1479,9.0287,0.0,0.0,0.0,0.0,0.0,0.0,0.0,0.0,0.0,8.8594,9.2979,9.5249,9.8442,10.5097,11.0906,11.6715,12.2985,12.941,13.418,13.6411,13.9219,14.0989,14.0604,14.1604,14.2681,14.3489,14.4489,14.5413,14.6105,14.6913,14.7413,14.7413,14.7413,14.7682,14.8413,14.7913,14.8221,14.949,14.7605,14.6798,14.7105,14.649,14.6105,14.5913,14.5605,14.5105,14.4297,14.2297,14.0489,13.8911,13.6296,13.5295,13.5103,13.3795,13.2179,13.0718,13.0602,13.019,12.9502,0.0,0.0,0.0,0.0,0.0,0.0,0.0,0.0,0.0,7.7207,8.1516,8.4939,8.6632,9.0133,9.1633,8.9825,9.2488,9.6322,10.1034,10.5974,11.2792,12.1886,12.5783,12.8191,12.9299,13.0903,13.1285,13.0483,13.1285,13.1706,13.1706,13.098,13.1018,13.1591,13.098,13.0598,13.0483,13.0407,13.0407,13.0292,12.949,12.8687,12.7885,12.6586,12.4599,12.2001,11.8922,11.5281,11.211,11.258,11.0309,10.7213,10.7598,10.5982,10.2904,9.7942,9.3903,9.0094,8.567,8.3093,8.2477,8.5863,8.6247,8.7786,0.0,0.0,9.7519,10.2481,10.4905,10.7982,11.3984,11.8715,12.4216,13.1718,13.4218,13.6603,14.0604,14.2104,14.3412,14.4797,14.4489,14.4489,14.5297,14.6798,14.7798,14.7913,14.8683,14.9221,14.9221,14.9221,14.9298,14.9413,14.999,14.999,14.949,14.9914,14.9413,14.8106,14.799,14.749,14.6682,14.522,14.4489,14.422,14.0989,13.9104,13.7988,13.5488,13.4411,13.4411,13.4218,13.3103,13.1487,13.0794,13.0498,13.0316,0.0,0.0,0.0,0.0,0.0,0.0,0.0,0.0,0.0,0.0,7.9361,8.167,8.2362,8.3708,8.4286,8.3593,8.8111,9.4364,10.2369,10.8804,11.6499,12.5783,12.8496,13.0216,13.1018,13.1706,13.1897,13.1591,13.1897,13.2088,13.2088,13.1706,13.1782,13.2088,13.1706,13.1285,13.0789,13.0789,13.0789,13.0789,13.0407,13.0101,12.9604,12.7808,12.5516,12.2688,11.8495,11.4311,0.0,11.0302,10.9316,10.8513,10.9979,10.729,10.3097,10.0519,9.5326,8.9748,8.6478,8.5555,8.617,8.894,9.1556,9.5057,10.1096,10.2597,10.4405,11.0483,11.3099,11.6099,12.1985,12.6217,13.0294,0.0,13.8104,14.0912,14.3682,14.4797,14.5413,14.5682,14.5413,14.5913,14.7721,14.899,14.949,14.899,15.0221,15.0491,14.9606,14.949,14.949,14.949,14.9298,14.9606,15.0221,15.0106,14.9914,14.9606,14.9183,14.849,14.7605,14.6913,14.549,14.3489,14.0604,13.8796,13.7873,13.5911,13.5295,13.5719,13.5218,13.4603,13.368,13.191,13.091,13.0217,0.0,0.0,0.0,0.0,0.0,0.0,0.0,0.0,0.0,0.0,0.0,7.8746,7.8746,7.8977,7.9131,7.9131,8.4771,9.2449,10.2101,11.0116,11.8502,12.7617,12.9986,13.1515,13.2088,13.2585,13.2699,13.2394,13.2699,13.2814,13.2814,13.2508,13.2394,13.2394,13.2202,13.1591,13.0789,13.0789,13.0903,13.1094,13.0903,13.0789,13.0483,12.7312,12.3873,12.0375,11.6111,11.1401,10.6997,10.5392,10.49,10.5281,10.7287,10.529,10.202,10.0596,9.5018,8.8863,8.7248,8.7902,8.9902,9.3441,9.7634,10.2289,10.7713,10.9598,11.2099,11.8677,12.0985,12.3485,12.8717,13.191,13.468,13.768,14.0796,14.3412,14.5105,14.5605,14.549,14.4412,14.4105,14.4797,14.7221,14.899,14.9914,14.949,15.0798,15.1106,14.9914,14.9798,14.9914,15.0221,14.9606,14.9798,15.0991,15.0721,15.0606,15.0721,15.0414,14.949,14.8182,14.749,14.549,14.2604,14.0296,13.8796,13.7988,13.618,13.5911,13.6411,13.5719,13.5488,13.5218,13.318,13.191,13.0794,0.0,0.0,0.0,0.0,0.0,0.0,0.0,0.0,0.0,0.0,0.0,0.0,0.0,7.6861,7.7361,7.7361,8.4186,9.2066,10.0377,10.9476,11.8288,12.6777,13.0292,13.2088,13.2088,13.3693,13.4113,13.3272,13.4113,13.4495,13.4495,13.3693,13.3272,13.3196,13.2394,13.1591,13.0789,13.0789,13.1285,13.2011,13.1094,13.0789,13.0292,12.5287,11.9878,11.4516,11.1914,10.6728,10.0804,9.8398,9.6636,9.5865,9.8404,10.0212,10.0789,9.8365,9.2787,8.7632,8.8402,8.9248,9.1864,10.0212,10.4212,10.8406,11.6792,11.9292,12.16,12.7602,12.8909,12.9987,13.3487,13.4795,13.6796,14.1104,14.1912,14.2489,14.422,14.3682,14.2604,14.0989,13.9989,14.0219,0.0,14.5874,14.8606,14.9413,15.0298,15.0721,15.0721,15.0721,15.1106,15.1914,15.1914,15.1914,15.1991,15.2799,15.2299,15.0721,15.1491,15.0606,14.8106,14.5605,14.3605,14.1797,14.0104,13.8796,13.7988,13.618,13.5488,13.5488,13.5488,13.5488,13.5411,13.4487,13.368,13.2603,0.0,0.0,0.0,0.0,0.0,0.0,0.0,0.0,0.0,0.0,0.0,0.0,0.0,0.0,0.0,0.0,8.2381,8.8651,9.7047,10.6184,11.4808,12.2612,12.7808,13.098,13.2088,13.3196,13.3884,13.4189,13.4495,13.461,13.461,13.3693,13.3578,13.4113,13.2699,13.1897,13.1706,13.1706,13.2088,13.2814,13.14,13.0483,12.9375,12.3795,11.6735,10.8891,0.0,9.8166,9.4062,9.2217,9.1598,9.2056,9.4595,9.4634,9.2787,8.8017,8.8594,9.071,9.0441,9.5057,10.1789,10.9213,11.3791,11.8407,12.5794,12.7678,12.8794,13.191,13.1218,13.041,13.1602,13.291,13.4911,13.7988,14.1412,14.4297,14.6605,14.6682,14.499,14.1104,14.0296,0.0,0.0,0.0,0.0,14.6798,14.8798,14.9721,14.9106,15.0106,15.0606,15.0298,15.0914,15.1106,15.1106,15.1414,15.1606,15.1606,15.0721,14.9606,14.8106,14.5605,14.3489,14.1797,14.0104,13.8796,13.7988,13.6796,13.6411,13.6411,13.6411,13.6411,13.6296,13.5411,13.4603,13.341,0.0,0.0,0.0,0.0,0.0,0.0,0.0,0.0,0.0,0.0,0.0,0.0,0.0,0.0,0.0,0.0,0.0,8.6038,9.3216,10.0869,10.871,11.6491,12.0107,12.3262,12.6185,12.5592,12.6509,12.9184,12.9184,13.0101,13.1897,13.1591,13.1782,13.2317,13.1515,13.1209,13.1209,13.0598,13.0292,12.991,12.7388,12.4866,12.2172,11.5702,10.8289,0.0,9.3601,8.8992,8.5992,8.5291,8.5824,8.7055,8.8671,8.8709,8.7555,8.467,8.8363,9.3941,9.6403,10.2789,11.0406,11.7176,12.16,12.5909,13.1679,13.2603,13.2487,13.3603,13.1602,12.9294,12.8409,12.8602,13.0102,13.3487,13.7103,14.0796,14.4913,14.4412,14.2604,13.9604,13.7911,13.6411,0.0,0.0,0.0,14.4489,14.6913,14.8298,14.8606,14.999,15.0606,15.0414,15.0914,15.1298,15.1606,15.1298,15.1298,15.1491,15.0221,14.899,14.8106,14.5913,14.4105,14.2681,14.0989,13.9796,13.8911,13.768,13.7296,13.718,13.6603,13.6488,13.668,13.5795,13.5218,13.4295,0.0,0.0,0.0,0.0,0.0,0.0,0.0,0.0,0.0,0.0,0.0,0.0,0.0,0.0,0.0,0.0,0.0,0.0,8.8917,9.3983,10.0497,10.8699,10.8432,11.0398,11.5472,11.2462,11.3595,11.9211,11.9288,12.181,12.6509,12.7197,12.7617,12.7617,12.8382,12.8802,12.8687,12.7082,12.5401,12.3491,11.9403,11.4794,10.9618,10.2195,9.5741,8.9994,8.431,8.0075,7.7361,7.8207,7.9708,8.1246,8.1362,8.3131,8.5709,8.8402,9.2249,9.748,10.5905,11.1983,11.7484,12.4216,12.7717,13.0602,13.4718,13.4295,13.2987,13.2679,12.991,12.6601,12.3909,12.2293,12.3101,12.8217,13.0102,13.3295,13.9989,13.8104,13.6296,0.0,0.0,0.0,0.0,0.0,0.0,14.2604,0.0,14.6798,14.9413,15.0298,15.1106,15.1991,15.1991,15.2414,15.3183,15.2414,15.1491,15.0606,14.9798,14.899,14.8106,14.6413,14.5182,14.422,14.2604,14.1296,14.0412,13.8796,13.8104,13.7873,13.618,13.5988,13.668,13.5795,13.5488,13.5103,0.0,0.0,0.0,0.0,0.0,0.0,0.0,0.0,0.0,0.0,0.0,0.0,0.0,0.0,0.0,0.0,0.0,0.0,8.2928,8.8459,9.3638,9.8184,10.3581,10.7973,11.101,11.2093,11.3737,11.5811,11.6384,11.6995,11.7683,11.7912,11.7989,11.7989,11.7607,11.7416,11.7416,11.6919,11.6117,11.4894,11.1392,10.8077,10.4606,9.9002,9.2833,8.6844,8.422,8.0254,7.6553,7.8015,8.0477,8.3285,8.5209,8.7094,8.9633,9.4711,10.0096,10.602,11.3291,11.9908,12.5909,13.0794,13.3487,13.5103,13.618,13.518,13.291,12.9102,12.4101,11.9023,11.4599,11.6984,12.1216,12.5601,13.241,13.8988,14.4489,14.4489,0.0,14.0912,0.0,13.9104,13.6988,13.6796,0.0,0.0,14.4105,14.6105,14.9298,15.0914,15.1799,15.1991,15.1991,15.2106,15.2299,15.1491,15.0298,14.8798,14.8606,14.8106,14.7182,14.549,14.4297,14.3297,14.1681,14.0412,13.9604,13.8488,13.768,13.6988,13.5911,13.5988,13.668,13.5795,13.5488,13.5295,0.0,0.0,0.0,0.0,0.0,0.0,0.0,0.0,0.0,0.0,0.0,0.0,0.0,0.0,0.0,0.0,0.0,0.0,0.0,8.2731,8.6386,9.011,9.2868,9.6006,9.9562,9.9594,10.1423,10.5161,10.5189,10.6488,10.901,10.8207,10.8093,10.8398,10.7902,10.8093,10.878,10.8104,10.7072,0.0,0.0,9.8916,9.5282,9.1414,8.6918,8.2496,8.1253,8.0169,7.9708,8.2131,8.4478,8.7055,9.1133,9.4095,9.7288,10.3597,10.9213,11.4714,12.1485,12.7794,13.2987,13.5795,13.6911,13.6911,13.4988,13.241,12.8409,12.1485,11.6484,11.1791,10.6713,11.0598,11.6292,12.1293,12.9602,13.7719,14.4297,14.4605,14.3989,14.3605,14.2989,0.0,14.0412,13.9989,14.1181,0.0,14.4489,14.5913,14.9298,15.1106,15.1991,15.1991,15.1991,15.1606,15.0914,15.1106,14.999,14.7605,14.799,14.7682,14.6913,14.5605,14.4489,14.3605,0.0,14.0989,13.9796,13.8988,13.8104,13.718,13.5603,13.5719,13.668,13.5411,13.5411,13.5988,0.0,0.0,0.0,0.0,0.0,0.0,0.0,0.0,0.0,0.0,0.0,0.0,0.0,0.0,0.0,0.0,0.0,0.0,0.0,0.0,7.9806,8.3676,8.1018,8.1639,8.6384,8.3753,8.559,9.2171,9.1591,9.4261,9.9878,9.8502,9.8197,9.877,9.8884,9.9725,10.0918,9.9594,9.8031,9.6231,9.3136,8.9189,8.4886,0.0,8.0376,7.84,7.7707,7.9823,8.3632,8.844,9.0748,9.2633,9.8596,10.2981,10.7213,11.3984,11.8792,12.3293,12.9987,13.518,13.8796,13.9604,13.8911,13.6873,13.2295,12.7602,12.16,11.2214,10.8098,10.4789,10.0096,10.4289,11.0598,11.7215,12.5409,13.3795,14.2412,14.2489,14.272,14.5682,14.4182,14.3181,14.3989,14.3297,14.4105,14.7298,14.6105,14.649,14.949,15.1298,15.2106,15.1991,15.1991,15.1221,14.9721,15.0991,15.0106,14.7105,14.7682,14.7605,14.6913,14.5913,14.5105,14.4297,0.0,0.0,14.0412,13.9604,13.8796,13.768,13.5411,13.5295,13.6488,13.4988,13.5411,13.6488,0.0,0.0,0.0,0.0,0.0,0.0,0.0,0.0,0.0,0.0,7.4168,7.413,0.0,0.0,0.0,0.0,0.0,0.0,0.0,0.0,0.0,7.8384,7.9268,8.0701,8.2756,8.4324,8.5742,8.7006,8.815,8.8991,8.9493,8.987,8.9752,8.9218,8.9988,9.0105,8.9722,8.9573,8.85,8.6814,8.4928,8.2813,8.0657,7.953,0.0,0.0,7.8323,7.8746,8.117,9.3056,9.8557,10.1404,10.7405,11.2599,11.7792,12.4601,12.8102,13.1102,13.718,13.9989,14.1412,14.2181,14.0296,13.6411,12.9987,12.3101,11.5407,10.6097,10.1019,9.7557,9.5249,10.0789,10.9098,11.9292,12.7486,13.5795,14.499,14.6605,14.7105,14.7682,14.799,14.849,14.9298,14.799,0.0,0.0,15.0221,14.9914,15.0491,15.2106,15.2683,15.1991,15.1991,15.1491,15.0491,15.0106,14.9298,14.799,14.7413,14.699,14.6798,14.5297,14.4489,14.4297,14.2797,0.0,13.9488,13.9412,13.8411,13.6911,13.5719,13.5488,13.5719,13.5411,13.5488,13.5719,0.0,0.0,0.0,0.0,0.0,0.0,0.0,7.3245,7.4437,7.7015,7.74,7.6938,7.5515,7.4976,7.4861,0.0,0.0,0.0,0.0,0.0,0.0,0.0,7.7339,7.8115,7.8826,8.0758,8.2026,8.2485,0.0,8.4175,8.4251,8.3754,8.3295,8.2913,8.2875,8.295,8.2987,8.3096,8.2975,8.2587,8.1919,8.1145,8.0376,0.0,0.0,0.0,7.8669,8.0477,8.4247,9.1672,10.0289,10.9098,11.6407,12.1908,12.6601,13.1679,13.4295,13.6719,14.1296,14.3489,14.4605,14.499,14.1181,13.518,12.6601,11.7984,10.8906,9.8211,9.4403,9.2441,9.0748,9.775,10.6405,11.4407,12.1677,13.041,14.1989,14.2797,14.4182,14.949,15.0106,15.0491,15.1298,15.0606,15.0683,15.1914,15.1991,15.1914,15.1414,15.2183,15.2414,15.1991,15.1991,15.1606,15.0721,15.0298,14.949,14.8182,14.7798,14.7298,14.6798,14.522,14.4412,14.4297,14.2604,0.0,13.9296,13.9296,13.8296,13.668,13.5795,13.5795,13.6103,13.5719,13.5488,13.5603,0.0,0.0,0.0,0.0,0.0,0.0,0.0,7.4976,7.6476,8.0631,8.1285,8.0285,7.74,7.6169,7.5207,0.0,0.0,0.0,0.0,0.0,0.0,0.0,0.0,0.0,7.5985,0.0,0.0,7.8985,7.9848,0.0,0.0,0.0,0.0,0.0,7.8897,7.9045,7.9727,7.9829,8.0279,0.0,0.0,8.1093,0.0,0.0,0.0,0.0,0.0,8.1939,8.6363,9.0248,9.9635,11.1291,12.0408,12.7409,13.2679,13.5295,13.7911,14.0796,14.4105,14.599,14.7182,14.7182,14.1681,13.3603,12.3601,11.3483,10.3097,9.171,8.894,8.8325,8.7555,9.4403,10.2404,10.9098,11.5291,12.3985,13.7796,13.8681,14.1296,15.0414,15.1183,15.1298,15.2183,15.2106,15.2106,15.2491,15.3183,0.0,15.2606,15.2183,15.2106,15.2299,15.2106,15.1683,15.0991,15.0606,14.9798,14.849,14.8106,14.7605,14.6798,14.522,14.4412,14.4297,14.2604,0.0,0.0,13.9296,13.8296,13.668,13.5988,13.6103,13.6488,13.5988,13.568,13.5603,0.0,0.0,0.0,0.0,0.0,0.0,0.0,7.5861,7.8207,8.467,8.3593,8.1785,8.0746,7.9131,7.6899,0.0,0.0,0.0,0.0,0.0,0.0,0.0,0.0,0.0,0.0,0.0,0.0,7.7316,7.8837,0.0,0.0,0.0,0.0,0.0,0.0,8.0663,8.074,8.0876,0.0,0.0,0.0,0.0,0.0,0.0,0.0,0.0,0.0,8.0708,8.217,9.3133,9.825,10.1981,11.2791,12.4409,13.3987,13.3487,13.7796,14.3297,14.599,14.7413,14.8106,14.8106,14.1296,13.2102,12.2601,11.0791,9.9173,8.9594,8.5786,8.4824,8.7017,9.0056,9.6172,10.8213,11.3291,12.0793,13.5103,13.9604,14.3489,14.9106,15.0991,15.2183,15.3106,15.2491,15.2606,15.4184,15.4299,0.0,15.4299,15.2799,15.2414,15.3183,15.2414,15.1991,15.1914,15.0414,14.949,14.9413,14.7798,14.699,14.6798,14.522,14.4412,14.4297,14.2604,0.0,0.0,13.9296,13.8296,13.6796,13.668,13.618,13.5719,13.6411,13.618,13.5603,0.0,0.0,0.0,0.0,0.0,0.0,7.4591,7.5207,7.8015,8.5863,8.644,8.5824,8.4978,8.2901,7.9169,7.3245,0.0,0.0,0.0,0.0,0.0,0.0,0.0,0.0,0.0,0.0,0.0,7.6394,7.7988,0.0,0.0,0.0,0.0,0.0,0.0,0.0,8.0888,8.0959,0.0,0.0,0.0,0.0,0.0,0.0,0.0,0.0,0.0,0.0,8.2631,8.6363,9.1595,9.6749,9.8057,10.829,12.1216,12.8602,13.4103,13.9104,14.5182,14.8298,14.9606,14.9106,14.1181,13.1102,12.1716,10.8906,9.6634,8.8325,8.4593,8.3439,8.5517,8.7979,9.2518,10.1212,10.3289,10.8906,12.3293,12.6101,13.1179,14.3489,14.6413,14.899,15.2914,15.3914,15.4299,15.4491,0.0,0.0,15.3684,15.3607,15.3414,15.3299,15.2991,15.2491,15.1991,15.0798,14.999,14.949,14.8298,14.7413,14.6913,14.572,14.4913,14.4297,14.3105,0.0,0.0,13.9296,13.8296,13.6796,13.6796,13.6603,13.6296,13.668,13.6219,13.5603,0.0,0.0,0.0,0.0,0.0,6.9629,7.4361,7.5515,7.8592,8.6363,8.7709,8.7786,8.744,8.4016,7.9554,7.4168,7.4091,0.0,0.0,0.0,0.0,0.0,0.0,0.0,0.0,0.0,7.6502,7.5925,7.7553,7.8366,0.0,0.0,0.0,0.0,0.0,0.0,0.0,0.0,0.0,0.0,0.0,0.0,0.0,0.0,0.0,0.0,0.0,0.0,0.0,0.0,0.0,9.1518,8.8671,9.5518,10.7098,11.9792,12.8294,13.5103,14.2297,14.7105,14.9798,14.8913,14.0604,13.0102,12.0485,10.7482,9.5249,8.7363,8.3708,8.2401,8.3862,8.6209,8.971,9.5134,9.6826,10.2097,11.5484,11.7792,12.3293,13.7603,14.0489,14.372,14.9683,15.3183,15.4915,15.4491,0.0,0.0,15.3991,15.4607,15.4414,15.3299,15.3299,15.2799,15.1606,15.0798,14.9914,14.9106,14.8182,14.749,14.6913,14.5797,14.499,14.4297,0.0,0.0,0.0,13.9719,13.8719,13.718,13.718,13.6988,13.6796,13.6796,13.6411,13.5988,0.0,0.0,0.0,0.0,0.0,0.0,7.5091,7.74,8.0592,8.6632,8.6671,8.644,8.7325,8.14,7.7323,7.7246,7.4976,0.0,0.0,0.0,0.0,0.0,0.0,0.0,0.0,0.0,7.6015,7.6015,7.7669,7.8515,7.8554,8.0285,0.0,0.0,0.0,0.0,0.0,0.0,0.0,0.0,0.0,0.0,0.0,0.0,0.0,0.0,0.0,0.0,0.0,0.0,0.0,0.0,0.0,8.994,9.3903,10.6713,12.0485,13.2679,13.6988,14.3105,14.799,14.7105,13.9296,12.8986,11.8792,10.6713,9.5095,8.6671,8.2901,8.1362,8.217,8.4401,8.7555,9.1864,9.6788,10.3905,11.4984,11.9408,12.4409,13.2179,13.391,13.6719,14.2604,14.9298,15.3684,15.4376,0.0,0.0,15.5722,15.5799,15.4991,15.3376,15.3299,15.2491,15.0721,14.9914,14.9106,14.8182,14.7298,14.6913,14.6798,14.522,14.4412,0.0,0.0,0.0,0.0,14.0604,13.9604,13.8104,13.8104,13.7603,13.6796,13.6796,13.6796,13.6796,0.0,0.0,0.0,0.0,0.0,0.0,0.0,7.2245,7.5245,8.0592,8.1093,8.19,8.4516,7.9785,7.6399,7.6399,7.4091,0.0,0.0,0.0,0.0,0.0,0.0,0.0,0.0,0.0,7.6284,7.6899,7.74,7.8284,7.94,7.9323,7.9631,8.0208,0.0,0.0,0.0,0.0,0.0,0.0,0.0,0.0,0.0,0.0,0.0,0.0,0.0,0.0,0.0,0.0,0.0,0.0,0.0,0.0,0.0,9.448,10.7405,12.0793,12.6217,13.1795,13.5488,13.291,12.6678,11.9292,11.1406,10.1981,9.2979,8.6286,8.2862,8.1362,8.2131,8.4362,8.8055,9.4134,9.7904,10.2904,11.1098,11.71,12.3985,13.2795,14.2797,14.999,15.2414,15.3491,15.4184,15.4491,0.0,0.0,15.4107,15.4607,15.4684,15.4107,15.4107,15.3299,15.1606,15.0221,14.9413,14.9106,14.7605,14.6913,14.6913,14.6413,0.0,0.0,0.0,0.0,0.0,13.9989,13.9104,13.7988,13.7411,13.6988,13.6796,13.6796,13.6796,13.6796,0.0,0.0,0.0,0.0,0.0,0.0,0.0,6.9821,7.2399,7.6515,7.6515,7.7669,8.1708,7.7053,7.4245,7.5861,7.336,0.0,0.0,0.0,0.0,0.0,0.0,0.0,0.0,7.6015,7.6746,7.8246,7.8861,8.0054,8.1747,8.1823,8.1439,8.0708,8.0169,0.0,0.0,0.0,0.0,0.0,0.0,0.0,8.0554,0.0,0.0,0.0,0.0,0.0,0.0,0.0,0.0,0.0,0.0,0.0,0.0,0.0,9.6519,10.729,11.6215,12.2985,12.7101,12.4986,11.9715,11.3291,10.6521,9.8634,9.1095,8.5132,8.2439,8.1362,8.2131,8.4632,8.8209,9.3095,9.6826,10.1481,10.829,11.5099,12.3216,13.3487,14.499,15.2299,0.0,15.4299,15.4991,0.0,0.0,0.0,15.3799,15.3876,15.3991,15.3991,15.3991,15.3106,15.1106,14.9721,14.8798,14.849,14.7413,14.6682,14.6413,14.6413,0.0,0.0,0.0,0.0,0.0,14.0104,13.9296,13.8488,13.7603,13.7103,13.6796,13.6796,13.6796,13.6796,0.0,0.0,0.0,0.0,0.0,0.0,0.0,6.9629,7.1591,7.3937,7.2899,7.3745,7.8477,7.3322,7.1129,7.513,0.0,0.0,0.0,0.0,0.0,0.0,0.0,0.0,0.0,7.6015,7.7323,7.9823,8.1477,8.3208,8.5016,8.6594,8.5517,8.2285,8.2247,8.0785,0.0,0.0,0.0,0.0,0.0,0.0,0.0,0.0,0.0,0.0,0.0,0.0,0.0,0.0,0.0,0.0,0.0,0.0,0.0,0.0,0.0,0.0,0.0,11.5291,12.0908,12.0716,11.5907,10.9598,10.302,9.598,0.0,8.3478,8.167,8.14,8.2401,8.517,8.8017,9.0171,9.4595,10.0212,10.7021,11.4484,12.3485,13.4988,14.2412,14.6798,14.7182,15.2491,0.0,0.0,0.0,0.0,15.4607,15.3799,15.3299,15.3376,15.3183,15.1991,14.9606,14.8683,14.7798,14.699,14.6913,14.6413,14.572,14.5605,0.0,0.0,0.0,0.0,0.0,14.0989,14.0104,13.9219,13.8411,13.7603,13.6796,13.6796,13.6796,13.6796,0.0,0.0,0.0,0.0,0.0,0.0,0.0,0.0,0.0,0.0,6.9552,6.9744,7.0975,6.9052,6.8398,0.0,0.0,0.0,0.0,0.0,0.0,0.0,0.0,0.0,7.5014,7.6322,7.79,7.9823,8.1477,8.3516,8.5824,8.6209,8.4939,8.2285,8.167,7.9592,0.0,0.0,0.0,0.0,0.0,0.0,0.0,0.0,0.0,0.0,7.9823,8.0631,0.0,0.0,0.0,0.0,0.0,0.0,0.0,0.0,8.4709,0.0,9.1864,0.0,10.1904,9.9288,9.7942,9.6134,0.0,8.9056,8.6363,8.2978,8.167,8.1939,0.0,0.0,8.8671,9.5595,9.8788,10.2789,10.9598,12.3716,13.6296,14.4297,15.1183,15.4107,15.1106,15.4414,0.0,0.0,0.0,15.4799,15.5492,15.4107,15.3607,15.4184,15.2299,15.0991,15.0414,14.8913,14.8106,14.7913,14.6605,14.5913,14.572,14.499,0.0,0.0,0.0,0.0,14.1797,14.0989,14.0104,13.9219,13.8411,13.7603,13.6796,13.6796,13.6796,13.6796,0.0,0.0,0.0,0.0,0.0,0.0,0.0,0.0,0.0,0.0,0.0,0.0,0.0,0.0,0.0,0.0,0.0,0.0,0.0,0.0,0.0,0.0,0.0,7.4707,7.4707,7.6015,7.8092,8.0939,8.2247,8.4786,8.844,8.844,8.6671,8.3362,8.0169,7.7515,0.0,0.0,0.0,0.0,7.713,0.0,0.0,0.0,0.0,0.0,7.9208,8.0054,0.0,8.3362,8.4324,8.467,0.0,0.0,0.0,0.0,8.2439,8.3362,8.4247,8.971,9.4749,9.3326,9.271,9.1825,8.9133,8.6671,8.4439,8.267,8.167,8.2131,8.5478,0.0,0.0,0.0,9.9442,10.5213,11.6292,12.8486,13.9488,14.7798,15.2683,15.5107,0.0,0.0,0.0,0.0,0.0,15.4491,15.4607,15.3414,15.2683,15.2799,15.1106,15.0106,15.0106,14.849,14.7605,14.7605,14.6297,14.549,14.5105,14.4605,14.372,0.0,0.0,0.0,14.1181,13.9989,13.9181,13.8681,13.7796,13.718,13.6796,13.6796,13.6796,13.6796,0.0,0.0,0.0,0.0,0.0,0.0,0.0,0.0,0.0,0.0,0.0,0.0,0.0,0.0,0.0,0.0,0.0,0.0,0.0,0.0,0.0,0.0,7.4014,7.4591,7.4707,7.5668,7.813,8.2131,8.3362,8.644,9.121,9.1595,8.9402,8.4863,7.9246,7.6092,0.0,0.0,0.0,0.0,7.6784,0.0,0.0,0.0,0.0,0.0,0.0,0.0,0.0,8.4824,8.617,8.6132,8.6363,0.0,0.0,0.0,0.0,0.0,8.2054,8.7786,9.3403,9.2979,9.2172,9.1018,8.9017,8.5786,8.3016,8.2439,8.1862,8.2593,8.6209,8.7786,0.0,0.0,0.0,10.9406,12.4986,13.2295,13.9412,14.8606,15.1606,0.0,0.0,0.0,0.0,0.0,0.0,15.4299,15.3684,15.2491,15.1491,15.0914,14.9914,14.9298,14.9298,14.7682,14.6913,14.6913,14.5913,14.5105,14.4412,14.4105,14.322,0.0,0.0,0.0,14.0681,13.8988,13.8296,13.8181,13.7296,13.6911,13.6796,13.6796,13.6796,13.6796,0.0,0.0,0.0,0.0,0.0,0.0,0.0,0.0,0.0,0.0,0.0,0.0,0.0,0.0,0.0,0.0,0.0,0.0,0.0,0.0,0.0,7.1283,7.2822,7.4014,7.4707,7.6284,7.8477,8.1285,8.4247,8.7594,9.1248,9.3403,9.1364,8.5747,8.1977,7.8631,7.5822,7.6092,7.613,7.6015,7.613,0.0,0.0,0.0,0.0,0.0,0.0,0.0,0.0,8.0939,8.3247,8.5632,8.2901,0.0,0.0,0.0,0.0,0.0,8.6363,9.0056,9.1171,8.4824,8.517,8.6286,8.317,8.1939,8.1631,8.217,8.2785,8.467,8.9517,9.2287,9.548,0.0,0.0,12.0716,0.0,0.0,14.5605,14.999,0.0,15.6107,0.0,0.0,0.0,0.0,0.0,15.4799,15.5415,15.2491,15.1183,15.1799,14.9606,14.8413,14.8413,14.7413,14.6913,14.6913,14.5297,14.4489,14.4412,14.2912,14.2104,0.0,0.0,14.1104,14.1604,13.9796,13.9104,13.8988,13.8181,13.7411,13.6796,13.6796,13.6796,13.6796,0.0,0.0,0.0,0.0,0.0,0.0,0.0,0.0,0.0,0.0,0.0,0.0,0.0,0.0,0.0,0.0,0.0,0.0,0.0,0.0,7.1321,7.2245,7.3514,7.4322,7.4707,7.6823,7.9669,8.317,8.6094,8.994,9.4595,9.348,9.0287,8.5247,8.0977,7.763,7.5322,7.5784,7.6284,7.6669,0.0,0.0,0.0,0.0,0.0,0.0,0.0,0.0,0.0,0.0,8.4362,8.7017,8.4055,0.0,0.0,0.0,0.0,0.0,8.3939,8.7094,8.9017,8.5978,8.844,9.0864,8.794,8.617,8.544,8.6247,8.6363,8.7902,9.3018,0.0,10.1904,11.2483,0.0,12.8294,13.6911,14.1296,14.5413,0.0,0.0,0.0,0.0,0.0,0.0,0.0,0.0,0.0,15.4491,15.2106,15.0721,15.0683,14.9106,14.7798,14.6913,14.649,14.6297,14.6221,14.4489,14.3682,14.3682,14.2412,14.1912,14.1912,0.0,14.0604,14.0412,13.9181,13.8411,13.7911,13.7488,13.718,13.6796,13.6796,13.6796,13.6796,0.0,0.0,0.0,0.0,0.0,0.0,0.0,0.0,0.0,0.0,0.0,0.0,0.0,0.0,0.0,0.0,0.0,0.0,0.0,0.0,7.1591,7.3129,7.4361,7.5399,7.6169,7.8284,8.1593,8.6094,8.8825,9.2979,9.8288,9.4287,8.994,8.5286,8.0554,7.7169,7.5053,7.5707,7.6515,7.7207,0.0,0.0,0.0,0.0,0.0,0.0,0.0,0.0,0.0,0.0,0.0,0.0,0.0,0.0,0.0,8.3708,8.2285,8.2247,8.3439,8.5978,8.8594,8.9863,9.2518,9.4595,9.3826,9.171,0.0,0.0,0.0,9.321,9.7326,10.2097,0.0,12.3101,12.991,0.0,0.0,0.0,0.0,0.0,0.0,0.0,0.0,0.0,0.0,0.0,0.0,0.0,15.2991,15.1414,14.9914,14.8913,14.8106,14.6913,14.5413,14.5182,14.5182,14.5413,14.3797,14.3105,14.3105,14.2297,14.1797,14.1489,14.0681,13.9912,13.9219,13.8181,13.7488,13.7103,13.6911,13.6796,13.6796,13.6796,13.6796,13.6796,0.0,0.0,0.0,0.0,0.0,0.0,0.0,0.0,0.0,0.0,0.0,0.0,0.0,0.0,0.0,0.0,0.0,0.0,0.0,0.0,7.1321,7.2245,7.4591,7.74,8.0554,8.1554,8.4478,8.9556,9.2903,9.6749,10.1019,9.7519,9.2826,8.7055,8.3516,7.9669,7.5899,7.5976,7.6515,7.7207,7.6361,0.0,0.0,0.0,0.0,0.0,0.0,0.0,0.0,0.0,0.0,0.0,0.0,0.0,8.7401,8.7055,8.5863,8.567,9.0402,9.1325,9.1518,9.3941,9.2441,9.1556,9.6095,9.5172,0.0,9.9481,0.0,0.0,0.0,11.1291,12.0216,12.7602,13.6296,14.3682,0.0,0.0,0.0,0.0,0.0,0.0,0.0,0.0,0.0,0.0,0.0,0.0,15.2183,15.0491,14.8798,14.7105,14.6297,14.5413,14.4489,14.3682,14.3682,14.4489,14.3489,14.3105,14.3105,14.2297,14.1489,14.0604,13.9796,13.9412,13.9219,13.7603,13.7296,13.7873,13.7103,13.6796,13.6796,13.6796,13.6796,13.6796,0.0,0.0,0.0,0.0,0.0,0.0,0.0,0.0,0.0,0.0,0.0,0.0,0.0,0.0,0.0,0.0,0.0,0.0,0.0,7.1398,7.2322,7.3707,7.6707,7.9477,8.1785,8.5247,8.9517,9.4634,10.0212,10.2597,10.202,9.7557,9.2326,8.644,8.2477,7.9862,7.8284,7.7246,7.79,7.9438,7.6976,7.6515,0.0,0.0,0.0,0.0,0.0,0.0,0.0,0.0,8.3324,8.567,8.4016,8.6363,8.9248,8.6632,8.5401,8.5324,8.7248,8.944,9.1825,9.4364,9.598,0.0,0.0,10.2289,10.4097,10.7713,10.9483,0.0,0.0,0.0,12.7409,13.368,14.1181,14.7798,0.0,0.0,0.0,0.0,0.0,0.0,0.0,0.0,0.0,0.0,0.0,0.0,0.0,14.9106,14.7605,14.6913,14.5605,14.4489,14.3605,14.3297,14.2681,14.1989,14.2297,14.2412,14.2297,14.1489,14.0912,14.0604,14.0296,13.9488,13.8488,13.8411,13.7911,13.7296,13.6911,13.6796,13.6796,13.6796,13.6796,13.6796,0.0,0.0,0.0,0.0,0.0,0.0,0.0,0.0,0.0,0.0,0.0,0.0,0.0,0.0,0.0,0.0,0.0,0.0,7.0937,7.1975,7.3129,7.4284,7.7861,8.0977,8.3439,8.9017,9.3903,9.7904,10.4982,10.6482,10.252,9.7942,9.2903,8.7555,8.3555,8.1785,8.167,7.9708,7.9862,8.1208,7.8054,7.7323,0.0,0.0,0.0,0.0,0.0,0.0,0.0,0.0,8.2978,8.5286,8.4516,8.7094,8.994,8.7594,8.6709,8.6324,8.5517,8.7594,9.0594,9.3172,0.0,0.0,10.6597,10.9483,11.2483,11.6599,11.7792,0.0,0.0,0.0,0.0,0.0,0.0,0.0,0.0,0.0,0.0,0.0,0.0,0.0,0.0,0.0,0.0,0.0,0.0,0.0,0.0,14.8106,14.6682,0.0,14.472,14.3412,14.2297,14.2297,14.1681,14.0604,14.0912,14.1104,14.1104,14.0719,14.0296,13.9796,13.9796,13.8988,13.768,13.8296,13.7796,13.6796,13.6488,13.6603,13.6796,13.6796,13.6796,13.6796,0.0,0.0,0.0,0.0,0.0,0.0,0.0,0.0,0.0,0.0,0.0,0.0,0.0,0.0,0.0,0.0,0.0,0.0,7.0975,7.2552,7.3514,7.3514,7.7553,8.1785,8.5978,9.2787,9.7134,9.8865,10.6482,10.7598,10.252,9.9058,9.5211,9.1018,8.7632,8.6132,8.594,8.3401,8.2324,8.2093,7.9515,7.9015,7.9631,0.0,0.0,0.0,0.0,0.0,0.0,0.0,8.2477,8.2324,8.9017,9.0056,8.9056,9.071,9.0556,8.9363,8.6786,8.6748,8.8055,9.0594,0.0,0.0,11.3214,11.5984,11.8715,12.6409,0.0,12.4486,0.0,0.0,0.0,0.0,0.0,0.0,0.0,0.0,0.0,0.0,0.0,0.0,0.0,0.0,0.0,0.0,0.0,0.0,0.0,14.7798,14.6105,0.0,14.3489,14.2297,14.0604,14.0604,14.0604,14.0604,13.9719,13.9296,13.9296,14.0219,13.9681,13.8104,13.8104,13.7603,13.6796,13.6796,13.6796,13.668,13.5795,13.5988,13.6796,13.6796,13.6796,13.6796,0.0,0.0,0.0,0.0,0.0,0.0,0.0,0.0,0.0,0.0,0.0,0.0,0.0,0.0,0.0,0.0,0.0,0.0,7.2745,7.3745,7.463,7.5245,7.8746,8.1285,8.2554,9.0402,9.7634,10.4097,10.6405,10.4905,9.9865,9.6442,9.2903,8.9402,8.8979,8.7786,8.5978,8.4055,8.2862,8.217,8.0862,7.9746,7.89,0.0,0.0,0.0,0.0,0.0,0.0,0.0,0.0,0.0,8.6132,8.9286,9.1864,8.9979,8.9671,8.921,8.6094,8.7632,0.0,9.4018,0.0,0.0,0.0,11.9908,0.0,0.0,13.2603,13.1987,0.0,0.0,0.0,0.0,0.0,0.0,0.0,0.0,0.0,0.0,0.0,0.0,0.0,0.0,0.0,0.0,0.0,0.0,0.0,14.549,0.0,0.0,14.1797,14.0796,13.9719,13.9719,13.9412,13.8796,13.9219,13.9604,14.0219,13.9296,13.8604,13.8104,13.8104,13.7296,13.5911,13.5911,13.618,13.6796,13.6488,13.6603,13.6796,13.6796,13.6796,13.6796,0.0,0.0,0.0,0.0,0.0,0.0,0.0,0.0,0.0,0.0,0.0,0.0,0.0,0.0,0.0,0.0,0.0,0.0,0.0,7.4591,7.5438,7.5976,7.8592,8.117,8.3555,9.121,9.6903,10.0404,10.2712,10.1289,9.6288,9.5903,9.4441,9.2287,9.448,9.348,9.0056,8.8709,8.6671,8.4286,8.3785,8.2554,8.1093,0.0,0.0,0.0,0.0,0.0,0.0,0.0,0.0,0.0,8.4593,8.7325,9.0017,8.8979,8.8556,8.8171,8.7171,8.9248,0.0,9.8865,10.6213,11.4214,12.2716,0.0,0.0,0.0,0.0,13.6603,0.0,0.0,0.0,0.0,0.0,0.0,0.0,0.0,0.0,0.0,0.0,0.0,0.0,0.0,0.0,0.0,0.0,0.0,0.0,14.4297,0.0,0.0,14.1104,13.9989,13.8796,13.8796,13.8604,13.8104,13.8219,13.8796,13.9604,13.8604,13.7873,13.7603,13.7603,13.6988,13.5988,13.5603,13.5988,13.6796,13.6411,13.6488,13.6796,13.6796,13.6796,13.6796,0.0,0.0,0.0,0.0,0.0,0.0,0.0,0.0,0.0,0.0,0.0,0.0,0.0,0.0,0.0,0.0,0.0,0.0,0.0,7.5245,7.613,7.6207,7.813,8.1823,8.7517,9.3595,9.4749,9.0748,9.648,9.6903,9.2479,9.6634,9.825,9.7904,10.1904,10.0789,9.598,9.4788,9.1441,8.694,8.7286,8.6363,8.4786,8.4939,0.0,0.0,0.0,0.0,0.0,0.0,0.0,0.0,8.4093,8.4939,8.544,8.7709,8.7401,8.6863,8.9248,9.1402,9.5211,10.4597,11.0791,0.0,12.7602,13.4295,13.9181,14.2104,0.0,13.9181,14.0681,0.0,0.0,0.0,0.0,0.0,0.0,0.0,0.0,0.0,0.0,0.0,0.0,0.0,0.0,0.0,0.0,0.0,0.0,14.3682,0.0,14.1604,14.0796,13.9604,13.7988,13.7988,13.7988,0.0,13.718,13.718,13.7988,13.7988,13.7488,13.6796,13.668,13.668,13.668,13.5911,13.5988,13.668,13.5911,13.6103,13.6796,13.6796,13.6796,13.6796,0.0,0.0,0.0,0.0,0.0,0.0,0.0,0.0,0.0,0.0,0.0,0.0,0.0,0.0,0.0,0.0,0.0,0.0,0.0,7.6438,7.7284,7.7938,8.2131,8.6017,8.9286,9.0171,8.9479,8.7209,9.1171,9.2556,9.1556,9.5172,9.7788,9.9596,10.1212,9.9019,9.4018,9.0517,8.6863,8.3632,8.6324,8.5978,8.4016,8.5324,8.4132,0.0,0.0,0.0,0.0,0.0,0.0,0.0,8.4093,8.5324,8.5824,8.5747,8.6863,8.8402,8.9594,9.3095,9.8827,10.879,12.01,12.9987,13.4988,13.8181,14.0104,14.0104,14.222,14.3989,14.3605,0.0,0.0,0.0,0.0,0.0,0.0,0.0,0.0,0.0,0.0,0.0,0.0,0.0,0.0,0.0,0.0,0.0,14.2681,14.1104,13.9719,13.8911,13.8681,13.8104,13.7103,13.7103,13.7103,0.0,13.6911,13.6911,13.7103,13.7103,13.6988,13.6796,13.6103,13.618,13.668,13.5911,13.5988,13.6796,13.6603,13.6603,13.6796,13.6796,13.6796,13.668,0.0,0.0,0.0,0.0,0.0,0.0,0.0,0.0,0.0,0.0,0.0,0.0,0.0,0.0,0.0,0.0,0.0,0.0,0.0,0.0,7.8015,7.9669,8.4247,8.6594,8.6286,8.7055,8.6209,8.3708,8.5055,8.6978,8.9479,9.3287,9.6865,10.0173,10.2212,9.9596,9.3595,9.1787,8.8825,8.5632,8.8632,8.8325,8.617,8.744,8.5324,8.1554,8.0208,0.0,0.0,0.0,0.0,0.0,0.0,0.0,8.3862,8.467,8.5824,8.7786,9.1864,9.698,10.4212,11.6792,12.7486,13.5411,13.7603,13.9412,14.0604,14.0604,14.2989,14.5105,14.499,0.0,0.0,0.0,0.0,0.0,0.0,0.0,0.0,0.0,0.0,0.0,0.0,0.0,0.0,0.0,0.0,14.1489,14.0719,13.9796,13.8911,13.8104,13.8104,13.768,13.6796,13.6796,13.6796,13.6796,13.6796,13.6796,13.6796,13.6796,13.6796,13.6796,13.6296,13.6411,13.6796,13.6296,13.6411,13.6796,13.6796,13.6796,13.6796,13.6796,13.6796,13.668,0.0,0.0,0.0,0.0,0.0,0.0,0.0,0.0,0.0,0.0,0.0,0.0,0.0,0.0,0.0,0.0,0.0,0.0,0.0,0.0,0.0,8.1631,8.5093,8.5863,8.3439,8.4901,8.4401,8.1747,8.0439,8.2708,8.8363,9.2133,9.6365,10.0904,10.3212,10.0404,9.3903,9.3595,9.1171,8.7786,9.021,8.9825,8.7902,8.8748,8.5824,8.1285,8.1131,0.0,0.0,0.0,0.0,0.0,0.0,0.0,8.1516,8.3632,8.4439,8.6209,9.3287,10.0981,11.0483,12.4601,13.2487,13.7103,13.8104,13.9488,14.0796,14.1681,14.3105,14.4412,14.5105,14.6605,0.0,0.0,0.0,0.0,0.0,0.0,0.0,0.0,0.0,0.0,0.0,0.0,0.0,0.0,0.0,14.0604,13.9219,13.8988,13.8604,13.7873,13.7873,13.7488,13.6603,13.6603,13.6488,13.6411,13.6411,13.6411,13.6603,13.6411,13.6488,13.6796,13.6796,13.6796,13.6796,13.6796,13.6796,13.6796,13.6603,13.6603,13.6603,13.6411,13.6411,13.6411,0.0,0.0,0.0,0.0,0.0,0.0,0.0,0.0,0.0,0.0,0.0,0.0,0.0,0.0,0.0,0.0,0.0,0.0,7.6169,0.0,0.0,8.4209,8.4939,8.6055,8.7786,8.5286,8.4093,8.4401,8.1323,8.3939,0.0,0.0,9.7865,10.3289,10.1597,9.8557,9.448,8.944,8.5709,8.3324,8.517,8.5247,8.4362,8.5247,8.4132,8.2054,8.1362,0.0,0.0,0.0,8.1093,0.0,0.0,0.0,8.117,8.1516,8.2631,8.4786,8.9479,10.2597,11.7176,12.6717,13.291,13.718,13.8796,13.9912,14.0796,0.0,14.2604,14.3297,14.3412,14.4913,14.6297,0.0,0.0,0.0,0.0,0.0,0.0,0.0,0.0,0.0,0.0,0.0,0.0,0.0,13.9412,13.8488,13.8296,13.7488,13.7103,13.6988,13.6988,13.6603,13.5719,13.5719,13.5295,13.4603,13.4603,13.4988,13.5603,13.4988,13.5411,13.6796,13.6796,13.6796,13.6796,13.6796,13.6796,13.668,13.5988,13.5719,13.5603,13.4911,13.4603,13.4603,0.0,0.0,0.0,0.0,0.0,0.0,0.0,0.0,0.0,0.0,0.0,0.0,0.0,0.0,0.0,7.7361,7.6553,7.6207,7.6707,7.7823,7.9785,8.267,8.367,8.4478,8.5093,8.3208,8.2401,8.2785,8.0285,0.0,0.0,9.4634,9.8404,0.0,0.0,9.775,9.4672,8.9671,8.6363,8.4516,8.5247,8.594,8.6324,8.5286,8.4439,8.3516,8.1747,0.0,0.0,0.0,0.0,8.117,8.1631,0.0,0.0,0.0,8.2631,8.6594,9.7057,10.7713,11.81,12.7602,13.2295,13.518,13.7411,13.8911,14.0104,14.0989,14.1797,14.2604,14.2989,14.4105,14.5105,14.5413,14.5797,0.0,0.0,0.0,0.0,0.0,0.0,0.0,0.0,0.0,0.0,0.0,13.8488,13.7873,13.7411,13.6988,13.6603,13.6103,13.6103,13.568,13.4795,13.4295,13.368,13.2795,13.2795,13.2987,13.341,13.2987,13.3795,13.5411,13.4911,13.4911,13.5295,13.4295,13.418,13.4603,13.418,13.3795,13.341,13.4103,13.3987,13.3603,0.0,0.0,0.0,0.0,0.0,0.0,0.0,0.0,0.0,0.0,0.0,0.0,0.0,0.0,0.0,0.0,7.6707,7.6361,7.7246,7.8054,7.9169,8.0708,8.217,8.267,8.2016,8.0977,8.0554,8.0785,0.0,0.0,9.5634,9.6519,10.0981,0.0,10.2981,9.9173,0.0,0.0,0.0,0.0,8.6247,8.6555,8.7632,8.6555,8.6055,8.5555,8.3208,0.0,0.0,0.0,0.0,0.0,0.0,0.0,0.0,0.0,0.0,8.6863,10.0212,10.7713,11.4214,12.4716,12.9487,13.2487,13.568,13.7796,13.9219,14.0104,14.0989,14.1797,14.2412,14.3297,14.4105,14.4105,14.4297,14.4412,14.4412,0.0,0.0,0.0,0.0,0.0,0.0,0.0,0.0,0.0,13.7796,13.7488,13.6796,13.6603,13.618,13.5488,13.5295,13.4718,13.3603,13.2603,13.191,13.1679,13.1295,13.1295,13.1679,13.1487,13.2102,13.3295,13.291,13.318,13.391,13.2295,13.2179,13.2987,13.2487,13.1987,13.1487,13.2603,13.2718,13.2487,0.0,0.0,0.0,0.0,0.0,0.0,0.0,0.0,0.0,0.0,0.0,0.0,7.6053,7.6053,7.6092,7.613,7.6053,7.6361,7.7246,7.8054,7.89,7.9823,8.0746,0.0,8.117,7.9477,7.9054,7.9862,0.0,0.0,9.7442,10.0712,10.7521,11.6792,10.929,10.4097,10.0596,0.0,0.0,0.0,0.0,8.5016,8.544,8.8479,0.0,0.0,0.0,0.0,0.0,0.0,0.0,0.0,0.0,0.0,0.0,0.0,0.0,0.0,9.1095,9.7557,10.4713,11.5715,12.3408,12.9487,13.4411,13.6911,13.8411,13.9219,14.0104,14.0681,14.0719,14.2104,14.3181,14.3181,14.3912,14.4412,14.4412,14.2989,14.1912,0.0,0.0,0.0,0.0,0.0,0.0,0.0,13.6911,13.6796,13.6796,13.5988,13.5488,13.5488,13.4795,13.3487,13.191,13.0217,13.0217,13.1679,13.0102,13.0217,13.1679,13.091,13.0602,13.0718,13.1487,13.2295,13.2987,13.2102,13.2179,13.2795,13.1295,13.0602,13.0487,12.9717,12.9987,13.0718,0.0,0.0,0.0,0.0,0.0,0.0,0.0,0.0,0.0,0.0,0.0,0.0,0.0,7.7592,7.7592,7.7592,7.713,7.6976,7.7284,7.8054,7.8631,7.8938,8.0323,8.1093,8.1093,7.94,7.8938,0.0,0.0,8.5632,9.5134,9.9135,10.529,11.2714,10.8406,10.5713,10.402,9.4749,0.0,0.0,0.0,0.0,0.0,0.0,0.0,0.0,0.0,0.0,0.0,0.0,0.0,0.0,0.0,0.0,0.0,0.0,8.2247,8.4747,9.021,9.5595,10.1789,11.0714,11.7984,12.4101,12.8102,13.291,13.6488,13.6796,13.8411,13.9796,13.9796,14.0296,14.0796,14.1412,14.1296,14.1104,14.1104,14.0181,13.9488,13.9488,0.0,0.0,0.0,0.0,0.0,0.0,0.0,13.5719,13.5218,13.4911,13.4487,13.391,13.3103,13.1487,12.9294,12.9217,12.9217,12.9294,12.9217,12.9487,13.0102,12.9794,12.9717,12.9717,12.941,13.0102,13.1295,13.0487,13.0294,13.0487,12.991,12.9294,12.8909,12.9102,12.941,12.9794,0.0,0.0,0.0,0.0,0.0,0.0,0.0,0.0,0.0,0.0,0.0,0.0,0.0,0.0,7.8477,7.8477,7.8015,7.7592,7.7323,7.8323,7.8823,7.8515,8.0169,8.1093,8.1093,8.0208,7.9631,7.9361,8.1093,8.567,9.2979,9.8096,10.4097,11.0483,10.7098,10.679,0.0,0.0,0.0,9.3864,0.0,0.0,9.2133,0.0,0.0,0.0,0.0,0.0,0.0,0.0,0.0,0.0,0.0,0.0,0.0,0.0,0.0,8.4709,8.7825,9.2133,9.7904,10.6713,11.2099,11.71,12.4178,12.8909,13.2218,13.391,13.6296,13.8219,13.8796,13.8719,13.8796,13.9989,13.9719,13.9296,13.9296,13.8604,13.8104,13.8104,13.7296,0.0,0.0,0.0,0.0,0.0,0.0,0.0,13.4295,13.3718,13.291,13.1795,13.091,12.9602,12.7909,12.8486,12.8602,12.8294,12.8602,12.9102,12.9602,12.9294,12.941,12.9602,12.9294,12.9717,13.041,12.9217,12.9102,12.9602,12.9294,12.8717,12.8025,12.8909,12.9217,12.9294,0.0,0.0,0.0,0.0,0.0,0.0,0.0,0.0,0.0,0.0,0.0,0.0,0.0,0.0,0.0,7.8631,7.8631,7.8284,7.7438,7.89,7.9438,7.8592,8.0169,8.1093,8.1093,8.1823,8.1016,7.8515,8.3516,8.7709,9.121,9.7942,10.4713,11.1021,10.6213,10.7598,11.3407,0.0,10.5405,10.2212,0.0,9.4557,9.4672,0.0,0.0,0.0,9.9288,9.7365,0.0,0.0,0.0,0.0,0.0,0.0,0.0,0.0,0.0,0.0,0.0,0.0,0.0,10.3212,10.5405,10.8598,12.2793,12.4793,12.5216,13.041,13.341,13.5795,13.768,13.7411,13.7296,13.8988,13.9219,13.9219,13.9219,13.8604,13.8104,13.7988,13.7296,13.6411,13.5488,0.0,0.0,0.0,13.4218,13.4218,13.4218,13.2487,13.091,12.9294,12.8409,12.7909,12.7909,12.7909,12.8294,12.9217,12.8294,12.8794,13.0487,12.9602,12.9717,13.0487,13.1295,13.1179,13.041,12.8717,12.8986,13.041,12.9602,12.8717,12.8102,12.8909,12.9217,12.941,0.0,0.0,0.0,0.0,0.0,0.0,0.0,0.0,0.0,0.0,0.0,0.0,7.9438,8.1093,8.217,8.217,8.217,8.1323,7.9246,7.9554,7.9708,7.9438,8.0516,8.1093,8.1093,8.0708,8.0169,7.9438,8.1477,8.4209,8.7632,9.321,9.8481,10.3405,10.5597,10.6713,10.6213,9.8211,0.0,0.0,9.5288,9.6519,0.0,0.0,0.0,0.0,0.0,10.2481,0.0,0.0,9.6788,9.2287,0.0,0.0,0.0,0.0,0.0,0.0,8.3362,0.0,0.0,0.0,0.0,0.0,10.7713,11.1714,11.6215,12.3793,12.6909,12.9794,13.5218,13.6488,13.6988,13.7411,13.7488,13.7488,13.7488,13.7296,13.6911,13.6296,13.5988,13.5488,13.4718,0.0,0.0,0.0,13.241,13.191,13.0718,13.0217,12.9717,12.9217,12.8409,12.7909,12.7909,12.7909,12.8294,12.9217,12.8986,12.941,13.0487,12.9602,12.9294,12.9602,12.9794,13.0102,13.0487,13.0602,13.0602,13.0487,13.0217,12.9987,12.9717,12.9294,12.9602,13.0217,0.0,0.0,0.0,0.0,0.0,0.0,0.0,0.0,0.0,0.0,0.0,0.0,8.1823,8.4824,8.6324,8.5286,8.4555,8.3208,8.0977,8.0208,7.9823,7.9823,8.0285,8.09,8.1593,8.1477,8.1054,8.0323,8.1554,8.2978,8.4632,8.9748,9.3441,9.6019,9.9712,10.0712,0.0,0.0,0.0,0.0,9.8827,0.0,0.0,10.5905,10.7213,0.0,0.0,0.0,10.7405,10.629,10.2404,0.0,0.0,0.0,0.0,0.0,0.0,0.0,0.0,0.0,0.0,0.0,0.0,0.0,10.2404,10.5713,10.9598,11.8908,12.2716,12.5986,13.1295,13.3295,13.4411,13.5103,13.518,13.5488,13.618,13.6296,13.5911,13.5103,13.4988,13.4487,13.3295,13.3487,13.291,13.0794,13.0987,13.0487,12.8717,12.8986,12.8986,12.8717,12.8217,12.7717,12.7409,12.7409,12.7486,12.7602,12.7986,12.8602,12.941,12.8909,12.8909,12.9217,12.8794,12.9217,12.9987,13.0102,13.0487,13.0987,13.0602,13.0487,13.0487,13.0294,13.041,13.0487,0.0,0.0,0.0,0.0,0.0,0.0,0.0,0.0,0.0,0.0,8.2093,8.3247,8.6017,8.9479,9.071,8.844,8.6517,8.4632,8.2708,8.1016,8.0054,7.9939,8.0131,8.0862,8.2285,8.3247,8.2901,8.1246,8.2708,8.3208,8.2824,8.7363,0.0,0.0,0.0,0.0,0.0,0.0,0.0,10.0096,10.3789,10.5713,0.0,0.0,11.3984,0.0,11.4599,11.4291,11.3291,11.0483,10.579,0.0,0.0,0.0,0.0,0.0,8.5632,0.0,0.0,0.0,0.0,0.0,0.0,0.0,10.1712,10.3097,10.4713,11.4291,11.8985,12.2524,12.6524,12.8717,13.0294,13.1487,13.2295,13.341,13.5218,13.5411,13.4988,13.4103,13.3987,13.3295,13.1602,13.2102,13.1602,12.9217,12.9717,12.941,12.7794,12.8486,12.8602,12.7909,12.7717,12.7294,12.6678,12.6486,12.6101,12.5409,12.6178,12.6986,12.7794,12.7794,12.8217,12.8909,12.8217,12.8294,12.8986,12.8217,12.9294,13.1487,13.0794,13.0602,13.0718,13.141,13.1179,13.0718,0.0,0.0,0.0,0.0,0.0,0.0,0.0,0.0,0.0,8.7055,8.8402,9.071,9.4634,9.4557,9.4057,9.3557,9.071,8.7632,8.4593,8.2785,8.1516,8.0862,8.2131,8.267,8.2324,8.3824,8.3785,8.2054,8.2401,8.3516,0.0,8.6401,0.0,0.0,0.0,0.0,0.0,0.0,0.0,9.8019,9.8211,0.0,11.3407,11.4599,11.71,11.9908,12.01,11.9985,11.9292,0.0,11.0983,10.5982,0.0,0.0,0.0,0.0,0.0,0.0,0.0,0.0,0.0,0.0,0.0,0.0,9.0748,9.4441,10.0019,10.5482,10.929,11.3907,12.1408,12.4793,12.5794,12.4101,12.7909,13.1987,13.5103,13.4911,13.3987,13.241,13.2179,13.1487,12.991,12.9794,12.941,12.8217,12.7717,12.7294,12.6986,12.7101,12.7409,12.7909,12.6601,12.6101,12.6678,12.5293,12.4909,12.5409,12.5601,12.6101,12.6909,12.6909,12.6986,12.7178,12.7717,12.8025,12.8102,12.8025,12.8986,13.0718,13.0602,13.091,13.1487,13.1602,13.1602,13.1487,0.0,0.0,0.0,0.0,0.0,0.0,0.0,0.0,8.9594,9.0479,9.3903,9.6557,9.7403,9.825,9.7942,9.5826,9.2518,8.9479,8.6978,8.3978,8.2131,8.1708,8.2516,8.3324,8.417,8.467,8.467,8.4209,8.2901,8.2939,8.4209,8.5093,0.0,0.0,0.0,0.0,0.0,0.0,9.071,9.5518,10.152,0.0,11.6176,11.8715,12.0985,12.2793,12.2793,12.2793,12.1908,11.5984,11.3214,0.0,0.0,9.9404,9.8211,0.0,9.1748,9.2518,0.0,0.0,0.0,9.1171,0.0,0.0,0.0,9.2826,9.6057,10.202,10.3905,10.6597,11.3407,11.5407,11.6792,11.9292,12.2216,12.5909,13.0987,13.2102,13.2102,13.1179,13.0718,12.9987,12.8717,12.8909,12.8794,12.8025,12.7178,12.6678,12.6678,12.7101,12.7486,12.7909,12.6717,12.5986,12.6101,12.4409,12.3485,12.3485,12.4409,12.4986,12.5409,12.6294,12.6678,12.6678,12.6217,12.6486,12.7217,12.6409,12.7294,12.9217,12.9717,13.041,13.1179,13.1602,13.1679,13.1679,0.0,0.0,0.0,0.0,0.0,0.0,0.0,0.0,9.3018,9.3864,9.825,10.0789,9.9596,10.1212,10.1289,9.8711,9.4172,9.1133,0.0,0.0,8.2901,8.2554,8.2862,8.3824,8.5593,8.5286,8.5363,8.5863,8.3478,8.2554,8.3054,8.4132,8.417,0.0,8.4247,8.4516,0.0,0.0,0.0,9.5403,0.0,11.2291,11.4984,12.1216,12.3485,12.3485,12.4716,12.4986,12.3793,11.6984,0.0,11.4599,10.5097,10.3905,0.0,0.0,0.0,0.0,0.0,0.0,0.0,0.0,0.0,9.2749,0.0,0.0,0.0,9.9558,10.0096,10.0981,10.5405,10.579,10.7405,11.3407,11.5484,11.8292,12.3909,12.6217,12.7909,12.9294,12.8486,12.7602,12.7217,12.7409,12.7486,12.7409,12.6217,12.5794,12.6409,12.7101,12.7525,12.7717,12.6909,12.5986,12.5178,12.3716,12.2485,12.16,12.3101,12.3985,12.4216,12.5678,12.6409,12.6409,12.4986,12.5101,12.6294,12.4909,12.5717,12.7794,12.8602,12.9602,13.0602,13.1179,13.1602,13.1679,7.7169,7.8746,0.0,0.0,8.5901,8.921,9.0825,9.2479,9.4941,9.875,10.0404,10.2597,0.0,0.0,0.0,0.0,0.0,0.0,9.6326,0.0,8.5016,8.3516,8.4863,8.5093,8.3901,8.5247,8.567,8.5055,8.3208,8.3478,8.5632,8.4362,8.4863,0.0,8.467,0.0,0.0,0.0,9.1787,0.0,10.7098,10.8098,0.0,11.7907,12.1408,12.1408,12.6717,12.8102,12.6909,0.0,12.0793,11.8484,0.0,10.929,0.0,0.0,0.0,0.0,0.0,0.0,0.0,0.0,10.0789,0.0,0.0,0.0,9.7134,9.4249,0.0,9.8442,10.0596,0.0,0.0,10.2097,10.7098,11.1598,11.3099,11.4791,11.8407,12.5178,12.3909,12.2985,12.4409,12.2601,12.2485,12.5486,12.2793,12.2293,12.5409,12.5601,12.5986,12.6794,12.5986,12.5101,12.4293,12.3408,12.2485,12.16,12.2601,12.3408,12.4101,12.5101,12.5486,12.5486,12.5293,12.5409,12.5486,12.5293,12.5909,12.6909,12.7717,12.9102,13.0487,13.0602,13.1102,13.1679,7.7284,7.9054,0.0,0.0,8.5747,8.8863,9.1556,9.5903,9.9673,10.1981,10.4713,10.729,0.0,0.0,0.0,0.0,0.0,0.0,0.0,0.0,9.0056,8.7363,8.8402,8.8286,8.6594,8.7248,8.6709,8.4901,8.3131,8.2862,8.3862,8.317,8.4209,0.0,8.5517,0.0,9.1018,0.0,9.348,0.0,0.0,0.0,0.0,11.9485,12.5293,12.5794,12.8294,12.8986,12.7794,0.0,12.0908,0.0,0.0,0.0,0.0,0.0,0.0,0.0,0.0,0.0,0.0,0.0,0.0,0.0,0.0,0.0,9.3557,0.0,0.0,0.0,0.0,0.0,0.0,0.0,10.2904,0.0,10.8906,10.8598,11.1291,11.9985,0.0,0.0,11.8715,11.9408,12.0408,12.2293,12.0716,12.0908,12.3793,12.4409,12.5293,12.6678,12.5909,12.4986,12.4101,12.3293,12.2485,12.16,12.2485,12.3101,12.3408,12.4293,12.4601,12.4601,12.4216,12.4216,12.4601,12.4601,12.5178,12.6101,12.7409,12.8717,12.991,13.0794,13.141,13.1679,0.0,0.0,0.0,0.0,0.0,8.9056,9.2941,9.7519,10.1289,0.0,0.0,0.0,11.1906,11.0791,0.0,0.0,0.0,10.4713,0.0,0.0,9.4403,0.0,0.0,0.0,0.0,0.0,8.7094,8.5247,8.3247,8.2785,8.367,8.3247,8.4632,8.7517,0.0,9.0556,9.5134,0.0,0.0,10.0789,10.7713,11.0021,11.0521,12.1908,12.7602,12.9602,12.9794,12.991,12.8986,12.3216,12.1985,0.0,11.7292,0.0,0.0,0.0,0.0,0.0,10.5097,0.0,0.0,0.0,0.0,0.0,0.0,0.0,0.0,0.0,0.0,0.0,0.0,0.0,0.0,0.0,0.0,10.2097,10.552,10.3212,10.4482,0.0,0.0,0.0,0.0,11.6099,11.7407,11.91,11.7407,11.7792,12.1293,12.2485,12.3985,12.5909,12.5794,12.5216,12.4101,12.3485,12.2716,12.16,12.2216,12.2716,12.2908,12.3485,12.3793,12.3716,12.3216,12.3408,12.4101,12.4101,12.4793,12.5909,12.7294,12.8294,12.8986,13.0718,13.141,13.141,7.8284,7.9208,0.0,0.0,0.0,0.0,0.0,0.0,0.0,0.0,0.0,0.0,0.0,0.0,0.0,0.0,0.0,11.0291,11.1021,0.0,9.6788,0.0,0.0,0.0,0.0,0.0,0.0,8.6055,8.3555,8.3978,8.7209,8.5593,8.7055,9.1056,9.1902,9.4672,9.8788,10.1289,10.6597,11.3599,11.6407,12.2293,12.8986,0.0,12.5409,13.0602,13.1295,0.0,0.0,12.7602,12.6486,0.0,0.0,0.0,0.0,0.0,0.0,0.0,0.0,0.0,0.0,10.3789,0.0,0.0,0.0,0.0,9.9327,0.0,0.0,0.0,0.0,0.0,0.0,0.0,10.0096,0.0,0.0,9.7173,9.7211,0.0,0.0,0.0,0.0,11.2406,11.2175,11.6292,11.1983,11.1791,11.7715,11.9485,12.16,12.4101,12.5794,12.5794,12.4101,12.4101,12.3216,12.16,12.16,12.21,12.2908,12.2908,12.2908,12.2908,12.2908,12.3408,12.4101,12.4101,12.5101,12.6678,12.7602,12.7909,12.8217,12.991,13.0487,13.0602,0.0,0.0,0.0,0.0,0.0,0.0,0.0,9.6403,0.0,0.0,0.0,0.0,0.0,0.0,12.3216,0.0,0.0,11.8292,11.5792,11.1406,0.0,0.0,0.0,9.8557,0.0,0.0,0.0,0.0,0.0,8.6555,8.8248,8.7671,8.9363,9.2941,0.0,9.8788,0.0,0.0,0.0,0.0,0.0,12.2908,13.0294,0.0,0.0,13.1295,13.1602,13.1679,0.0,12.9102,12.7602,12.6294,12.4293,12.1793,11.9408,11.8792,11.8215,0.0,0.0,0.0,11.86,10.9483,0.0,0.0,0.0,0.0,0.0,0.0,0.0,0.0,0.0,0.0,10.3212,10.1212,10.0904,9.9827,0.0,9.2364,0.0,0.0,0.0,0.0,0.0,0.0,10.8482,11.0483,10.7482,10.8406,11.4907,11.6407,11.8677,12.2293,12.3601,12.3909,12.3293,12.3293,12.2985,12.2485,12.1908,12.21,12.2908,12.2293,12.2408,12.2908,12.2293,12.2793,12.4101,12.4101,12.4793,12.5986,12.7409,12.7909,12.8102,12.991,13.0487,13.0602,8.4016,0.0,0.0,0.0,0.0,0.0,0.0,0.0,0.0,0.0,11.5099,0.0,12.8102,0.0,13.0602,0.0,13.0217,12.6101,12.0023,11.8292,0.0,10.8406,10.729,0.0,0.0,0.0,0.0,0.0,0.0,9.0864,9.1402,9.0748,9.1941,9.4788,9.8211,10.2097,10.629,11.2483,11.5407,0.0,0.0,12.5794,0.0,0.0,13.1487,13.1295,0.0,13.1487,13.141,12.9794,12.8486,12.7409,12.6217,12.3793,12.1293,12.1216,12.0716,11.9792,11.86,12.0292,0.0,0.0,11.1098,0.0,10.152,0.0,0.0,0.0,0.0,0.0,0.0,0.0,0.0,10.4405,10.2212,9.8557,0.0,8.971,0.0,0.0,0.0,0.0,0.0,10.2789,10.3712,10.4905,10.2597,10.3597,0.0,0.0,11.5484,11.8792,12.1485,12.2793,12.2408,12.2716,12.2716,12.2408,12.2216,12.2408,12.2908,12.2293,12.2485,12.3293,12.2408,12.2985,12.4601,12.4601,12.5101,12.5986,12.7409,12.7909,12.8102,12.991,13.0679,13.0987,0.0,0.0,0.0,0.0,9.0133,0.0,0.0,0.0,10.6982,0.0,11.91,12.5909,13.2795,13.4988,13.6988,13.9412,13.7988,0.0,12.4216,12.4216,0.0,0.0,11.0483,10.929,10.5905,0.0,0.0,0.0,0.0,0.0,9.6634,9.4749,9.4788,9.6634,10.1712,0.0,10.5905,11.6907,12.2601,12.4716,12.8909,13.0987,13.1679,13.1679,0.0,13.0602,13.0602,13.0987,13.141,12.9794,12.9217,12.8909,12.7294,12.6101,12.5101,12.3485,12.3601,12.3485,12.0292,12.06,12.0677,11.5715,0.0,0.0,0.0,0.0,11.4984,0.0,0.0,0.0,0.0,0.0,0.0,10.8906,10.3597,9.6557,8.744,0.0,0.0,0.0,0.0,9.6826,10.2789,9.975,9.8019,9.9519,9.7365,9.7519,0.0,0.0,11.2022,11.3907,11.96,12.2408,12.16,12.2408,12.2485,12.1677,12.2485,12.2908,12.3024,12.2985,12.3408,12.4101,12.3293,12.3909,12.5486,12.5409,12.5909,12.6794,12.7602,12.7909,12.8217,12.991,13.0987,13.1679,8.744,8.8748,8.9748,0.0,8.894,9.0133,0.0,0.0,0.0,0.0,12.4793,13.2295,13.9681,14.1989,14.3297,14.3989,14.1912,0.0,0.0,0.0,0.0,12.3216,12.1408,11.89,11.5425,11.1901,0.0,10.5162,0.0,0.0,10.1904,9.8211,9.7096,9.8365,10.352,10.6213,10.7598,11.6792,12.3408,12.8102,13.041,13.1487,0.0,0.0,13.1102,13.141,13.141,13.1102,13.0718,13.0294,12.9294,12.8217,12.7717,12.6601,12.5293,12.4909,12.4909,12.4909,12.3985,12.4601,12.4601,12.1408,11.9215,11.6792,0.0,0.0,0.0,0.0,0.0,0.0,0.0,0.0,0.0,10.4405,9.8288,9.271,0.0,0.0,0.0,9.0517,0.0,8.9825,9.5749,9.5903,9.5018,9.3595,9.2287,9.3864,0.0,0.0,0.0,11.2906,11.76,12.06,12.16,12.1793,12.2408,12.3485,12.3101,12.3601,12.4716,12.4101,12.4293,12.4986,12.4216,12.4793,12.6294,12.5678,12.6294,12.7602,12.7794,12.8294,12.8986,13.0102,13.0987,13.1679,8.894,0.0,0.0,9.1941,0.0,0.0,9.9442,0.0,0.0,12.01,12.7794,0.0,14.0296,14.4412,14.6913,14.7298,14.5682,0.0,0.0,0.0,0.0,12.9294,12.7898,12.5696,12.2313,11.8422,0.0,11.0391,0.0,0.0,10.3789,9.9519,9.7557,9.7942,10.3405,10.6097,10.7213,11.76,12.4793,12.9294,13.0602,0.0,0.0,13.1179,13.1295,13.1679,13.1679,13.141,13.0987,13.0602,12.9794,12.8909,12.8102,12.7294,12.6409,12.6101,12.5986,12.5986,12.5986,12.6294,12.6409,12.5409,12.3985,12.2293,11.96,12.0793,12.1677,0.0,0.0,0.0,0.0,0.0,0.0,0.0,0.0,0.0,0.0,0.0,0.0,0.0,8.9056,0.0,9.0787,9.2056,9.171,8.9171,9.0594,0.0,0.0,0.0,0.0,10.8213,11.5291,11.96,12.0485,12.2293,12.3408,12.3601,12.3909,12.4486,12.5409,12.4909,12.5101,12.5909,12.4986,12.5409,12.6678,12.6178,12.6486,12.7409,12.7794,12.8909,13.0294,13.041,13.0794,13.1179,0.0,0.0,0.0,0.0,0.0,0.0,0.0,10.9906,0.0,12.3216,0.0,13.5988,13.9181,14.499,14.899,0.0,0.0,14.549,13.8681,14.0719,13.9142,13.2333,13.2216,13.0896,12.7771,12.3804,0.0,0.0,0.0,0.0,10.3597,9.9442,9.7211,9.6865,10.2481,10.5597,10.729,11.8908,12.5717,12.8986,13.0102,13.0987,13.1679,13.1679,13.1679,13.1679,13.1679,13.1602,13.141,13.0718,13.041,12.9987,12.8409,12.7909,12.7717,12.6909,12.6678,12.6678,12.6794,12.6909,12.7101,12.7909,12.8102,12.7717,12.6101,12.6294,12.6409,12.4793,12.3909,0.0,0.0,0.0,0.0,9.5672,0.0,0.0,0.0,0.0,0.0,0.0,0.0,0.0,8.844,8.9286,8.8825,8.5824,0.0,0.0,0.0,0.0,0.0,10.3097,11.3099,11.8792,11.96,0.0,12.4486,12.3408,12.4601,12.5293,12.5409,12.5409,12.5794,12.6486,12.5794,12.5986,12.6678,12.6678,12.6794,12.7101,12.7794,12.9487,13.1487,13.0794,13.0487,13.0602,0.0,0.0,0.0,0.0,0.0,10.9713,11.7677,12.0985,12.4909,13.141,13.9412,0.0,14.7298,14.9798,15.1414,15.1491,15.0221,0.0,0.0,0.0,0.0,13.9824,13.7581,13.551,13.3402,12.7404,12.2511,0.0,0.0,0.0,10.2712,9.9173,9.7827,9.8519,10.2404,10.7982,11.4791,11.9908,0.0,12.7294,12.9602,13.0987,13.1679,13.1679,13.1679,13.1679,13.1679,13.1295,13.0679,13.0487,12.9987,12.9217,12.8217,12.7909,12.7717,12.6909,12.6678,12.6794,12.7486,12.7717,12.7909,12.8794,12.8986,12.8717,12.7717,12.7602,12.7409,12.6409,12.6101,12.4409,11.8792,0.0,0.0,0.0,0.0,0.0,0.0,0.0,0.0,0.0,0.0,9.3133,0.0,0.0,0.0,0.0,0.0,0.0,0.0,0.0,0.0,0.0,11.1714,0.0,0.0,0.0,12.4216,12.5986,12.4909,12.4716,12.5409,12.5409,12.5486,12.5678,12.6178,12.6601,12.6678,12.6678,12.7486,12.8794,12.8909,12.9717,13.0679,13.0602,13.0487,13.0602,0.0,0.0,0.0,0.0,0.0,0.0,0.0,13.0987,0.0,13.5488,13.9912,14.3412,14.472,14.8413,15.0721,15.0721,14.9509,14.8105,14.6799,14.5393,14.3913,14.2186,14.0397,0.0,13.6314,0.0,12.5241,12.0734,0.0,0.0,0.0,9.798,9.6172,9.6326,10.0212,10.6905,11.5407,0.0,0.0,12.6294,12.9206,13.0898,13.1718,13.1577,13.1628,13.1679,13.1679,13.1487,13.1102,13.0602,13.0217,12.9602,12.8294,12.7909,12.7717,12.6909,12.6678,12.6794,12.7217,12.7294,12.7486,12.8294,12.8909,12.9102,12.8717,12.8909,12.8909,12.7602,12.7294,12.5216,11.8407,11.0983,0.0,0.0,0.0,0.0,0.0,0.0,0.0,0.0,0.0,0.0,0.0,0.0,0.0,0.0,0.0,0.0,0.0,0.0,0.0,0.0,0.0,0.0,0.0,0.0,0.0,12.4716,12.4793,12.4986,12.5409,12.5409,12.5601,12.6101,12.6486,12.6678,12.6678,12.6678,12.7409,12.8486,12.8102,12.8986,13.041,12.9987,13.041,13.1179,0.0,10.4097,0.0,0.0,11.7292,0.0,0.0,13.8527,14.2665,13.9604,14.0665,14.1896,14.2588,14.701,14.9874,14.9681,14.8679,14.7581,14.6276,14.5541,14.4498,14.308,14.1807,14.0098,13.8076,13.2668,12.6989,0.0,0.0,0.0,0.0,9.7173,9.5172,0.0,0.0,0.0,0.0,0.0,12.1139,12.5899,12.904,13.0808,13.159,13.1524,13.1615,13.1718,13.1667,13.1718,13.1487,13.0602,13.0294,13.0217,12.8409,12.7909,12.7717,12.6909,12.6678,12.6794,12.7101,12.7178,12.7486,12.8486,12.9102,12.941,12.9217,12.9602,12.9487,12.7986,12.7217,12.5024,11.8908,11.3714,0.0,0.0,0.0,0.0,0.0,0.0,0.0,0.0,0.0,0.0,8.9094,0.0,0.0,0.0,0.0,0.0,0.0,0.0,0.0,0.0,0.0,11.3599,11.7792,0.0,12.5178,0.0,12.4716,12.4986,12.4909,12.4986,12.5486,12.6178,12.6486,12.6678,12.6678,12.6678,12.7217,12.7794,12.6986,12.8294,13.041,12.9294,12.9987,13.141,0.0,0.0,0.0,0.0,0.0,0.0,0.0,14.0994,14.6471,14.7105,14.849,14.9485,14.9562,15.0591,15.1027,15.0221,14.9276,14.8778,14.8725,14.6313,14.4883,14.4717,14.2305,14.0444,13.9412,13.3693,12.7485,0.0,0.0,0.0,0.0,0.0,0.0,0.0,0.0,0.0,0.0,11.7715,12.2467,12.6594,12.9321,13.0885,13.1472,13.151,13.1615,13.1718,13.1601,13.1615,13.1487,12.991,12.9794,13.0217,12.8409,12.7909,12.7717,12.6909,12.6678,12.6986,12.8602,12.8986,12.9294,13.091,13.091,13.0217,12.941,12.8717,12.7909,12.6986,12.4986,12.2216,11.8523,11.6099,11.2906,0.0,0.0,0.0,0.0,0.0,0.0,0.0,0.0,0.0,0.0,9.2249,0.0,0.0,8.8825,0.0,0.0,0.0,0.0,9.7673,0.0,11.1291,11.7715,12.1408,12.4293,12.6294,12.4909,12.3793,12.3216,12.3909,12.4293,12.4409,12.5986,12.6678,12.6678,12.6678,12.7217,12.7794,12.6986,12.8294,13.0294,12.8602,12.9102,13.0487,0.0,0.0,0.0,0.0,0.0,0.0,0.0,14.4012,14.791,14.9194,15.0522,15.119,15.1128,15.0975,15.0706,15.0196,14.9263,14.8777,14.8841,14.7688,14.6627,14.5518,14.4037,14.2099,13.9691,13.5297,12.9779,0.0,0.0,0.0,0.0,0.0,0.0,0.0,0.0,10.8613,11.4525,11.8403,12.278,12.74,12.9906,13.1095,13.151,13.1292,13.1309,13.1495,13.1402,13.1364,13.1303,13.0074,12.968,12.941,12.7717,12.7217,12.7101,12.658,12.6591,12.6909,12.8002,12.8706,12.941,12.9987,13.0718,13.091,12.9487,12.8909,12.8409,12.7602,12.6217,12.4409,12.1985,11.8484,11.5599,0.0,0.0,0.0,0.0,0.0,0.0,0.0,0.0,0.0,0.0,0.0,0.0,0.0,0.0,0.0,0.0,0.0,0.0,9.6596,0.0,10.9213,11.5484,12.0408,12.3716,12.5101,12.4409,12.4216,12.4409,12.4716,12.5178,12.5678,12.6409,12.6678,12.6678,12.6678,12.6909,12.7101,12.6794,12.7602,12.8909,12.8217,12.8717,12.9717,12.3187,0.0,12.5684,0.0,13.4506,13.7159,14.3435,14.6676,14.8917,14.9979,15.1027,15.1487,15.1397,15.1002,15.0426,14.9723,14.9017,14.853,14.83,14.7898,14.6989,14.5614,14.4811,0.0,13.9997,13.6711,13.2225,12.6472,11.9825,0.0,0.0,0.0,0.0,0.0,10.548,11.0462,11.7361,12.0211,12.4084,12.8471,13.0375,13.1198,13.1386,13.1161,13.1218,13.1292,13.1275,13.1275,13.1101,12.9989,12.956,12.9117,12.7514,12.686,12.6717,12.6503,12.6629,12.7025,12.8105,12.8796,12.9321,13.0001,13.0731,13.0808,12.9424,12.8924,12.8502,12.7629,12.686,12.5909,12.4409,12.0793,11.81,0.0,0.0,0.0,0.0,0.0,0.0,0.0,10.1212,9.6249,9.1171,8.9133,0.0,0.0,0.0,0.0,0.0,0.0,0.0,0.0,0.0,0.0,0.0,11.9985,12.3293,12.4101,12.4409,12.4716,12.4986,12.5293,12.5909,12.6678,12.6678,12.6678,12.6678,12.6678,12.6678,12.6678,12.6678,12.7217,12.7909,12.7602,12.8102,12.8794,12.7978,13.0027,13.3325,14.0112,14.2604,14.4598,14.7205,14.9033,14.9974,14.9974,15.0701,15.1199,15.1199,15.114,15.0275,14.8594,14.8403,14.8097,14.7295,14.6416,14.5614,0.0,0.0,14.2595,14.0876,13.759,13.4189,13.0712,0.0,0.0,11.1876,0.0,10.6783,10.8584,11.1995,11.5867,12.0083,12.3508,12.6774,12.9878,13.0891,13.118,13.1103,13.1103,13.1218,13.1331,13.1122,13.1218,13.0986,12.9375,12.9298,12.9682,12.8193,12.7195,12.6678,12.6678,12.6678,12.7168,12.9526,12.959,12.9575,13.1923,13.1216,12.9797,12.8992,12.811,12.732,12.6632,12.5888,12.5101,12.4293,12.2716,12.0408,11.71,0.0,0.0,0.0,0.0,0.0,0.0,10.3597,9.8057,9.2941,9.0902,0.0,0.0,0.0,0.0,0.0,0.0,0.0,9.6288,10.3712,0.0,11.5215,12.0292,12.3293,12.4101,12.4986,12.4909,12.4101,12.4986,12.5909,12.6678,12.6678,12.6678,12.6678,12.6678,12.6678,12.6678,12.6678,12.7217,12.7794,12.6986,12.7217,12.7794,13.4188,13.6124,13.8309,14.1607,14.3976,14.5904,14.7283,14.8864,14.9984,14.9839,15.0596,15.117,15.1071,15.1102,15.0604,0.0,14.9817,14.9587,0.0,14.8288,14.7601,14.5614,14.4697,14.2901,14.0112,13.7284,13.4189,13.0789,0.0,0.0,0.0,11.1696,11.1926,11.3508,11.5764,11.9474,12.3987,12.5669,12.8098,13.072,13.0891,13.1006,13.1103,13.0909,13.0909,13.0985,13.0909,13.0603,13.0011,12.8825,12.8309,12.7982,12.6889,12.7334,12.7989,12.6696,12.6875,12.7668,12.8335,12.9181,13.0129,13.0231,13.1179,13.1423,12.8796,12.74,12.6734,12.6337,12.621,12.5569,12.4186,12.3207,12.16,11.8715,0.0,0.0,0.0,0.0,0.0,0.0,10.0404,9.5711,0.0,9.1287,0.0,0.0,0.0,0.0,0.0,0.0,0.0,0.0,10.4789,0.0,11.5291,12.0908,12.4101,12.4986,12.5293,12.5601,12.5909,12.6178,12.6409,12.6678,12.6678,12.6678,12.6678,12.6678,12.6678,12.6678,12.6678,12.6909,12.7101,12.6794,12.6909,12.6986,13.8437,13.9701,14.1194,14.3913,14.5584,14.6971,14.808,14.9457,15.0222,14.9779,15.0459,15.1102,15.1001,15.1071,0.0,14.9779,15.0199,14.9893,14.8518,14.8594,14.7792,14.5499,14.4697,14.2901,14.0112,0.0,0.0,13.2699,12.6797,12.1386,11.6567,11.5994,11.6667,11.86,12.0014,12.288,12.6815,12.7694,12.9205,13.0871,13.0505,13.0199,13.0067,13.0314,13.0101,12.991,13.0216,12.9986,12.9375,12.8191,12.7791,12.7467,12.6338,12.7502,12.8893,12.6768,12.6682,12.74,12.791,12.8908,12.969,12.946,13.0612,13.098,12.827,12.6874,12.6207,12.6192,12.5977,12.5506,12.4124,12.3302,12.1967,11.9392,0.0,11.7984,11.4791,0.0,0.0,0.0,0.0,0.0,0.0,9.4711,0.0,0.0,0.0,0.0,0.0,0.0,0.0,9.9058,10.729,0.0,11.71,12.1793,12.4486,12.5409,12.5678,12.6178,12.6678,12.6678,12.6678,12.6678,12.6678,12.6678,12.6678,12.6678,12.6678,12.6678,12.6678,12.6678,12.6678,12.6678,12.6678,12.6678,14.0685,14.099,0.0,0.0,14.7219,0.0,14.9511,15.039,15.0581,14.9779,15.039,15.0887,15.081,15.081,15.0504,14.9702,0.0,0.0,0.0,14.7601,14.6416,14.4697,14.3703,0.0,14.0799,13.908,13.7284,13.5488,12.842,12.4102,12.2306,12.0816,12.1313,12.3491,12.4408,12.6089,12.842,12.9184,13.0101,13.0712,12.991,12.9108,12.8496,12.9184,12.8993,12.8496,12.9184,12.949,12.9184,12.7579,12.7617,12.7885,12.628,12.7505,12.9074,12.679,12.6308,12.6729,12.8021,12.8385,12.8577,12.938,12.9514,12.8976,12.7563,12.6586,12.5991,12.6177,12.5502,12.4697,12.3815,12.3075,12.1908,11.9411,11.8892,11.7407,11.3099,0.0,0.0,0.0,0.0,0.0,0.0,10.0212,10.1212,0.0,0.0,0.0,0.0,0.0,9.925,10.3905,11.0714,11.6215,12.0292,12.2908,12.4601,12.5486,12.6294,12.6678,12.6678,12.6678,12.6678,12.6678,12.6678,12.6678,12.6678,12.6678,12.6678,12.6601,12.6678,12.6678,12.6601,12.6678,12.6678,12.6601,0.0,0.0,14.3703,14.6684,14.7219,14.7983,15.0313,15.0313,14.9893,14.9702,14.9893,14.9779,14.9091,14.9014,14.89,14.8709,14.9282,14.9091,14.7601,14.6684,14.5499,14.3818,14.229,14.0685,13.9004,13.7284,13.4992,13.2011,13.0216,12.8114,12.5898,12.6089,12.5898,12.5287,12.67,12.7694,12.842,12.9184,13.0101,13.0712,12.991,12.9795,13.0101,12.8993,12.8916,12.9184,12.8802,12.8191,12.7579,12.7197,12.6777,12.628,12.5898,12.6224,12.6702,12.6165,12.7135,12.7995,12.6982,12.7212,12.7595,12.7212,12.702,12.7119,12.7275,12.6736,12.6084,12.5917,12.5378,12.4682,12.3693,12.31,12.21,12.0103,11.8277,11.5599,11.1406,10.7482,0.0,0.0,10.0904,10.0789,9.8442,10.0904,10.1712,0.0,0.0,0.0,0.0,10.3212,10.5213,10.579,11.3022,11.7984,12.0292,12.3485,12.5486,12.6409,12.6601,12.6678,12.6678,12.6678,12.6678,12.6678,12.6678,12.6678,12.6678,12.6678,12.6294,12.5794,12.6409,12.6294,12.5794,12.6486,12.6294,12.5794,14.2404,14.3092,14.42,14.6798,14.7219,14.7715,14.9091,14.9205,14.9014,14.8594,14.89,14.89,14.8518,14.8403,14.8403,14.8403,14.8823,14.8594,14.7295,14.5996,14.4811,14.3512,14.1411,13.9882,13.9004,13.7284,13.4992,13.1897,13.1209,12.991,12.8191,12.7885,12.7312,12.6509,12.7694,12.8305,12.842,12.9604,13.0407,13.0712,12.991,12.9375,12.8993,12.8496,12.8114,12.7885,12.7808,12.7694,12.7503,12.6777,12.6509,12.628,12.5898,12.6089,12.628,12.6014,12.6568,12.716,12.628,12.6663,12.7275,12.7199,12.6374,12.5893,12.6969,12.6586,12.5974,12.6012,12.4978,12.4098,12.36,12.2291,12.0492,11.8124,11.5686,11.2324,10.6905,10.3905,0.0,9.9058,10.1404,10.3097,10.2904,10.5482,10.602,10.3212,0.0,0.0,10.3097,10.779,11.0021,10.879,11.5022,11.9215,12.0908,12.3909,12.5986,12.7217,12.6909,12.6678,12.6678,12.6678,12.6678,12.6678,12.6678,12.6486,12.6101,12.6101,12.5601,12.4909,12.5794,12.5601,12.4909,12.5794,12.5601,12.4909,14.2901,14.3321,14.42,14.6607,14.6989,14.7104,14.7295,14.7906,14.8021,14.7295,14.7792,14.8212,14.8021,14.8021,14.8021,14.8021,14.8021,14.7715,14.6989,14.5423,14.4085,14.3092,14.0685,13.9386,13.9195,13.759,13.5603,13.3311,13.1782,13.0483,12.9604,12.8305,12.7503,12.7082,12.8191,12.8496,12.842,13.0101,13.0789,13.0712,12.991,12.8802,12.7694,12.7999,12.7312,12.6204,12.67,12.7312,12.7694,12.6395,12.6509,12.7006,12.6395,12.67,12.7082,12.6204,12.5974,12.5974,12.5783,12.628,12.7082,12.7808,12.6434,12.5267,12.6683,12.6281,12.5708,12.5893,12.4404,12.3166,12.3277,12.1304,11.8715,11.5828,11.2666,10.858,10.2519,0.0,9.9019,9.9173,10.2481,10.579,10.8213,11.0906,11.1098,10.779,10.9098,10.8983,0.0,11.1406,11.3714,11.2522,11.6907,12.01,12.1985,12.4101,12.6101,12.7717,12.6986,12.6678,12.6678,12.6678,12.6601,12.6486,12.6601,12.6101,12.5216,12.5293,12.4909,12.4216,12.5101,12.4909,12.4216,12.5101,12.4793,12.3909,14.2213,14.2901,14.4009,14.5805,14.611,14.6607,14.8021,14.7715,14.7295,14.7219,14.7295,14.7104,14.6416,14.6302,14.6302,14.6302,14.6302,14.6187,14.611,14.4506,14.2901,14.1373,13.9577,13.8201,13.7475,13.5794,13.438,13.3311,13.2394,13.1094,12.9604,12.9986,12.9108,12.7197,12.9413,12.9604,12.842,13.0101,13.0789,13.0712,12.991,12.991,12.9986,12.7999,12.7503,12.7694,12.6509,12.6089,12.628,12.67,12.7006,12.7197,12.7694,12.7999,12.7999,12.7082,12.6891,12.67,12.5974,12.5898,12.5974,12.6204,12.586,12.5727,12.5994,12.5478,12.4884,12.4771,12.3489,12.2283,12.221,12.0829,11.9275,11.814,11.2302,10.6803,10.3818,0.0,10.0018,10.0827,10.579,10.9906,11.1714,11.1791,11.2022,11.2791,11.0483,11.0098,11.2483,11.4214,11.5599,11.6792,11.8985,12.1293,12.3716,12.4101,12.5216,12.6909,12.6794,12.6678,12.6678,12.6678,12.6294,12.5601,12.6409,12.5794,12.4409,12.5101,12.4909,12.4216,12.5101,12.4909,12.4216,12.5101,12.4409,12.3216,14.1984,14.2481,14.3283,14.5002,14.5308,14.569,14.6913,14.6722,14.6493,14.6493,14.6493,14.6302,14.5881,14.5499,14.5308,14.5308,14.5308,14.4888,14.4009,14.3207,14.2213,14.099,13.8813,13.7284,13.6482,13.5183,13.4189,13.3311,13.2508,13.1515,13.0216,13.0177,12.949,12.8496,12.9604,12.9681,12.9108,13.0292,13.0789,13.0712,12.991,12.949,12.9299,12.8191,12.7388,12.6891,12.6586,12.6509,12.6509,12.6395,12.7006,12.7694,12.7082,12.7312,12.7503,12.6586,12.6395,12.628,12.5898,12.5478,12.5096,12.5096,12.5096,12.5096,12.5096,12.5192,12.5287,12.5287,12.4293,12.3298,12.2878,12.1004,11.89,11.6773,11.0098,0.0,0.0,10.0781,10.0209,10.3017,10.7787,11.1714,11.3907,11.3791,11.3714,11.3984,11.2099,11.1983,11.4599,11.5484,11.6907,11.91,12.0793,12.2908,12.5486,12.4986,12.5909,12.7986,12.7101,12.6678,12.6678,12.6678,12.6486,12.6101,12.6486,12.5986,12.4793,12.5216,12.4601,12.3601,12.4909,12.4293,12.2908,12.4216,12.3601,12.2293,14.1678,14.2099,14.2595,14.3894,14.4391,14.4811,14.5308,14.5805,14.611,14.569,14.5805,14.5881,14.5881,14.5193,14.4811,14.5002,14.4811,14.4085,14.2595,14.1907,14.1182,14.0379,13.8087,13.6482,13.5909,13.4801,13.3998,13.3311,13.2317,13.1515,13.0789,12.9986,12.949,12.9299,12.949,12.9375,12.9108,13.0101,13.0483,13.0407,12.9604,12.8993,12.8611,12.8191,12.7312,12.6395,12.67,12.7006,12.7197,12.6395,12.7082,12.8114,12.6815,12.6815,12.7197,12.6395,12.5974,12.5783,12.5592,12.521,12.479,12.479,12.479,12.479,12.479,12.521,12.5536,12.5611,12.4656,12.3815,12.3201,12.0987,11.8234,11.4885,0.0,0.0,0.0,10.1196,10.151,10.57,10.959,11.2978,11.5291,11.5599,11.5291,11.4599,11.3984,11.4291,11.5792,11.6676,11.8292,12.0793,12.2216,12.3909,12.6101,12.5794,12.6717,12.8602,12.7486,12.6909,12.6678,12.6678,12.6601,12.6409,12.6409,12.5909,12.5101,12.5101,12.4293,12.3293,12.4601,12.3793,12.21,12.3293,12.2908,12.16,14.0799,14.1602,14.2213,14.2404,14.3703,14.4391,14.3703,14.5614,14.6493,14.5002,14.5384,14.5881,14.5881,14.5193,14.5002,14.569,14.5117,14.4315,14.3398,14.1105,13.9386,13.8583,13.6902,13.5985,13.5909,13.4304,13.3387,13.3311,13.1706,13.0903,13.0789,12.9986,12.9184,12.842,12.9184,12.8687,12.7388,12.8993,12.9681,12.9604,12.8687,12.8802,12.9299,12.7808,12.7617,12.7923,12.6395,12.6891,12.8114,12.7312,12.7617,12.8305,12.8191,12.8191,12.8114,12.7197,12.6395,12.5592,12.479,12.5096,12.5707,12.5707,12.5707,12.5707,12.5707,12.5096,12.4599,12.4599,12.33,12.2192,12.2077,12.009,11.7301,11.39,0.0,0.0,10.4568,10.4308,10.5472,10.9189,11.1999,11.4387,11.6215,11.6407,11.6407,11.6292,11.6292,11.6599,11.76,11.8407,12.01,12.2601,12.2793,12.3293,12.4293,12.5794,12.6678,12.6909,12.7486,12.7409,12.6678,12.6678,12.6294,12.5486,12.5486,12.4986,12.4216,12.4216,12.4101,12.3985,12.4101,12.3601,12.2793,12.2908,12.2408,12.16,14.0685,14.1182,14.1602,14.2099,14.271,14.3207,14.3398,14.42,14.462,14.4009,14.42,14.4582,14.5117,14.4391,14.42,14.5117,14.4391,14.3321,14.1907,14.0914,13.9309,13.6979,13.6214,13.5603,13.5106,13.3884,13.3081,13.2585,13.0903,13.0101,12.9986,12.9184,12.8611,12.8305,12.8611,12.842,12.7885,12.8496,12.8802,12.8687,12.7885,12.7808,12.7999,12.7885,12.7388,12.6815,12.7197,12.7082,12.67,12.6395,12.6891,12.7503,12.6891,12.7082,12.7312,12.5898,12.5592,12.5592,12.4714,12.4714,12.4714,12.3682,12.3797,12.4217,12.4217,12.3988,12.3911,12.4408,12.3605,12.2497,12.1389,12.0014,11.8294,11.5926,0.0,10.8716,10.9208,10.8499,10.8784,11.1307,11.3933,11.5708,11.6407,11.6484,11.6484,11.6484,11.6984,11.7715,11.86,11.9908,12.1293,12.2908,12.3408,12.4293,12.5678,12.6409,12.6986,12.7409,12.7217,12.6986,12.6678,12.6678,12.6178,12.5409,12.5409,12.4909,12.4101,12.4101,12.3793,12.3408,12.3909,12.3293,12.2216,12.2716,12.2293,12.16,14.0303,14.0685,14.1105,14.1678,14.1984,14.229,14.2595,14.3283,14.3589,14.3092,14.3207,14.3589,14.42,14.3512,14.3398,14.42,14.3512,14.2404,14.099,14.0188,13.8583,13.5985,13.5603,13.5106,13.4189,13.3387,13.2508,13.1706,13.0292,12.949,12.9184,12.8305,12.8114,12.8305,12.7999,12.8114,12.8305,12.7999,12.8114,12.8191,12.7082,12.6891,12.7082,12.7388,12.7006,12.628,12.7197,12.7082,12.6509,12.5707,12.6204,12.6891,12.5783,12.5783,12.6013,12.4905,12.4905,12.5287,12.4714,12.4522,12.4293,12.3414,12.3605,12.4102,12.4102,12.4102,12.4217,12.479,12.4102,12.288,12.1389,12.009,11.8409,11.6193,11.2907,11.0958,11.2284,11.1592,11.1698,11.3911,11.5502,11.6477,11.6484,11.6484,11.6484,11.6484,11.7292,11.8292,11.9408,12.11,12.2408,12.3216,12.4101,12.5216,12.6678,12.6986,12.7217,12.7486,12.6986,12.6601,12.6294,12.5986,12.5678,12.5409,12.4793,12.4601,12.4486,12.3909,12.3216,12.2485,12.3101,12.2408,12.1293,12.1908,12.1908,12.16,13.9424,14.0303,14.0876,14.0876,14.1602,14.1907,14.099,14.3092,14.4085,14.2404,14.2901,14.3398,14.3398,14.271,14.2481,14.3321,14.271,14.1793,14.0876,13.8507,13.6711,13.5909,13.5106,13.4189,13.3311,13.2508,13.1706,13.0789,12.9986,12.9108,12.8305,12.7503,12.7503,12.8191,12.7503,12.7503,12.8191,12.7388,12.7617,12.8114,12.6509,12.628,12.7006,12.6089,12.628,12.7006,12.6089,12.6891,12.7923,12.5401,12.5707,12.6815,12.5019,12.4522,12.4522,12.4522,12.4522,12.4522,12.4522,12.4522,12.4714,12.5592,12.5783,12.5783,12.5783,12.5783,12.5783,12.5783,12.4408,12.2994,12.2077,11.9976,11.7186,11.3786,11.3213,11.3213,11.3213,11.3393,11.4388,11.7105,11.6781,11.6386,11.6522,11.6484,11.6484,11.6484,11.7292,11.8523,12.0216,12.1985,12.3293,12.4101,12.4909,12.5794,12.6678,12.7486,12.7486,12.6678,12.6678,12.6178,12.5409,12.4486,12.4601,12.5293,12.3601,12.3793,12.5216,12.3601,12.2408,12.16,12.16,12.11,12.0292,12.0292,12.0908,12.16,13.9309,13.9806,13.9997,13.9997,14.0685,14.1411,14.1793,14.1907,14.2099,14.2213,14.2404,14.2595,14.2595,14.2786,14.3092,14.3398,14.2099,14.0379,13.8392,13.6405,13.4992,13.4113,13.438,13.3884,13.2508,13.2202,13.1706,13.0789,12.9413,12.8611,12.8305,12.6891,12.628,12.6586,12.6891,12.6891,12.6586,12.7503,12.7388,12.6586,12.67,12.6509,12.6204,12.6586,12.6509,12.6204,12.6586,12.6586,12.6395,12.5707,12.5783,12.6013,12.4905,12.4522,12.4408,12.3797,12.4102,12.4522,12.4522,12.4905,12.4981,12.3491,12.3109,12.33,12.3911,12.3109,12.2612,12.3797,12.2688,12.1313,12.0396,11.9173,11.7798,11.6117,11.5887,11.5941,11.5994,11.6467,11.7119,11.7472,11.729,11.7,11.6522,11.6484,11.6484,11.6484,11.8407,11.9985,12.1177,12.2793,12.3909,12.4101,12.4909,12.5794,12.6678,12.6909,12.6909,12.6678,12.6101,12.5678,12.5409,12.4486,12.3909,12.3601,12.3101,12.2793,12.2678,12.2177,12.1485,12.0677,12.0677,12.0485,12.0292,12.0292,12.0908,12.16,13.8392,13.8889,13.9118,13.9118,13.9577,14.0188,14.099,14.0685,14.0685,14.1602,14.1678,14.1678,14.1678,14.2099,14.229,14.1907,14.0379,13.8583,13.6711,13.5412,13.4113,13.289,13.3311,13.3005,13.1591,13.1591,13.1209,13.0292,12.9299,12.8611,12.8305,12.7312,12.7006,12.7274,12.7503,12.7694,12.7808,12.7808,12.7388,12.6777,12.6586,12.628,12.5898,12.6395,12.628,12.5898,12.6395,12.6204,12.5707,12.4981,12.4599,12.4293,12.4484,12.3988,12.3491,12.33,12.3605,12.4102,12.4408,12.5096,12.5287,12.3491,12.3185,12.3605,12.4179,12.3185,12.2612,12.3605,12.2421,12.1007,12.0205,11.9097,11.7989,11.711,11.669,11.6575,11.7103,11.7576,11.8039,11.8009,11.7789,11.7385,11.71,11.6676,11.6599,11.6984,11.8792,12.0216,12.0985,12.2985,12.4101,12.4101,12.5293,12.6178,12.6678,12.6678,12.6486,12.6178,12.5293,12.4716,12.4409,12.3909,12.3524,12.3408,12.3024,12.2793,12.2485,12.1908,12.11,12.0292,12.0292,12.0292,12.0292,12.0292,12.0908,12.16,13.7093,13.7705,13.8278,13.8392,13.8392,13.8698,13.9615,13.9615,13.9806,14.0799,14.0876,14.0876,14.0876,14.0876,14.0494,13.9691,13.8087,13.6711,13.5794,13.4992,13.3807,13.2202,13.2011,13.1591,13.0789,13.0789,13.0407,12.9681,12.9604,12.9184,12.842,12.8305,12.8687,12.949,12.8687,12.9222,13.0407,12.8191,12.7694,12.8114,12.6586,12.5898,12.5783,12.5898,12.5898,12.5783,12.5783,12.5707,12.5401,12.3797,12.2803,12.2383,12.3797,12.3185,12.2077,12.288,12.3185,12.3491,12.4217,12.5096,12.5592,12.479,12.521,12.5783,12.5592,12.4905,12.4293,12.4293,12.2994,12.158,12.0816,11.9403,11.7989,11.711,11.6308,11.6117,11.6919,11.7217,11.7591,11.8473,11.8009,11.7615,11.7669,11.6984,11.6907,11.7715,11.8715,11.9485,12.0292,12.2793,12.4216,12.4101,12.5678,12.6601,12.6678,12.6601,12.6178,12.5409,12.4486,12.3716,12.2908,12.2793,12.3216,12.3793,12.3101,12.3216,12.3793,12.2216,12.11,12.0292,12.0292,12.0292,12.0292,12.0292,12.0908,12.16,13.6979,13.7284,13.759,13.8278,13.8392,13.8889,14.0379,13.95,13.9195,14.0685,14.0876,14.0876,14.0876,14.0876,14.0494,13.9691,13.8087,13.6482,13.4992,13.4113,13.3081,13.2088,13.14,13.098,13.0789,13.0789,13.0712,13.0483,12.991,12.949,12.9299,12.8611,12.842,12.8611,12.9108,12.9108,12.8916,12.8993,12.8382,12.7388,12.7694,12.7006,12.5898,12.6586,12.6395,12.5783,12.5783,12.5401,12.4599,12.3605,12.3185,12.2994,12.2612,12.2306,12.1886,12.1504,12.2306,12.33,12.3491,12.4714,12.5783,12.5592,12.5707,12.5478,12.4102,12.3185,12.2497,12.2497,12.181,12.0816,11.9899,11.8982,11.7989,11.711,11.6804,11.6804,11.6995,11.7568,11.7906,11.7591,11.7476,11.7203,11.6684,11.6516,11.6907,11.7715,11.9215,12.01,12.0292,12.3408,12.4793,12.4101,12.5101,12.5986,12.6678,12.5986,12.5601,12.5409,12.4486,12.3716,12.2908,12.2216,12.1985,12.21,12.1985,12.1985,12.21,12.1677,12.11,12.0292,12.0292,12.0292,12.0292,12.0292,12.0908,12.16,13.6405,13.6482,13.6711,13.7093,13.7208,13.759,13.8889,13.8278,13.8201,13.95,13.9691,13.9691,13.9691,13.9691,13.9386,13.8507,13.7284,13.5794,13.4113,13.3578,13.2776,13.1515,13.1018,13.0789,13.0789,13.0789,13.0789,13.0789,13.0407,13.0177,13.0177,12.9719,12.949,12.949,12.9986,12.9681,12.8916,12.8993,12.8305,12.7082,12.7082,12.6586,12.5783,12.628,12.6204,12.5707,12.5287,12.4408,12.33,12.33,12.2803,12.2192,12.2497,12.2077,12.1389,12.1389,12.2306,12.33,12.33,12.4217,12.521,12.521,12.4905,12.4484,12.3988,12.3185,12.2497,12.2077,12.1007,12.0205,12.009,11.8791,11.7683,11.7607,11.6919,11.6422,11.6422,11.711,11.7585,11.7208,11.7298,11.7028,11.6368,11.6393,11.6676,11.71,11.8792,11.9715,11.9715,12.2601,12.3985,12.3524,12.4716,12.5601,12.6101,12.5986,12.5601,12.4793,12.4716,12.4101,12.2908,12.2793,12.2793,12.2793,12.2408,12.2216,12.2216,12.1793,12.1293,12.0908,12.0908,12.0908,12.0908,12.0908,12.0908,12.0908,13.5909,13.5909,13.5909,13.61,13.5985,13.6214,13.6979,13.6979,13.7208,13.8087,13.8201,13.8201,13.8392,13.8278,13.7781,13.6979,13.6291,13.5183,13.3387,13.3311,13.2585,13.0903,13.0789,13.0789,13.0789,13.0789,13.0789,13.0789,13.0789,13.0789,13.0789,13.0789,13.0789,13.0789,13.0789,13.0407,12.949,12.8687,12.7808,12.7006,12.628,12.5898,12.5783,12.5783,12.5707,12.5478,12.4599,12.33,12.2077,12.2688,12.1886,12.1007,12.2421,12.1886,12.0893,12.158,12.2497,12.33,12.33,12.3911,12.4522,12.4522,12.3911,12.3414,12.3988,12.3605,12.2803,12.2001,12.0702,11.9899,12.0511,11.8906,11.7607,11.818,11.6995,11.5887,11.5887,11.6422,11.682,11.6888,11.7017,11.6813,11.6291,11.6393,11.6522,11.6484,11.7984,11.8908,11.8908,12.1293,12.2716,12.2716,12.4293,12.5216,12.5216,12.5794,12.5409,12.4101,12.4716,12.4216,12.2716,12.3408,12.3716,12.3601,12.2985,12.2716,12.2601,12.1908,12.16,12.16,12.16,12.16,12.16,12.1408,12.0985,12.0408,13.5909,13.5909,13.61,13.6788,13.6405,13.6214,13.6979,13.6482,13.6405,13.7208,13.7284,13.759,13.8278,13.7705,13.6902,13.61,13.5985,13.5183,13.3387,13.3311,13.2585,13.0903,13.0789,13.0789,13.0789,13.0789,13.0789,13.0789,13.0789,13.0789,13.0789,13.0789,13.0789,13.0789,13.0789,13.0407,12.949,12.8687,12.7808,12.7082,12.7006,12.6509,12.5783,12.5783,12.5287,12.4599,12.3797,12.2803,12.1886,12.1313,12.1007,12.0816,12.1084,12.1007,12.0816,12.0893,12.2115,12.33,12.33,12.3911,12.4522,12.4522,12.3911,12.3109,12.2497,12.2306,12.1886,12.1122,12.0816,12.0396,11.9785,11.9403,11.8982,11.8409,11.7492,11.6804,11.6804,11.6308,11.5887,11.5941,11.6008,11.6085,11.6291,11.63,11.6386,11.6484,11.7407,11.8023,11.8023,12.0408,12.1793,12.1793,12.3408,12.4293,12.4293,12.3716,12.3601,12.4101,12.3485,12.2716,12.1793,12.1908,12.1908,12.1908,12.1793,12.1793,12.1793,12.16,12.16,12.16,12.16,12.16,12.1485,12.0793,12.0908,12.1177,13.5794,13.5106,13.4686,13.5603,13.4992,13.4686,13.5603,13.5412,13.5488,13.6291,13.6405,13.6596,13.6979,13.6711,13.6291,13.5909,13.5909,13.5183,13.3387,13.3311,13.2585,13.0903,13.0789,13.0789,13.0789,13.0789,13.0789,13.0789,13.0789,13.0789,13.0789,13.0789,13.0789,13.0789,13.0292,12.9681,12.8802,12.7999,12.7082,12.6395,12.6395,12.6089,12.5707,12.5287,12.479,12.4293,12.2994,12.2001,12.1313,12.0893,12.0816,12.0816,12.0816,12.0816,12.0816,12.0816,12.2001,12.33,12.33,12.3605,12.3797,12.3797,12.2918,12.181,12.1389,12.1007,12.0587,12.0816,12.009,11.9594,12.009,11.8715,11.7607,11.818,11.7186,11.6308,11.6308,11.5887,11.5696,11.5696,11.5802,11.5996,11.6195,11.6291,11.6386,11.6484,11.7292,11.7792,11.7792,11.9292,12.0216,12.0216,12.1408,12.2216,12.2716,12.2408,12.2601,12.3408,12.2601,12.2485,12.2985,12.2485,12.2293,12.2293,12.1793,12.16,12.16,12.16,12.16,12.16,12.16,12.1293,12.0677,11.9408,11.91,11.9292]},{"header":{"parameterUnit":"m.s-1","parameterCategory":1,"la1":30.6,"la2":28.766,"lo1":-90.7593,"lo2":-88.6598,"dy":0.0162,"dx":0.0183,"nx":116,"ny":114,"refTime":"2023-03-16T00:00:00:Z","depth":0,"parameterNumber":3,"parameterNumberName":"V-component_of_WINDS"},"data":[0.0,0.0,0.0,0.0,0.0,0.0,0.0,0.0,0.0,0.0,0.0,0.0,0.0,0.0,0.0,0.0,0.0,0.0,0.0,0.0,0.0,0.0,0.0,0.0,0.0,0.0,0.0,0.0,0.0,0.0,0.0,0.0,0.0,0.0,0.0,0.0,0.0,0.0,0.0,0.0,0.0,0.0,0.0,0.0,0.0,0.0,0.0,0.0,0.0,0.0,0.0,0.0,0.0,0.0,0.0,0.0,0.0,0.0,0.0,0.0,0.0,0.0,0.0,0.0,0.0,0.0,0.0,0.0,0.0,0.0,0.0,0.0,0.0,0.0,0.0,0.0,0.0,0.0,0.0,0.0,0.0,0.0,0.0,0.0,0.0,0.0,0.0,0.0,0.0,0.0,0.0,0.0,0.0,0.0,0.0,0.0,0.0,0.0,0.0,0.0,0.0,0.0,0.0,0.0,0.0,0.0,0.0,0.0,0.0,0.0,0.0,0.0,0.0,0.0,0.0,0.0,0.0,0.0,0.0,0.0,0.0,0.0,0.0,0.0,0.0,0.0,0.0,0.0,0.0,0.0,0.0,0.0,0.0,0.0,0.0,0.0,0.0,0.0,0.0,0.0,0.0,0.0,0.0,0.0,0.0,0.0,0.0,0.0,0.0,0.0,0.0,0.0,0.0,0.0,0.0,0.0,0.0,0.0,0.0,0.0,0.0,0.0,0.0,0.0,0.0,0.0,0.0,0.0,0.0,0.0,0.0,0.0,0.0,0.0,0.0,0.0,0.0,0.0,0.0,0.0,0.0,0.0,0.0,0.0,0.0,0.0,0.0,0.0,0.0,0.0,0.0,0.0,0.0,0.0,0.0,0.0,0.0,0.0,0.0,0.0,0.0,0.0,0.0,0.0,0.0,0.0,0.0,0.0,0.0,0.0,0.0,0.0,0.0,0.0,0.0,0.0,0.0,0.0,0.0,0.0,0.0,0.0,0.0,0.0,0.0,0.0,0.0,0.0,0.0,0.0,0.0,0.0,0.0,0.0,0.0,0.0,0.0,0.0,0.0,0.0,0.0,0.0,0.0,0.0,0.0,0.0,0.0,0.0,0.0,0.0,0.0,0.0,0.0,0.0,0.0,0.0,0.0,0.0,0.0,0.0,0.0,0.0,0.0,0.0,0.0,0.0,0.0,0.0,0.0,0.0,0.0,0.0,0.0,0.0,0.0,0.0,0.0,0.0,0.0,0.0,0.0,0.0,0.0,0.0,0.0,0.0,0.0,0.0,0.0,0.0,0.0,0.0,0.0,0.0,0.0,0.0,0.0,0.0,0.0,0.0,0.0,0.0,0.0,0.0,0.0,0.0,0.0,0.0,0.0,0.0,0.0,0.0,0.0,0.0,0.0,0.0,0.0,0.0,0.0,0.0,0.0,0.0,0.0,0.0,0.0,0.0,0.0,0.0,0.0,0.0,0.0,0.0,0.0,0.0,0.0,0.0,0.0,0.0,0.0,0.0,0.0,0.0,0.0,0.0,0.0,0.0,0.0,0.0,0.0,0.0,0.0,0.0,0.0,0.0,0.0,0.0,0.0,0.0,0.0,0.0,0.0,0.0,0.0,0.0,0.0,0.0,0.0,0.0,0.0,0.0,0.0,0.0,0.0,0.0,0.0,0.0,0.0,0.0,0.0,0.0,0.0,0.0,0.0,0.0,0.0,0.0,0.0,0.0,0.0,0.0,0.0,0.0,0.0,0.0,0.0,0.0,0.0,0.0,0.0,0.0,0.0,0.0,0.0,0.0,0.0,0.0,0.0,0.0,0.0,0.0,0.0,0.0,0.0,0.0,0.0,0.0,0.0,0.0,0.0,0.0,0.0,0.0,0.0,0.0,0.0,0.0,0.0,0.0,0.0,0.0,0.0,0.0,0.0,0.0,0.0,0.0,0.0,0.0,0.0,0.0,0.0,0.0,0.0,0.0,0.0,0.0,0.0,0.0,0.0,0.0,0.0,0.0,0.0,0.0,0.0,0.0,0.0,0.0,0.0,0.0,0.0,0.0,0.0,0.0,0.0,0.0,0.0,0.0,0.0,0.0,0.0,0.0,0.0,0.0,0.0,0.0,0.0,0.0,0.0,0.0,0.0,0.0,0.0,0.0,0.0,0.0,0.0,0.0,0.0,0.0,0.0,0.0,0.0,0.0,0.0,0.0,0.0,0.0,0.0,0.0,0.0,0.0,0.0,0.0,0.0,0.0,0.0,0.0,0.0,0.0,0.0,0.0,0.0,0.0,0.0,0.0,0.0,0.0,0.0,0.0,0.0,0.0,0.0,0.0,0.0,0.0,0.0,0.0,0.0,0.0,0.0,0.0,0.0,0.0,0.0,0.0,0.0,0.0,0.0,0.0,0.0,0.0,0.0,0.0,0.0,0.0,0.0,0.0,0.0,0.0,0.0,0.0,0.0,0.0,0.0,0.0,0.0,0.0,0.0,0.0,0.0,0.0,0.0,0.0,0.0,0.0,0.0,0.0,0.0,0.0,0.0,0.0,0.0,0.0,0.0,0.0,0.0,0.0,0.0,0.0,0.0,0.0,0.0,0.0,0.0,0.0,0.0,0.0,0.0,0.0,0.0,0.0,0.0,0.0,0.0,0.0,0.0,0.0,0.0,0.0,0.0,0.0,0.0,0.0,0.0,0.0,0.0,0.0,0.0,0.0,0.0,0.0,0.0,0.0,0.0,0.0,0.0,0.0,0.0,0.0,0.0,0.0,0.0,0.0,0.0,0.0,0.0,0.0,0.0,0.0,0.0,0.0,0.0,0.0,0.0,0.0,0.0,0.0,0.0,0.0,0.0,0.0,0.0,0.0,0.0,0.0,0.0,0.0,0.0,0.0,0.0,0.0,0.0,0.0,0.0,0.0,0.0,0.0,0.0,0.0,0.0,0.0,0.0,0.0,0.0,0.0,0.0,0.0,0.0,0.0,0.0,0.0,0.0,0.0,0.0,0.0,0.0,0.0,0.0,0.0,0.0,0.0,0.0,0.0,0.0,0.0,0.0,0.0,0.0,0.0,0.0,0.0,0.0,0.0,0.0,0.0,0.0,0.0,0.0,0.0,0.0,0.0,0.0,0.0,0.0,0.0,0.0,0.0,0.0,0.0,0.0,0.0,0.0,0.0,0.0,0.0,0.0,0.0,0.0,0.0,0.0,0.0,0.0,0.0,0.0,0.0,0.0,0.0,0.0,0.0,0.0,0.0,0.0,0.0,0.0,0.0,0.0,0.0,0.0,0.0,0.0,0.0,0.0,0.0,0.0,0.0,0.0,0.0,0.0,0.0,0.0,0.0,0.0,0.0,0.0,0.0,0.0,0.0,0.0,0.0,0.0,0.0,0.0,0.0,0.0,0.0,0.0,0.0,0.0,0.0,0.0,0.0,0.0,0.0,0.0,0.0,0.0,0.0,0.0,0.0,0.0,0.0,0.0,0.0,0.0,0.0,0.0,0.0,0.0,0.0,0.0,0.0,0.0,0.0,0.0,0.0,0.0,0.0,0.0,0.0,0.0,0.0,0.0,0.0,0.0,0.0,0.0,0.0,0.0,0.0,0.0,0.0,0.0,0.0,0.0,0.0,0.0,0.0,0.0,0.0,0.0,0.0,0.0,0.0,0.0,0.0,0.0,0.0,0.0,0.0,0.0,0.0,0.0,0.0,0.0,0.0,0.0,0.0,0.0,0.0,0.0,0.0,0.0,0.0,0.0,0.0,0.0,0.0,0.0,0.0,0.0,0.0,0.0,0.0,0.0,0.0,0.0,0.0,0.0,0.0,0.0,0.0,0.0,0.0,0.0,0.0,0.0,0.0,0.0,0.0,0.0,0.0,0.0,0.0,0.0,0.0,0.0,0.0,0.0,0.0,0.0,0.0,0.0,0.0,0.0,0.0,0.0,0.0,0.0,0.0,0.0,0.0,0.0,0.0,0.0,0.0,0.0,0.0,0.0,0.0,0.0,0.0,0.0,0.0,0.0,0.0,0.0,0.0,0.0,0.0,0.0,0.0,0.0,0.0,0.0,0.0,0.0,0.0,0.0,0.0,0.0,0.0,0.0,0.0,0.0,0.0,0.0,0.0,0.0,0.0,0.0,0.0,0.0,0.0,0.0,0.0,0.0,0.0,0.0,0.0,0.0,0.0,0.0,0.0,0.0,0.0,0.0,0.0,0.0,0.0,0.0,0.0,0.0,0.0,0.0,0.0,0.0,0.0,0.0,0.0,0.0,0.0,0.0,0.0,0.0,0.0,0.0,0.0,0.0,0.0,0.0,0.0,0.0,0.0,0.0,0.0,0.0,0.0,0.0,0.0,0.0,0.0,0.0,0.0,0.0,0.0,0.0,0.0,0.0,0.0,0.0,0.0,0.0,0.0,0.0,0.0,0.0,0.0,0.0,0.0,0.0,0.0,0.0,0.0,0.0,0.0,0.0,0.0,0.0,0.0,0.0,0.0,0.0,0.0,0.0,0.0,0.0,0.0,0.0,0.0,0.0,0.0,0.0,0.0,0.0,0.0,0.0,0.0,0.0,0.0,0.0,0.0,0.0,0.0,0.0,0.0,0.0,0.0,0.0,0.0,0.0,0.0,0.0,0.0,0.0,0.0,0.0,0.0,0.0,0.0,0.0,0.0,0.0,0.0,0.0,0.0,0.0,0.0,0.0,0.0,0.0,0.0,0.0,0.0,0.0,0.0,0.0,0.0,0.0,0.0,0.0,0.0,0.0,0.0,0.0,0.0,0.0,0.0,0.0,0.0,0.0,0.0,0.0,0.0,0.0,0.0,0.0,0.0,0.0,0.0,0.0,0.0,0.0,0.0,0.0,0.0,0.0,0.0,0.0,0.0,0.0,0.0,0.0,0.0,0.0,0.0,0.0,0.0,0.0,0.0,0.0,0.0,0.0,0.0,0.0,0.0,0.0,0.0,0.0,0.0,0.0,0.0,0.0,0.0,0.0,0.0,0.0,0.0,0.0,0.0,0.0,0.0,0.0,0.0,0.0,0.0,0.0,0.0,0.0,0.0,0.0,0.0,0.0,0.0,0.0,0.0,0.0,0.0,0.0,0.0,0.0,0.0,0.0,0.0,0.0,0.0,0.0,0.0,0.0,0.0,0.0,0.0,0.0,0.0,0.0,0.0,0.0,0.0,0.0,0.0,0.0,0.0,0.0,0.0,0.0,0.0,0.0,0.0,0.0,0.0,0.0,0.0,0.0,0.0,0.0,0.0,0.0,0.0,0.0,0.0,0.0,0.0,0.0,0.0,0.0,0.0,0.0,0.0,0.0,0.0,0.0,0.0,0.0,0.0,0.0,0.0,0.0,0.0,0.0,0.0,0.0,0.0,0.0,0.0,0.0,0.0,0.0,0.0,0.0,0.0,0.0,0.0,0.0,0.0,0.0,0.0,0.0,0.0,0.0,0.0,0.0,0.0,0.0,0.0,0.0,0.0,0.0,0.0,0.0,0.0,0.0,0.0,0.0,0.0,0.0,0.0,0.0,0.0,0.0,0.0,0.0,0.0,0.0,0.0,0.0,0.0,0.0,0.0,0.0,0.0,0.0,0.0,0.0,0.0,0.0,0.0,0.0,0.0,0.0,0.0,0.0,0.0,0.0,0.0,0.0,0.0,0.0,0.0,0.0,0.0,0.0,0.0,0.0,0.0,0.0,0.0,0.0,0.0,0.0,0.0,0.0,0.0,0.0,0.0,0.0,0.0,0.0,0.0,0.0,0.0,0.0,0.0,0.0,0.0,0.0,0.0,0.0,0.0,0.0,0.0,0.0,0.0,0.0,0.0,0.0,0.0,0.0,0.0,0.0,0.0,0.0,0.0,0.0,0.0,0.0,0.0,0.0,0.0,0.0,0.0,0.0,0.0,0.0,0.0,0.0,0.0,0.0,0.0,0.0,0.0,0.0,0.0,0.0,0.0,0.0,0.0,0.0,0.0,0.0,0.0,0.0,0.0,0.0,0.0,0.0,0.0,0.0,0.0,0.0,0.0,0.0,0.0,0.0,0.0,0.0,0.0,0.0,0.0,0.0,0.0,0.0,0.0,0.0,0.0,0.0,0.0,0.0,0.0,0.0,0.0,0.2973,0.0,0.0,0.0,0.0,0.0,0.0,0.0,0.0,0.0,0.0,0.0,0.0,0.0,0.0,0.0,0.0,0.0,0.0,0.0,0.0,0.0,0.0,0.0,0.0,0.0,0.0,0.0,0.0,0.0,0.0,0.0,0.0,0.0,0.0,0.0,0.0,0.0,0.0,0.0,1.455,1.4658,1.4726,1.4577,1.4509,1.4509,0.0,0.0,0.0,0.0,0.0,0.0,0.0,0.0,0.0,0.0,0.0,0.0,0.0,0.0,0.0,0.0,0.0,0.0,0.0,0.0,0.0,0.0,0.0,0.0,0.0,0.0,0.0,0.0,0.0,0.0,0.0,0.0,0.0,0.0,0.0,0.0,0.0,0.0,0.0,0.0,0.0,0.0,0.0,0.0,0.0,0.0,0.0,0.0,0.0,0.0,0.0,0.0,0.0,0.0,0.0,0.0,0.0,0.0,0.0,0.0,0.0,0.0,0.0,0.0,0.0,0.0,0.0,0.0,0.0,0.0,0.0,0.3082,0.0,0.0,0.0,0.0,0.0,0.0,0.0,0.0,0.0,0.0,0.0,0.0,0.0,0.0,0.0,0.0,0.0,0.0,0.0,0.0,0.0,0.0,0.0,0.0,0.0,0.0,0.0,0.0,0.0,0.0,0.0,0.0,0.0,0.0,0.0,0.0,0.0,0.0,1.4767,1.5004,1.5201,1.5099,1.5065,1.5072,1.474,0.0,0.0,0.0,0.0,0.0,0.0,0.0,0.0,0.0,0.0,0.0,0.0,0.0,0.0,0.0,0.0,0.0,0.0,0.0,0.0,0.0,0.0,0.0,0.0,0.0,0.0,0.0,0.0,0.0,0.0,0.0,0.0,0.0,0.0,0.0,0.0,0.0,0.0,0.0,0.0,0.0,0.0,0.0,0.0,0.0,0.0,0.0,0.0,0.0,0.0,0.0,0.0,0.0,0.0,0.0,0.0,0.0,0.0,0.0,0.0,0.0,0.0,0.0,0.0,0.4047,0.4089,0.3737,0.3558,0.3569,0.3408,0.33,0.3234,0.0,0.0,0.0,0.0,0.0,0.0,0.0,0.0,0.0,0.0,0.0,0.0,0.0,0.0,0.0,0.0,0.0,0.0,0.0,0.0,0.0,0.0,0.0,0.0,0.0,0.0,0.0,0.0,0.0,0.0,0.0,0.0,0.0,0.0,1.4631,1.4645,1.4509,1.5187,1.573,1.6137,1.6239,1.6354,1.6442,1.5384,1.5052,1.5269,0.0,0.0,0.0,0.0,0.0,0.0,0.0,0.0,0.0,0.0,0.0,0.0,0.0,0.0,0.0,0.0,0.0,0.0,0.0,0.0,0.0,0.0,0.0,0.0,0.0,0.0,0.0,0.0,0.0,0.0,0.0,0.0,0.0,0.0,0.0,0.0,0.0,0.0,0.0,0.0,0.0,0.3549,0.5337,0.0,0.0,0.0,0.0,0.0,0.0,0.0,0.0,0.0,0.0,0.0,0.0,0.0,0.0,0.9934,1.0396,1.053,1.0343,0.8309,0.7259,0.7125,0.4832,0.3723,0.3705,0.3754,0.0,0.3415,0.3336,0.0,0.0,0.0,0.0,0.0,0.0,0.0,0.0,0.0,0.0,0.0,0.0,0.0,0.0,0.0,0.0,0.0,0.0,0.0,0.0,0.0,0.0,0.0,0.0,0.0,0.0,0.0,0.0,0.0,0.0,0.0,0.0,1.4638,1.4787,1.5045,1.5391,1.646,1.703,1.7066,1.806,1.8259,1.8255,1.8042,1.7085,1.5897,1.5988,0.0,0.0,0.0,0.0,0.0,0.0,0.0,0.0,0.0,0.0,0.0,0.0,0.0,0.0,0.0,0.0,0.0,0.0,0.0,0.0,0.0,0.0,0.0,0.0,0.0,0.0,0.0,0.0,0.0,0.0,0.0,0.0,0.0,0.0,0.0,0.0,0.0,0.0,0.0,0.4075,0.5322,0.57,0.6463,0.6914,0.0,0.0,0.0,0.0,0.0,0.0,0.0,0.0,0.0,0.8465,1.1222,1.1685,0.9265,0.96,1.0479,1.2147,0.9693,0.9355,1.0813,0.9799,0.8387,0.6622,0.6655,0.5514,0.3842,0.3596,0.3425,0.3305,0.0,0.0,0.0,0.0,0.0,0.3217,0.0,0.0,0.0,0.0,0.0,0.0,0.0,0.0,0.0,0.0,0.0,0.0,0.0,0.0,0.0,1.4841,0.0,0.0,0.0,0.0,0.0,0.0,0.0,1.4801,1.4801,1.5099,1.5794,1.6515,1.7868,1.8473,1.8503,1.9766,2.0214,2.0029,2.0508,1.9304,1.7185,1.7404,1.6729,1.5802,0.0,0.0,0.0,0.0,0.0,0.0,0.0,0.0,0.0,0.0,0.0,0.0,0.0,0.0,0.0,0.0,0.0,0.0,0.0,0.0,0.0,0.0,0.0,0.0,0.0,0.0,0.0,0.0,0.0,0.0,0.0,0.0,0.0,0.0,0.0,0.0,0.0,0.4926,0.6401,0.7149,0.8375,0.9136,0.0,0.0,0.0,0.0,0.0,0.0,1.1969,1.3292,1.2823,1.0404,1.407,1.4616,1.1372,1.1443,1.2669,1.4832,1.2421,1.2379,1.4348,1.4022,1.2516,1.0089,1.0073,0.8871,0.6546,0.4587,0.3639,0.3495,0.3395,0.3337,0.331,0.331,0.3359,0.3435,0.0,0.0,0.0,0.0,0.0,0.0,0.0,0.0,0.0,0.0,0.0,0.0,0.0,0.0,1.5174,1.5737,1.5683,1.5669,0.0,0.0,1.5174,1.516,1.5031,1.4957,1.4957,1.5662,1.6731,1.7977,1.9057,2.0066,2.1019,2.1428,2.1586,2.1518,2.1911,2.1164,1.9461,1.8707,1.7903,1.7486,1.5831,0.0,0.0,0.0,0.0,0.0,0.0,0.0,0.0,0.0,0.0,0.0,0.0,0.0,0.0,0.0,0.0,0.0,0.0,0.0,0.0,0.0,0.0,0.0,0.0,0.0,0.0,0.0,0.0,0.0,0.0,0.0,0.0,0.0,0.0,0.0,0.0,0.0,0.0,1.0755,0.8693,0.0,0.0,0.0,0.0,1.3002,1.3338,1.4749,1.6882,1.5886,1.641,1.8609,1.9689,2.0225,2.0123,2.0844,2.1069,2.0831,1.8534,1.7565,1.7494,1.5055,1.3696,1.3554,1.3712,1.3583,1.2655,0.6361,0.3891,0.3739,0.3621,0.3555,0.3527,0.3527,0.3551,0.3587,0.0,0.0,0.0,0.0,0.0,0.0,0.0,0.0,0.0,0.0,0.0,0.0,0.0,1.5533,1.6035,1.6537,1.6619,1.6625,1.6578,0.0,1.5574,1.5479,1.5153,1.5382,1.625,1.6933,1.8143,1.9523,2.0923,2.1654,2.2136,2.3052,2.3409,2.2974,2.3586,2.3132,2.2377,2.0985,1.9781,1.8667,1.7505,1.6547,0.0,0.0,0.0,0.0,0.0,0.0,0.0,0.0,0.0,0.0,0.0,0.0,0.0,0.0,0.0,0.0,0.0,0.0,0.0,0.0,0.0,0.0,0.0,0.0,0.0,0.0,0.0,0.0,0.0,0.0,0.0,0.0,0.0,0.0,0.0,0.0,0.0,1.0711,1.2787,0.0,1.5258,1.5551,1.5806,1.6124,1.6544,1.7536,1.8952,1.8842,1.8661,1.8178,2.0321,2.0959,1.9454,1.958,2.0579,2.2459,1.9677,1.9504,2.1475,2.055,1.9153,1.7048,1.7063,1.6033,1.3779,1.1274,1.0234,0.963,0.9625,0.8269,0.6551,0.6587,0.5433,0.3803,0.0,0.0,0.0,0.0,0.0,0.0,0.0,0.0,0.0,0.0,0.0,1.4828,1.5628,1.6293,1.6924,1.7528,1.7528,1.7433,1.729,0.0,1.5845,1.5649,1.5398,1.598,1.7494,1.82,1.9345,2.078,2.2396,2.3043,2.3167,2.4294,2.4605,2.4094,2.454,2.4592,2.417,2.2854,2.1454,2.0173,1.8907,1.7733,1.681,0.0,0.0,0.0,0.0,0.0,0.0,0.0,0.0,0.0,0.0,0.0,0.0,0.0,0.0,0.0,0.0,0.0,0.0,0.0,0.0,0.0,0.0,0.0,0.0,0.0,0.0,0.0,0.0,0.0,0.0,0.0,0.0,0.0,0.0,0.0,1.2311,1.2813,1.5776,1.782,1.7806,1.8002,1.8335,1.8742,1.9237,1.9834,2.0594,2.1143,2.0828,1.9271,2.1638,2.1873,2.0219,2.0192,2.1174,2.3164,2.1366,2.1496,2.3612,2.3754,2.261,2.0774,2.0733,1.9371,1.7361,1.7244,1.6698,1.6146,1.3884,1.1863,0.9999,1.0026,0.8036,0.5538,0.0,0.0,0.0,0.0,0.0,0.0,0.0,0.0,0.0,1.4007,1.4604,1.5337,1.6232,1.7012,1.7826,1.8728,1.8375,1.8057,1.788,1.6748,1.5947,1.5649,1.5784,1.6757,1.8639,1.9439,2.0503,2.188,2.3359,2.4197,2.4376,2.5143,2.5404,2.5396,2.5225,2.5144,2.5104,2.4405,2.3293,2.1888,2.0014,1.9324,1.908,0.0,0.0,0.0,0.0,0.0,0.0,0.0,0.0,0.0,0.0,0.0,0.0,0.0,0.0,0.0,0.0,0.0,0.0,0.0,0.0,0.0,0.0,0.0,0.0,0.0,0.0,0.0,0.0,0.0,0.0,0.0,0.0,0.0,1.0132,0.9247,1.089,1.7272,1.7284,1.7229,1.8731,1.9657,2.0295,2.0573,2.1157,2.1686,2.2127,2.2567,2.2818,2.2818,2.3259,2.3415,2.3259,2.3558,2.3626,2.3483,2.3646,2.3788,2.3931,2.4066,2.4066,2.3931,2.4066,2.3877,2.347,2.3307,2.3151,2.2359,1.6256,1.3775,1.3417,1.3328,1.1431,0.8236,0.0,0.0,0.0,0.0,0.0,0.0,0.0,0.0,1.3397,1.3844,1.4808,1.5798,1.67,1.7846,1.883,1.9501,1.9061,1.8531,1.8057,1.6809,1.6096,1.606,1.6714,1.7953,2.0505,2.1449,2.274,2.419,2.487,2.5216,2.5505,2.5526,2.5404,2.5404,2.5355,2.525,2.512,2.4933,2.4551,2.391,2.1848,2.0547,1.9501,0.0,0.0,0.0,0.0,0.0,0.0,0.0,0.0,0.0,0.0,0.0,0.0,0.0,0.0,0.0,0.0,0.0,0.0,0.0,0.0,0.0,0.0,0.0,0.0,0.0,0.0,0.0,0.0,0.0,0.0,0.0,0.0,1.2253,0.9159,1.2965,1.6684,1.7595,1.9283,2.0469,2.119,2.1509,2.176,2.1848,2.2391,2.2778,2.2907,2.3449,2.3748,2.3748,2.4087,2.4243,2.4195,2.4284,2.4351,2.4419,2.4351,2.446,2.4704,2.4636,2.4582,2.4548,2.4473,2.4243,2.3924,2.3768,2.3558,2.2965,2.0878,1.8886,1.655,1.4252,1.0038,0.5362,0.0,0.0,0.0,0.0,0.0,0.0,0.0,1.3119,1.3383,1.396,1.5187,1.6327,1.7168,1.8511,1.9522,1.9929,1.9359,1.8687,1.7948,1.6968,1.6807,1.7449,1.8196,1.9762,2.2218,2.3039,2.3929,2.4946,2.5384,2.5577,2.5503,2.5642,2.5802,2.5737,2.5802,2.5737,2.5567,2.542,2.5315,2.5079,2.3723,2.2443,2.1358,2.0001,1.9142,1.8343,1.694,1.6437,1.6465,1.5259,0.0,0.0,0.0,0.0,0.0,0.0,0.0,0.0,0.0,0.0,0.0,0.0,0.0,0.0,0.0,0.0,0.0,0.0,0.0,0.0,0.0,0.0,0.0,0.0,1.3958,1.4788,1.2351,1.6077,1.9151,1.9737,2.1253,2.2411,2.2656,2.2818,2.2954,2.3083,2.347,2.3714,2.3788,2.4175,2.4406,2.4406,2.4636,2.4758,2.4758,2.4684,2.4704,2.4792,2.4704,2.4792,2.5023,2.4935,2.488,0.0,2.465,2.444,2.4189,2.3978,2.3788,0.0,0.0,0.0,0.0,0.0,1.244,0.7921,0.0,0.0,0.0,0.0,0.0,0.0,0.0,1.3146,1.3417,1.4177,1.5574,1.6781,1.7514,1.8938,1.9888,2.0085,1.94,1.8586,1.769,1.7305,1.7724,1.9205,2.0455,2.1946,2.395,2.4501,2.4928,2.5259,2.5947,2.6028,2.5256,2.6196,2.6444,2.6314,2.646,2.6419,2.6249,2.5932,2.5802,2.5745,2.5234,2.4551,2.3658,2.1549,2.0843,2.0922,1.8872,1.7761,1.7473,1.6369,0.0,0.0,0.0,0.0,0.0,0.0,0.0,0.0,0.0,0.0,0.0,0.0,0.0,0.0,0.0,0.0,0.0,0.0,0.0,0.0,0.0,0.0,0.0,0.0,1.6485,1.7839,1.8383,1.8746,1.9958,2.2529,2.313,2.3361,2.3558,2.3734,2.3931,2.4175,2.4365,2.4507,2.4616,0.0,0.0,0.0,0.0,2.5091,2.507,2.4948,2.4894,2.4894,2.488,2.4948,2.5125,2.5091,2.507,2.5057,2.4738,2.4528,2.4351,2.4066,2.391,2.3822,2.3395,2.2925,2.2284,1.9325,1.6297,0.0,0.0,0.0,0.0,0.0,0.0,0.0,0.0,1.3003,1.3268,1.4021,1.5418,1.6592,1.7216,1.862,1.9678,2.0064,1.9312,1.8644,1.8171,1.8069,1.8835,2.1001,2.2055,2.3393,2.5079,2.5746,2.6309,2.6542,2.6842,2.6931,2.6791,2.6947,2.689,2.6866,2.689,2.6801,2.6631,2.6566,2.6525,2.6501,2.6103,2.5169,2.3934,2.3146,2.2529,2.1783,2.049,1.9966,1.9368,1.8179,1.7419,1.6992,1.6212,1.5608,0.0,0.0,0.0,0.0,0.0,0.0,0.0,0.0,0.0,0.0,0.0,0.0,0.0,0.0,0.0,0.0,0.0,0.0,0.0,1.8503,1.9985,2.1136,2.2128,2.2717,2.3028,2.3524,2.3666,2.391,2.4317,2.4596,2.4738,2.467,2.5023,2.5165,2.4948,2.5179,0.0,2.5145,2.541,2.5498,2.5376,2.5464,2.5518,2.5511,0.0,0.0,2.5728,2.5477,2.5376,2.5355,2.5057,2.4772,2.4507,2.4331,2.4053,2.368,2.3347,2.1692,1.927,1.8533,1.6371,1.3401,0.0,0.0,0.0,0.0,0.0,0.0,0.0,1.2963,1.3227,1.3973,1.5242,1.6252,1.67,1.788,1.864,1.864,1.8108,1.796,1.8572,1.9212,2.0692,2.2719,2.3968,2.5216,2.6184,2.6736,2.7061,2.7142,2.7142,2.7183,2.7272,2.7272,2.7231,2.7142,2.7248,2.7183,2.6996,2.6907,2.689,2.6842,2.659,2.6038,2.5315,2.4511,2.3869,2.3333,2.1946,2.1269,2.087,1.9071,1.8371,1.8191,1.708,1.6456,1.5879,0.0,0.0,0.0,0.0,0.0,0.0,0.0,0.0,0.0,0.0,0.0,0.0,0.0,0.0,1.6218,0.0,0.0,1.9257,2.0451,2.1726,2.2798,2.347,2.4066,2.4372,2.4155,2.4317,2.4582,2.486,2.5111,2.5247,2.5247,2.5518,2.562,2.5464,2.5599,2.5688,2.5688,2.5762,2.583,2.5905,2.5762,2.5728,2.5796,2.5654,2.5654,2.5796,2.564,2.5532,2.5443,2.5145,2.4847,2.4548,2.4243,2.3978,2.3754,2.3449,2.233,2.0703,2.0624,1.8772,1.6061,0.0,0.0,0.0,0.0,0.0,0.0,0.0,0.0,1.3207,1.3892,1.495,1.575,1.6056,1.6944,1.7344,1.6931,1.708,1.7647,1.8858,2.063,2.2464,2.4633,2.5802,2.6631,2.7102,2.7313,2.7418,2.7378,2.7418,2.7418,2.7418,2.7548,2.7524,2.7443,2.7548,2.7508,2.7361,2.7231,2.7167,2.7142,2.6972,2.6866,2.6736,2.5843,2.525,2.4844,2.3174,2.2651,2.2104,2.0074,1.9388,1.8874,1.8088,1.7372,1.6781,1.613,1.592,0.0,0.0,0.0,0.0,0.0,0.0,0.0,0.0,0.0,1.5622,1.6395,1.6795,1.7358,1.8531,1.9556,2.058,2.1686,2.2818,2.366,2.4053,2.4548,2.486,2.4792,2.4969,2.5159,2.5301,2.5477,2.564,2.5762,2.5905,2.5993,2.5993,2.5993,2.604,2.6169,2.6081,2.6135,2.6359,2.6027,2.5884,2.5939,2.583,2.5762,2.5728,2.5674,2.5586,2.5443,2.5091,2.4772,2.4494,2.4033,2.3856,2.3822,2.3592,2.3307,2.3049,2.3029,2.1495,1.9065,0.0,0.0,0.0,0.0,0.0,0.0,0.0,0.0,0.0,1.3614,1.4373,1.4977,1.5276,1.5893,1.6157,1.5839,1.735,1.8723,1.9868,2.2043,2.3975,2.5908,2.6736,2.7248,2.7483,2.7824,2.7906,2.7735,2.7906,2.7995,2.7995,2.7841,2.7849,2.7971,2.7841,2.7759,2.7735,2.7719,2.7719,2.7694,2.7524,2.7353,2.7183,2.6907,2.6484,2.5932,2.5007,2.3716,2.2046,2.1883,2.0445,1.8905,1.8972,1.8687,1.8145,1.727,1.6558,1.5886,1.5106,1.4652,1.4543,1.514,1.5208,1.5479,0.0,0.0,1.7195,1.807,1.8498,1.904,2.0098,2.0933,2.1903,2.3225,2.3666,2.4087,2.4792,2.5057,2.5287,2.5532,2.5477,2.5477,2.562,2.5884,2.6061,2.6081,2.6217,2.6312,2.6312,2.6312,2.6325,2.6346,2.6447,2.6447,2.6359,2.6434,2.6346,2.6115,2.6095,2.6006,2.5864,2.5606,2.5477,2.543,2.486,2.4528,2.4331,2.389,2.37,2.37,2.3666,2.347,2.3185,2.3063,2.2717,2.2392,0.0,0.0,0.0,0.0,0.0,0.0,0.0,0.0,0.0,0.0,1.3994,1.4401,1.4523,1.476,1.4862,1.474,1.6529,1.8556,2.0363,2.2631,2.4763,2.6736,2.7313,2.7678,2.7849,2.7995,2.8036,2.7971,2.8036,2.8076,2.8076,2.7995,2.8011,2.8076,2.7995,2.7906,2.78,2.78,2.78,2.78,2.7719,2.7654,2.7548,2.7167,2.6679,2.6078,2.4377,2.2997,0.0,2.0692,2.0014,1.9622,1.964,1.8918,1.8179,1.7724,1.6809,1.5825,1.5248,1.5086,1.5194,1.5683,1.6144,1.6761,1.7826,1.8091,1.8409,1.9481,1.9942,2.0471,2.1509,2.2255,2.2974,0.0,2.4351,2.4847,2.5335,2.5532,2.564,2.5688,2.564,2.5728,2.6047,2.6271,2.6359,2.6271,2.6488,2.6536,2.638,2.6359,2.6359,2.6359,2.6325,2.638,2.6488,2.6468,2.6434,2.638,2.6305,2.6183,2.6027,2.5905,2.5654,2.5301,2.4792,2.4473,2.4311,2.3965,2.3856,2.3931,2.3843,2.3734,2.3571,2.3259,2.3083,2.2961,0.0,0.0,0.0,0.0,0.0,0.0,0.0,0.0,0.0,0.0,0.0,1.3885,1.3885,1.3926,1.3953,1.3953,1.5903,1.797,2.0309,2.2654,2.4918,2.7126,2.7629,2.7954,2.8076,2.8182,2.8206,2.8141,2.8206,2.823,2.823,2.8165,2.8141,2.8141,2.8101,2.7971,2.78,2.78,2.7824,2.7865,2.7824,2.78,2.7735,2.7061,2.633,2.5312,2.3359,2.2412,2.1526,1.9533,1.8969,1.9275,1.9159,1.8565,1.7989,1.7738,1.6754,1.5669,1.5384,1.5499,1.5852,1.6476,1.7216,1.8036,1.8993,1.9325,1.9766,2.0926,2.1333,2.1774,2.2696,2.3259,2.3748,2.4277,2.4826,2.5287,2.5586,2.5674,2.5654,2.5464,2.541,2.5532,2.5959,2.6271,2.6434,2.6359,2.659,2.6644,2.6434,2.6413,2.6434,2.6488,2.638,2.6413,2.6624,2.6576,2.6556,2.6576,2.6522,2.6359,2.6129,2.6006,2.5654,2.5145,2.4738,2.4473,2.4331,2.4012,2.3965,2.4053,2.3931,2.389,2.3843,2.3483,2.3259,2.3063,0.0,0.0,0.0,0.0,0.0,0.0,0.0,0.0,0.0,0.0,0.0,0.0,0.0,1.3553,1.3641,1.3641,1.5413,1.7479,1.9966,2.2273,2.4604,2.6947,2.7694,2.8076,2.8076,2.8417,2.8507,2.8328,2.8507,2.8588,2.8588,2.8417,2.8328,2.8312,2.8141,2.7971,2.78,2.78,2.7906,2.806,2.7865,2.78,2.7694,2.6631,2.5208,2.3559,2.3024,2.1472,1.9823,1.8682,1.7692,1.6904,1.7351,1.767,1.7772,1.7344,1.6361,1.5452,1.5588,1.5737,1.6198,1.767,1.8375,1.9115,2.0594,2.1034,2.1441,2.25,2.273,2.292,2.3537,2.3768,2.4121,2.488,2.5023,2.5125,2.543,2.5335,2.5145,2.486,2.4684,2.4724,0.0,2.5722,2.6203,2.6346,2.6502,2.6576,2.6576,2.6576,2.6644,2.6787,2.6787,2.6787,2.68,2.6943,2.6854,2.6576,2.6712,2.6556,2.6115,2.5674,2.5321,2.5003,2.4704,2.4473,2.4331,2.4012,2.389,2.389,2.389,2.389,2.3877,2.3714,2.3571,2.3381,0.0,0.0,0.0,0.0,0.0,0.0,0.0,0.0,0.0,0.0,0.0,0.0,0.0,0.0,0.0,0.0,1.5082,1.6831,1.9084,2.1603,2.388,2.6062,2.7167,2.7841,2.8076,2.8312,2.8458,2.8523,2.8588,2.8612,2.8612,2.8417,2.8393,2.8507,2.8206,2.8036,2.7995,2.7995,2.8076,2.823,2.793,2.7735,2.75,2.5749,2.4015,2.2402,0.0,1.8859,1.7858,1.6883,1.6357,1.6232,1.668,1.6686,1.6361,1.552,1.5622,1.5995,1.5947,1.6761,1.7948,1.9257,2.0064,2.0878,2.2181,2.2513,2.271,2.3259,2.3137,2.2995,2.3205,2.3436,2.3788,2.4331,2.4935,2.5443,2.585,2.5864,2.5566,2.488,2.4738,0.0,0.0,0.0,0.0,2.5884,2.6237,2.64,2.6291,2.6468,2.6556,2.6502,2.661,2.6644,2.6644,2.6698,2.6732,2.6732,2.6576,2.638,2.6115,2.5674,2.5301,2.5003,2.4704,2.4473,2.4331,2.4121,2.4053,2.4053,2.4053,2.4053,2.4033,2.3877,2.3734,2.3524,0.0,0.0,0.0,0.0,0.0,0.0,0.0,0.0,0.0,0.0,0.0,0.0,0.0,0.0,0.0,0.0,0.0,1.614,1.8119,2.0293,2.2117,2.423,2.5256,2.62,2.6534,2.6695,2.689,2.7459,2.7459,2.7654,2.8036,2.7971,2.8011,2.8125,2.7954,2.7889,2.7889,2.7759,2.7694,2.7613,2.7077,2.6541,2.569,2.3803,2.2032,0.0,1.7771,1.6494,1.5744,1.5231,1.5133,1.535,1.5635,1.5642,1.5438,1.493,1.5581,1.6564,1.6998,1.8124,1.9468,2.0661,2.1441,2.2201,2.3219,2.3381,2.3361,2.3558,2.3205,2.2798,2.2642,2.2676,2.294,2.3537,2.4175,2.4826,2.5552,2.5464,2.5145,2.4616,2.4317,2.4053,0.0,0.0,0.0,2.5477,2.5905,2.6149,2.6203,2.6447,2.6556,2.6522,2.661,2.6678,2.6732,2.6678,2.6678,2.6712,2.6488,2.6271,2.6115,2.5728,2.541,2.5159,2.486,2.465,2.4494,2.4277,2.4209,2.4189,2.4087,2.4066,2.41,2.3944,2.3843,2.368,0.0,0.0,0.0,0.0,0.0,0.0,0.0,0.0,0.0,0.0,0.0,0.0,0.0,0.0,0.0,0.0,0.0,0.0,1.6681,1.8268,1.9762,2.1375,2.2307,2.3214,2.3756,2.3648,2.4145,2.5339,2.5355,2.5891,2.689,2.7037,2.7126,2.7126,2.7288,2.7378,2.7353,2.7012,2.6655,2.6249,2.538,2.4139,2.2551,2.1024,1.9044,1.7086,1.5816,1.466,1.3641,1.379,1.4055,1.4326,1.4346,1.4658,1.5113,1.5588,1.6266,1.7188,1.8674,1.9746,2.0716,2.1903,2.252,2.3029,2.3754,2.368,2.3449,2.3395,2.2907,2.2323,2.1848,2.1564,2.1706,2.2608,2.294,2.3503,2.4684,2.4351,2.4033,0.0,0.0,0.0,0.0,0.0,0.0,2.5145,0.0,2.5884,2.6346,2.6502,2.6644,2.68,2.68,2.6875,2.701,2.6875,2.6712,2.6556,2.6413,2.6271,2.6115,2.5817,2.5599,2.543,2.5145,2.4914,2.4758,2.4473,2.4351,2.4311,2.4012,2.3978,2.41,2.3944,2.389,2.3822,0.0,0.0,0.0,0.0,0.0,0.0,0.0,0.0,0.0,0.0,0.0,0.0,0.0,0.0,0.0,0.0,0.0,0.0,1.5557,1.6794,1.8201,1.9976,2.1074,2.2213,2.3343,2.3315,2.3657,2.4616,2.4738,2.4868,2.5014,2.5063,2.5079,2.5079,2.4998,2.4957,2.4957,2.4852,2.4681,2.4421,2.3423,2.248,2.152,1.9468,1.7835,1.6292,1.5229,1.4331,1.3498,1.3756,1.419,1.4685,1.5025,1.5357,1.5805,1.67,1.765,1.8694,1.9976,2.1143,2.2201,2.3063,2.3537,2.3822,2.4012,2.3836,2.3436,2.2764,2.1882,2.0987,2.0207,2.0627,2.1374,2.2147,2.3347,2.4507,2.5477,2.5477,0.0,2.4847,0.0,2.4528,2.4155,2.4121,0.0,0.0,2.541,2.5762,2.6325,2.661,2.6766,2.68,2.68,2.682,2.6854,2.6712,2.6502,2.6237,2.6203,2.6115,2.5952,2.5654,2.5443,2.5267,2.4982,2.4758,2.4616,2.4419,2.4277,2.4155,2.3965,2.3978,2.41,2.3944,2.389,2.3856,0.0,0.0,0.0,0.0,0.0,0.0,0.0,0.0,0.0,0.0,0.0,0.0,0.0,0.0,0.0,0.0,0.0,0.0,0.0,1.5333,1.6401,1.7516,1.8473,1.9315,2.0256,2.0489,2.1096,2.2113,2.2359,2.2635,2.3171,2.3,2.2976,2.3041,2.2935,2.2976,2.3122,2.2732,2.2515,0.0,0.0,1.99,1.8953,1.7355,1.6109,1.5104,1.451,1.4136,1.4055,1.4482,1.4896,1.535,1.6069,1.6592,1.7154,1.8267,1.9257,2.0227,2.1421,2.2534,2.3449,2.3944,2.4141,2.4141,2.3802,2.3347,2.2642,2.1421,2.0539,1.9712,1.8816,1.9501,2.0505,2.1387,2.2852,2.4284,2.5443,2.5498,2.5389,2.5321,2.5213,0.0,2.4758,2.4684,2.4894,0.0,2.5477,2.5728,2.6325,2.6644,2.68,2.68,2.68,2.6732,2.661,2.6644,2.6447,2.6027,2.6095,2.604,2.5905,2.5674,2.5477,2.5321,0.0,2.486,2.465,2.4507,2.4351,2.4189,2.391,2.3931,2.41,2.3877,2.3877,2.3978,0.0,0.0,0.0,0.0,0.0,0.0,0.0,0.0,0.0,0.0,0.0,0.0,0.0,0.0,0.0,0.0,0.0,0.0,0.0,0.0,1.4611,1.4943,1.5565,1.6054,1.6205,1.704,1.7803,1.8962,1.9259,2.0036,2.123,2.0937,2.0872,2.0994,2.1019,2.1197,2.1221,2.0489,1.9945,1.9579,1.8526,1.7135,1.5924,0.0,1.4534,1.3824,1.3702,1.4075,1.4746,1.5594,1.6001,1.6334,1.7385,1.8158,1.8905,2.0098,2.0946,2.174,2.292,2.3836,2.4473,2.4616,2.4494,2.4134,2.3327,2.25,2.1441,1.9786,1.9061,1.8477,1.765,1.8389,1.9501,2.0668,2.2113,2.3592,2.5111,2.5125,2.5165,2.5688,2.5423,2.5247,2.5389,2.5267,2.541,2.5973,2.5762,2.583,2.6359,2.6678,2.682,2.68,2.68,2.6664,2.64,2.6624,2.6468,2.5939,2.604,2.6027,2.5905,2.5728,2.5586,2.5443,0.0,0.0,2.4758,2.4616,2.4473,2.4277,2.3877,2.3856,2.4066,2.3802,2.3877,2.4066,0.0,0.0,0.0,0.0,0.0,0.0,0.0,0.0,0.0,0.0,1.3078,1.3071,0.0,0.0,0.0,0.0,0.0,0.0,0.0,0.0,0.0,1.4351,1.4513,1.5139,1.6649,1.6773,1.7055,1.7702,1.8536,1.8713,1.8411,1.8898,1.9077,1.8964,1.8717,1.8537,1.8458,1.7817,1.7403,1.7072,1.6124,1.5535,1.4949,1.4381,0.0,0.0,1.381,1.3885,1.4312,1.6408,1.7378,1.788,1.8938,1.9854,2.077,2.1971,2.2588,2.3117,2.4189,2.4684,2.4935,2.507,2.4738,2.4053,2.292,2.1706,2.0349,1.8708,1.7812,1.7202,1.6795,1.7772,1.9237,2.1034,2.2479,2.3944,2.5566,2.585,2.5939,2.604,2.6095,2.6183,2.6325,2.6095,0.0,0.0,2.6488,2.6434,2.6536,2.682,2.6922,2.68,2.68,2.6712,2.6536,2.6468,2.6325,2.6095,2.5993,2.5918,2.5884,2.562,2.5477,2.5443,2.5179,0.0,2.4596,2.4582,2.4406,2.4141,2.3931,2.389,2.3931,2.3877,2.389,2.3931,0.0,0.0,0.0,0.0,0.0,0.0,0.0,1.2915,1.3125,1.358,1.3648,1.3566,1.3315,1.322,1.32,0.0,0.0,0.0,0.0,0.0,0.0,0.0,1.3985,1.4302,1.4966,1.5881,1.6316,1.6407,0.0,1.77,1.7524,1.7612,1.7705,1.7624,1.7427,1.7065,1.6884,1.634,1.5941,1.568,1.4998,1.4673,1.4534,0.0,0.0,0.0,1.3871,1.419,1.4855,1.6164,1.7684,1.9237,2.0526,2.1496,2.2323,2.3219,2.368,2.4107,2.4914,2.5301,2.5498,2.5566,2.4894,2.3836,2.2323,2.0804,1.9203,1.7317,1.6646,1.63,1.6001,1.7236,1.8762,2.0173,2.1455,2.2995,2.5036,2.5179,2.5423,2.6359,2.6468,2.6536,2.6678,2.6556,2.6569,2.6787,2.68,2.6787,2.6698,2.6834,2.6875,2.68,2.68,2.6732,2.6576,2.6502,2.6359,2.6129,2.6061,2.5973,2.5884,2.5606,2.5464,2.5443,2.5145,0.0,2.4562,2.4562,2.4385,2.41,2.3944,2.3944,2.3999,2.3931,2.389,2.391,0.0,0.0,0.0,0.0,0.0,0.0,0.0,1.322,1.3485,1.4217,1.4333,1.4156,1.3648,1.3431,1.3261,0.0,0.0,0.0,0.0,0.0,0.0,0.0,0.0,0.0,1.3569,0.0,0.0,1.5174,1.6245,0.0,0.0,0.0,0.0,0.0,1.6411,1.6082,1.5859,1.5337,1.506,0.0,0.0,1.4299,0.0,0.0,0.0,0.0,0.0,1.4448,1.5228,1.5913,1.7568,1.9624,2.1231,2.2466,2.3395,2.3856,2.4317,2.4826,2.541,2.5742,2.5952,2.5952,2.4982,2.3558,2.1794,2.001,1.8179,1.6171,1.5683,1.5574,1.5438,1.6646,1.8057,1.9237,2.0329,2.1862,2.4297,2.4453,2.4914,2.6522,2.6658,2.6678,2.6834,2.682,2.682,2.6888,2.701,0.0,2.6909,2.6834,2.682,2.6854,2.682,2.6746,2.6624,2.6556,2.6413,2.6183,2.6115,2.6027,2.5884,2.5606,2.5464,2.5443,2.5145,0.0,0.0,2.4562,2.4385,2.41,2.3978,2.3999,2.4066,2.3978,2.3924,2.391,0.0,0.0,0.0,0.0,0.0,0.0,0.0,1.3376,1.379,1.493,1.474,1.4421,1.4238,1.3953,1.3559,0.0,0.0,0.0,0.0,0.0,0.0,0.0,0.0,0.0,0.0,0.0,0.0,1.433,1.5324,0.0,0.0,0.0,0.0,0.0,0.0,1.5132,1.5147,1.4625,0.0,0.0,0.0,0.0,0.0,0.0,0.0,0.0,0.0,1.4231,1.4489,1.6422,1.7324,1.7982,1.9888,2.1937,2.3626,2.3537,2.4297,2.5267,2.5742,2.5993,2.6115,2.6115,2.4914,2.3293,2.1618,1.9535,1.7487,1.5798,1.5126,1.4957,1.5343,1.5879,1.6958,1.9081,1.9976,2.1299,2.3822,2.4616,2.5301,2.6291,2.6624,2.6834,2.6997,2.6888,2.6909,2.7187,2.7207,0.0,2.7207,2.6943,2.6875,2.701,2.6875,2.68,2.6787,2.6522,2.6359,2.6346,2.6061,2.5918,2.5884,2.5606,2.5464,2.5443,2.5145,0.0,0.0,2.4562,2.4385,2.4121,2.41,2.4012,2.3931,2.4053,2.4012,2.391,0.0,0.0,0.0,0.0,0.0,0.0,1.3152,1.3261,1.3756,1.514,1.5242,1.5133,1.4984,1.4618,1.396,1.2915,0.0,0.0,0.0,0.0,0.0,0.0,0.0,0.0,0.0,0.0,0.0,1.4159,1.4983,0.0,0.0,0.0,0.0,0.0,0.0,0.0,1.4992,1.4822,0.0,0.0,0.0,0.0,0.0,0.0,0.0,0.0,0.0,0.0,1.457,1.5228,1.6151,1.706,1.729,1.9094,2.1374,2.2676,2.3646,2.4528,2.5599,2.6149,2.638,2.6291,2.4894,2.3117,2.1462,1.9203,1.7039,1.5574,1.4916,1.4713,1.5079,1.5513,1.6313,1.7846,1.8213,1.9203,2.174,2.2235,2.313,2.5301,2.5817,2.6271,2.6963,2.7139,2.7207,2.7241,0.0,0.0,2.7099,2.7085,2.7051,2.7031,2.6976,2.6888,2.68,2.659,2.6447,2.6359,2.6149,2.5993,2.5905,2.5694,2.5552,2.5443,2.5233,0.0,0.0,2.4562,2.4385,2.4121,2.4121,2.4087,2.4033,2.41,2.4019,2.391,0.0,0.0,0.0,0.0,0.0,1.2277,1.3112,1.3315,1.3858,1.5228,1.5466,1.5479,1.5418,1.4814,1.4027,1.3078,1.3064,0.0,0.0,0.0,0.0,0.0,0.0,0.0,0.0,0.0,1.4006,1.3901,1.4549,1.4878,0.0,0.0,0.0,0.0,0.0,0.0,0.0,0.0,0.0,0.0,0.0,0.0,0.0,0.0,0.0,0.0,0.0,0.0,0.0,0.0,0.0,1.6137,1.5635,1.6842,1.8884,2.1123,2.2622,2.3822,2.5091,2.5939,2.6413,2.6257,2.4792,2.294,2.1245,1.8952,1.6795,1.5404,1.476,1.4529,1.4787,1.5201,1.5818,1.6775,1.7073,1.8002,2.0363,2.077,2.174,2.4263,2.4772,2.5342,2.6393,2.701,2.7316,2.7241,0.0,0.0,2.7153,2.7261,2.7227,2.7031,2.7031,2.6943,2.6732,2.659,2.6434,2.6291,2.6129,2.6006,2.5905,2.5708,2.5566,2.5443,0.0,0.0,0.0,2.4636,2.446,2.4189,2.4189,2.4155,2.4121,2.4121,2.4053,2.3978,0.0,0.0,0.0,0.0,0.0,0.0,1.3241,1.3648,1.4211,1.5276,1.5282,1.5242,1.5398,1.4353,1.3634,1.362,1.322,0.0,0.0,0.0,0.0,0.0,0.0,0.0,0.0,0.0,1.3403,1.3403,1.3695,1.3844,1.3851,1.4156,0.0,0.0,0.0,0.0,0.0,0.0,0.0,0.0,0.0,0.0,0.0,0.0,0.0,0.0,0.0,0.0,0.0,0.0,0.0,0.0,0.0,1.5859,1.6558,1.8816,2.1245,2.3395,2.4155,2.5233,2.6095,2.5939,2.4562,2.2744,2.0946,1.8816,1.6768,1.5282,1.4618,1.4346,1.4489,1.4882,1.5438,1.6198,1.7066,1.8321,2.0275,2.1055,2.1937,2.3307,2.3612,2.4107,2.5145,2.6325,2.7099,2.7221,0.0,0.0,2.7458,2.7472,2.7329,2.7044,2.7031,2.6888,2.6576,2.6434,2.6291,2.6129,2.5973,2.5905,2.5884,2.5606,2.5464,0.0,0.0,0.0,0.0,2.4792,2.4616,2.4351,2.4351,2.4263,2.4121,2.4121,2.4121,2.4121,0.0,0.0,0.0,0.0,0.0,0.0,0.0,1.2739,1.3268,1.4211,1.4299,1.4441,1.4903,1.4068,1.3471,1.3471,1.3064,0.0,0.0,0.0,0.0,0.0,0.0,0.0,0.0,0.0,1.3451,1.3559,1.3648,1.3804,1.4,1.3987,1.4041,1.4143,0.0,0.0,0.0,0.0,0.0,0.0,0.0,0.0,0.0,0.0,0.0,0.0,0.0,0.0,0.0,0.0,0.0,0.0,0.0,0.0,0.0,1.6659,1.8938,2.1299,2.2255,2.3239,2.389,2.3436,2.2337,2.1034,1.9644,1.7982,1.6395,1.5215,1.4611,1.4346,1.4482,1.4875,1.5527,1.6598,1.7263,1.8145,1.959,2.0648,2.1862,2.3415,2.5179,2.6447,2.6875,2.7065,2.7187,2.7241,0.0,0.0,2.7173,2.7261,2.7275,2.7173,2.7173,2.7031,2.6732,2.6488,2.6346,2.6291,2.6027,2.5905,2.5905,2.5817,0.0,0.0,0.0,0.0,0.0,2.4684,2.4528,2.4331,2.4229,2.4155,2.4121,2.4121,2.4121,2.4121,0.0,0.0,0.0,0.0,0.0,0.0,0.0,1.2311,1.2766,1.3492,1.3492,1.3695,1.4407,1.3587,1.3091,1.3376,1.2935,0.0,0.0,0.0,0.0,0.0,0.0,0.0,0.0,1.3403,1.3532,1.3797,1.3905,1.4116,1.4414,1.4428,1.436,1.4231,1.4136,0.0,0.0,0.0,0.0,0.0,0.0,0.0,1.4204,0.0,0.0,0.0,0.0,0.0,0.0,0.0,0.0,0.0,0.0,0.0,0.0,0.0,1.7019,1.8918,2.0492,2.1686,2.2411,2.2038,2.1109,1.9976,1.8782,1.7392,1.6062,1.5011,1.4536,1.4346,1.4482,1.4923,1.5554,1.6415,1.7073,1.7894,1.9094,2.0295,2.1726,2.3537,2.5566,2.6854,0.0,2.7207,2.7329,0.0,0.0,0.0,2.7119,2.7132,2.7153,2.7153,2.7153,2.6997,2.6644,2.64,2.6237,2.6183,2.5993,2.5864,2.5817,2.5817,0.0,0.0,0.0,0.0,0.0,2.4704,2.4562,2.4419,2.4263,2.4175,2.4121,2.4121,2.4121,2.4121,0.0,0.0,0.0,0.0,0.0,0.0,0.0,1.2277,1.2623,1.3037,1.2854,1.3003,1.3838,1.2929,1.2542,1.3247,0.0,0.0,0.0,0.0,0.0,0.0,0.0,0.0,0.0,1.3403,1.3634,1.4075,1.4367,1.4672,1.4991,1.5269,1.5079,1.4509,1.4502,1.4245,0.0,0.0,0.0,0.0,0.0,0.0,0.0,0.0,0.0,0.0,0.0,0.0,0.0,0.0,0.0,0.0,0.0,0.0,0.0,0.0,0.0,0.0,0.0,2.0329,2.1319,2.1285,2.0438,1.9325,1.8165,1.6924,0.0,1.4719,1.4401,1.4353,1.4529,1.5018,1.552,1.59,1.668,1.767,1.8871,2.0187,2.1774,2.3802,2.5111,2.5884,2.5952,2.6888,0.0,0.0,0.0,0.0,2.7261,2.7119,2.7031,2.7044,2.701,2.68,2.638,2.6217,2.6061,2.5918,2.5905,2.5817,2.5694,2.5674,0.0,0.0,0.0,0.0,0.0,2.486,2.4704,2.4548,2.4406,2.4263,2.4121,2.4121,2.4121,2.4121,0.0,0.0,0.0,0.0,0.0,0.0,0.0,0.0,0.0,0.0,1.2264,1.2298,1.2515,1.2176,1.206,0.0,0.0,0.0,0.0,0.0,0.0,0.0,0.0,0.0,1.3227,1.3458,1.3736,1.4075,1.4367,1.4726,1.5133,1.5201,1.4977,1.4509,1.4401,1.4034,0.0,0.0,0.0,0.0,0.0,0.0,0.0,0.0,0.0,0.0,1.4075,1.4217,0.0,0.0,0.0,0.0,0.0,0.0,0.0,0.0,1.4936,0.0,1.6198,0.0,1.7968,1.7507,1.727,1.6951,0.0,1.5703,1.5228,1.4631,1.4401,1.4448,0.0,0.0,1.5635,1.6856,1.7419,1.8124,1.9325,2.1815,2.4033,2.5443,2.6658,2.7173,2.6644,2.7227,0.0,0.0,0.0,2.7295,2.7417,2.7173,2.7085,2.7187,2.6854,2.6624,2.6522,2.6257,2.6115,2.6081,2.585,2.5728,2.5694,2.5566,0.0,0.0,0.0,0.0,2.5003,2.486,2.4704,2.4548,2.4406,2.4263,2.4121,2.4121,2.4121,2.4121,0.0,0.0,0.0,0.0,0.0,0.0,0.0,0.0,0.0,0.0,0.0,0.0,0.0,0.0,0.0,0.0,0.0,0.0,0.0,0.0,0.0,0.0,0.0,1.3173,1.3173,1.3403,1.377,1.4272,1.4502,1.495,1.5594,1.5594,1.5282,1.4699,1.4136,1.3668,0.0,0.0,0.0,0.0,1.36,0.0,0.0,0.0,0.0,0.0,1.3966,1.4116,0.0,1.4699,1.4869,1.493,0.0,0.0,0.0,0.0,1.4536,1.4699,1.4855,1.5818,1.6707,1.6456,1.6347,1.6191,1.5716,1.5282,1.4889,1.4577,1.4401,1.4482,1.5072,0.0,0.0,0.0,1.7534,1.8552,2.0505,2.2656,2.4596,2.6061,2.6922,2.735,0.0,0.0,0.0,0.0,0.0,2.7241,2.7261,2.7051,2.6922,2.6943,2.6644,2.6468,2.6468,2.6183,2.6027,2.6027,2.5796,2.5654,2.5586,2.5498,2.5342,0.0,0.0,0.0,2.4894,2.4684,2.4541,2.4453,2.4297,2.4189,2.4121,2.4121,2.4121,2.4121,0.0,0.0,0.0,0.0,0.0,0.0,0.0,0.0,0.0,0.0,0.0,0.0,0.0,0.0,0.0,0.0,0.0,0.0,0.0,0.0,0.0,0.0,1.3051,1.3152,1.3173,1.3342,1.3777,1.4482,1.4699,1.5242,1.6083,1.6151,1.5764,1.4964,1.3973,1.3417,0.0,0.0,0.0,0.0,1.3539,0.0,0.0,0.0,0.0,0.0,0.0,0.0,0.0,1.4957,1.5194,1.5187,1.5228,0.0,0.0,0.0,0.0,0.0,1.4468,1.5479,1.6469,1.6395,1.6252,1.6049,1.5696,1.5126,1.4638,1.4536,1.4434,1.4563,1.5201,1.5479,0.0,0.0,0.0,1.9291,2.2038,2.3327,2.4582,2.6203,2.6732,0.0,0.0,0.0,0.0,0.0,0.0,2.7207,2.7099,2.6888,2.6712,2.661,2.6434,2.6325,2.6325,2.604,2.5905,2.5905,2.5728,2.5586,2.5464,2.541,2.5254,0.0,0.0,0.0,2.4806,2.4507,2.4385,2.4365,2.4209,2.4141,2.4121,2.4121,2.4121,2.4121,0.0,0.0,0.0,0.0,0.0,0.0,0.0,0.0,0.0,0.0,0.0,0.0,0.0,0.0,0.0,0.0,0.0,0.0,0.0,0.0,0.0,1.2569,1.284,1.3051,1.3173,1.3451,1.3838,1.4333,1.4855,1.5445,1.609,1.6469,1.611,1.512,1.4455,1.3865,1.337,1.3417,1.3424,1.3403,1.3424,0.0,0.0,0.0,0.0,0.0,0.0,0.0,0.0,1.4272,1.4679,1.5099,1.4618,0.0,0.0,0.0,0.0,0.0,1.5228,1.5879,1.6076,1.4957,1.5018,1.5215,1.4665,1.4448,1.4394,1.4489,1.4597,1.493,1.5784,1.6273,1.6836,0.0,0.0,2.1285,0.0,0.0,2.5674,2.6447,0.0,2.7526,0.0,0.0,0.0,0.0,0.0,2.7295,2.7404,2.6888,2.6658,2.6766,2.638,2.6169,2.6169,2.5993,2.5905,2.5905,2.562,2.5477,2.5464,2.5199,2.5057,0.0,0.0,2.488,2.4969,2.465,2.4528,2.4507,2.4365,2.4229,2.4121,2.4121,2.4121,2.4121,0.0,0.0,0.0,0.0,0.0,0.0,0.0,0.0,0.0,0.0,0.0,0.0,0.0,0.0,0.0,0.0,0.0,0.0,0.0,0.0,1.2576,1.2739,1.2963,1.3105,1.3173,1.3546,1.4048,1.4665,1.5181,1.5859,1.668,1.6483,1.592,1.5031,1.4278,1.3688,1.3281,1.3363,1.3451,1.3519,0.0,0.0,0.0,0.0,0.0,0.0,0.0,0.0,0.0,0.0,1.4875,1.5343,1.4821,0.0,0.0,0.0,0.0,0.0,1.4801,1.5357,1.5696,1.516,1.5594,1.6022,1.5506,1.5194,1.5065,1.5208,1.5228,1.5499,1.6402,0.0,1.7968,1.9834,0.0,2.2622,2.4141,2.4914,2.564,0.0,0.0,0.0,0.0,0.0,0.0,0.0,0.0,0.0,2.7241,2.682,2.6576,2.6569,2.6291,2.6061,2.5905,2.583,2.5796,2.5783,2.5477,2.5335,2.5335,2.5111,2.5023,2.5023,0.0,2.4792,2.4758,2.4541,2.4406,2.4317,2.4243,2.4189,2.4121,2.4121,2.4121,2.4121,0.0,0.0,0.0,0.0,0.0,0.0,0.0,0.0,0.0,0.0,0.0,0.0,0.0,0.0,0.0,0.0,0.0,0.0,0.0,0.0,1.2623,1.2895,1.3112,1.3295,1.3431,1.3804,1.4387,1.5181,1.5662,1.6395,1.7331,1.6625,1.5859,1.5038,1.4204,1.3607,1.3234,1.3349,1.3492,1.3614,0.0,0.0,0.0,0.0,0.0,0.0,0.0,0.0,0.0,0.0,0.0,0.0,0.0,0.0,0.0,1.476,1.4509,1.4502,1.4713,1.516,1.5622,1.5845,1.6313,1.668,1.6544,1.6171,0.0,0.0,0.0,1.6435,1.7161,1.8002,0.0,2.1706,2.2907,0.0,0.0,0.0,0.0,0.0,0.0,0.0,0.0,0.0,0.0,0.0,0.0,0.0,2.6976,2.6698,2.6434,2.6257,2.6115,2.5905,2.564,2.5599,2.5599,2.564,2.5355,2.5233,2.5233,2.5091,2.5003,2.4948,2.4806,2.467,2.4548,2.4365,2.4243,2.4175,2.4141,2.4121,2.4121,2.4121,2.4121,2.4121,0.0,0.0,0.0,0.0,0.0,0.0,0.0,0.0,0.0,0.0,0.0,0.0,0.0,0.0,0.0,0.0,0.0,0.0,0.0,0.0,1.2576,1.2739,1.3152,1.3648,1.4204,1.438,1.4896,1.5791,1.6381,1.706,1.7812,1.7195,1.6368,1.535,1.4726,1.4048,1.3383,1.3397,1.3492,1.3614,1.3464,0.0,0.0,0.0,0.0,0.0,0.0,0.0,0.0,0.0,0.0,0.0,0.0,0.0,1.5411,1.535,1.514,1.5106,1.594,1.6103,1.6137,1.6564,1.63,1.6144,1.6944,1.6781,0.0,1.7541,0.0,0.0,0.0,1.9624,2.1197,2.25,2.4033,2.5335,0.0,0.0,0.0,0.0,0.0,0.0,0.0,0.0,0.0,0.0,0.0,0.0,2.6834,2.6536,2.6237,2.5939,2.5796,2.564,2.5477,2.5335,2.5335,2.5477,2.5301,2.5233,2.5233,2.5091,2.4948,2.4792,2.465,2.4582,2.4548,2.4263,2.4209,2.4311,2.4175,2.4121,2.4121,2.4121,2.4121,2.4121,0.0,0.0,0.0,0.0,0.0,0.0,0.0,0.0,0.0,0.0,0.0,0.0,0.0,0.0,0.0,0.0,0.0,0.0,0.0,1.2589,1.2752,1.2996,1.3526,1.4014,1.4421,1.5031,1.5784,1.6686,1.767,1.8091,1.7989,1.7202,1.6279,1.5242,1.4543,1.4082,1.3804,1.362,1.3736,1.4007,1.3573,1.3492,0.0,0.0,0.0,0.0,0.0,0.0,0.0,0.0,1.4692,1.5106,1.4814,1.5228,1.5737,1.5276,1.5059,1.5045,1.5384,1.5771,1.6191,1.6639,1.6924,0.0,0.0,1.8036,1.8355,1.8993,1.9305,0.0,0.0,0.0,2.2466,2.3571,2.4894,2.6061,0.0,0.0,0.0,0.0,0.0,0.0,0.0,0.0,0.0,0.0,0.0,0.0,0.0,2.6291,2.6027,2.5905,2.5674,2.5477,2.5321,2.5267,2.5159,2.5036,2.5091,2.5111,2.5091,2.4948,2.4847,2.4792,2.4738,2.4596,2.4419,2.4406,2.4317,2.4209,2.4141,2.4121,2.4121,2.4121,2.4121,2.4121,0.0,0.0,0.0,0.0,0.0,0.0,0.0,0.0,0.0,0.0,0.0,0.0,0.0,0.0,0.0,0.0,0.0,0.0,1.2508,1.2691,1.2895,1.3098,1.3729,1.4278,1.4713,1.5696,1.6558,1.7263,1.8511,1.8776,1.8077,1.727,1.6381,1.5438,1.4733,1.4421,1.4401,1.4055,1.4082,1.4319,1.3763,1.3634,0.0,0.0,0.0,0.0,0.0,0.0,0.0,0.0,1.4631,1.5038,1.4903,1.5357,1.5859,1.5445,1.5289,1.5221,1.5079,1.5445,1.5974,1.6429,0.0,0.0,1.8796,1.9305,1.9834,2.056,2.077,0.0,0.0,0.0,0.0,0.0,0.0,0.0,0.0,0.0,0.0,0.0,0.0,0.0,0.0,0.0,0.0,0.0,0.0,0.0,0.0,2.6115,2.5864,0.0,2.5518,2.5287,2.5091,2.5091,2.4982,2.4792,2.4847,2.488,2.488,2.4813,2.4738,2.465,2.465,2.4507,2.4277,2.4385,2.4297,2.4121,2.4066,2.4087,2.4121,2.4121,2.4121,2.4121,0.0,0.0,0.0,0.0,0.0,0.0,0.0,0.0,0.0,0.0,0.0,0.0,0.0,0.0,0.0,0.0,0.0,0.0,1.2515,1.2793,1.2963,1.2963,1.3675,1.4421,1.516,1.6361,1.7127,1.7433,1.8776,1.8972,1.8077,1.7467,1.6788,1.6049,1.5452,1.5187,1.5153,1.4706,1.4516,1.4475,1.4021,1.3933,1.4041,0.0,0.0,0.0,0.0,0.0,0.0,0.0,1.4543,1.4516,1.5696,1.5879,1.5703,1.5995,1.5967,1.5757,1.5303,1.5296,1.5527,1.5974,0.0,0.0,1.9963,2.0451,2.0933,2.2289,0.0,2.195,0.0,0.0,0.0,0.0,0.0,0.0,0.0,0.0,0.0,0.0,0.0,0.0,0.0,0.0,0.0,0.0,0.0,0.0,0.0,2.6061,2.5762,0.0,2.5301,2.5091,2.4792,2.4792,2.4792,2.4792,2.4636,2.4562,2.4562,2.4724,2.4629,2.4351,2.4351,2.4263,2.4121,2.4121,2.4121,2.41,2.3944,2.3978,2.4121,2.4121,2.4121,2.4121,0.0,0.0,0.0,0.0,0.0,0.0,0.0,0.0,0.0,0.0,0.0,0.0,0.0,0.0,0.0,0.0,0.0,0.0,1.2827,1.3003,1.3159,1.3268,1.3885,1.4333,1.4557,1.594,1.7216,1.8355,1.8762,1.8498,1.7609,1.7005,1.6381,1.5764,1.5689,1.5479,1.516,1.4821,1.4611,1.4489,1.4258,1.4061,1.3912,0.0,0.0,0.0,0.0,0.0,0.0,0.0,0.0,0.0,1.5187,1.5744,1.6198,1.5866,1.5811,1.573,1.5181,1.5452,0.0,1.6578,0.0,0.0,0.0,2.1143,0.0,0.0,2.3381,2.3273,0.0,0.0,0.0,0.0,0.0,0.0,0.0,0.0,0.0,0.0,0.0,0.0,0.0,0.0,0.0,0.0,0.0,0.0,0.0,2.5654,0.0,0.0,2.5003,2.4826,2.4636,2.4636,2.4582,2.4473,2.4548,2.4616,2.4724,2.4562,2.444,2.4351,2.4351,2.4209,2.3965,2.3965,2.4012,2.4121,2.4066,2.4087,2.4121,2.4121,2.4121,2.4121,0.0,0.0,0.0,0.0,0.0,0.0,0.0,0.0,0.0,0.0,0.0,0.0,0.0,0.0,0.0,0.0,0.0,0.0,0.0,1.3152,1.3302,1.3397,1.3858,1.4312,1.4733,1.6083,1.7087,1.7704,1.8111,1.786,1.6978,1.691,1.6653,1.6273,1.6659,1.6483,1.5879,1.5642,1.5282,1.4862,1.4774,1.4557,1.4299,0.0,0.0,0.0,0.0,0.0,0.0,0.0,0.0,0.0,1.4916,1.5398,1.5872,1.5689,1.5615,1.5547,1.5371,1.5737,0.0,1.7433,1.8728,2.0139,2.1638,0.0,0.0,0.0,0.0,2.4087,0.0,0.0,0.0,0.0,0.0,0.0,0.0,0.0,0.0,0.0,0.0,0.0,0.0,0.0,0.0,0.0,0.0,0.0,0.0,2.5443,0.0,0.0,2.488,2.4684,2.4473,2.4473,2.444,2.4351,2.4372,2.4473,2.4616,2.444,2.4311,2.4263,2.4263,2.4155,2.3978,2.391,2.3978,2.4121,2.4053,2.4066,2.4121,2.4121,2.4121,2.4121,0.0,0.0,0.0,0.0,0.0,0.0,0.0,0.0,0.0,0.0,0.0,0.0,0.0,0.0,0.0,0.0,0.0,0.0,0.0,1.3268,1.3424,1.3437,1.3777,1.4428,1.5432,1.6503,1.6707,1.6001,1.7012,1.7087,1.6307,1.7039,1.7324,1.7263,1.7968,1.7772,1.6924,1.6714,1.6123,1.533,1.5391,1.5228,1.495,1.4977,0.0,0.0,0.0,0.0,0.0,0.0,0.0,0.0,1.4828,1.4977,1.5065,1.5466,1.5411,1.5316,1.5737,1.6117,1.6788,1.8443,1.9535,0.0,2.25,2.368,2.4541,2.5057,0.0,2.4541,2.4806,0.0,0.0,0.0,0.0,0.0,0.0,0.0,0.0,0.0,0.0,0.0,0.0,0.0,0.0,0.0,0.0,0.0,0.0,2.5335,0.0,2.4969,2.4826,2.4616,2.4331,2.4331,2.4331,0.0,2.4189,2.4189,2.4331,2.4331,2.4243,2.4121,2.41,2.41,2.41,2.3965,2.3978,2.41,2.3965,2.3999,2.4121,2.4121,2.4121,2.4121,0.0,0.0,0.0,0.0,0.0,0.0,0.0,0.0,0.0,0.0,0.0,0.0,0.0,0.0,0.0,0.0,0.0,0.0,0.0,1.3478,1.3627,1.3743,1.4482,1.5167,1.5744,1.59,1.5778,1.5377,1.6076,1.632,1.6144,1.6781,1.7243,1.7561,1.7846,1.746,1.6578,1.5961,1.5316,1.4746,1.5221,1.516,1.4814,1.5045,1.4835,0.0,0.0,0.0,0.0,0.0,0.0,0.0,1.4828,1.5045,1.5133,1.512,1.5316,1.5588,1.5798,1.6415,1.7426,1.9183,2.1177,2.292,2.3802,2.4365,2.4704,2.4704,2.5077,2.5389,2.5321,0.0,0.0,0.0,0.0,0.0,0.0,0.0,0.0,0.0,0.0,0.0,0.0,0.0,0.0,0.0,0.0,0.0,2.5159,2.488,2.4636,2.4494,2.4453,2.4351,2.4175,2.4175,2.4175,0.0,2.4141,2.4141,2.4175,2.4175,2.4155,2.4121,2.3999,2.4012,2.41,2.3965,2.3978,2.4121,2.4087,2.4087,2.4121,2.4121,2.4121,2.41,0.0,0.0,0.0,0.0,0.0,0.0,0.0,0.0,0.0,0.0,0.0,0.0,0.0,0.0,0.0,0.0,0.0,0.0,0.0,0.0,1.3756,1.4048,1.4855,1.5269,1.5215,1.535,1.5201,1.476,1.4997,1.5337,1.5778,1.6449,1.708,1.7663,1.8023,1.7561,1.6503,1.6185,1.5662,1.5099,1.5628,1.5574,1.5194,1.5418,1.5045,1.438,1.4143,0.0,0.0,0.0,0.0,0.0,0.0,0.0,1.4787,1.493,1.5133,1.5479,1.6198,1.71,1.8375,2.0594,2.2479,2.3877,2.4263,2.4582,2.4792,2.4792,2.5213,2.5586,2.5566,0.0,0.0,0.0,0.0,0.0,0.0,0.0,0.0,0.0,0.0,0.0,0.0,0.0,0.0,0.0,0.0,2.4948,2.4813,2.465,2.4494,2.4351,2.4351,2.4277,2.4121,2.4121,2.4121,2.4121,2.4121,2.4121,2.4121,2.4121,2.4121,2.4121,2.4033,2.4053,2.4121,2.4033,2.4053,2.4121,2.4121,2.4121,2.4121,2.4121,2.4121,2.41,0.0,0.0,0.0,0.0,0.0,0.0,0.0,0.0,0.0,0.0,0.0,0.0,0.0,0.0,0.0,0.0,0.0,0.0,0.0,0.0,0.0,1.4394,1.5004,1.514,1.4713,1.497,1.4882,1.4414,1.4183,1.4584,1.5581,1.6246,1.6992,1.7792,1.8199,1.7704,1.6558,1.6503,1.6076,1.5479,1.5906,1.5839,1.5499,1.5649,1.5133,1.4333,1.4306,0.0,0.0,0.0,0.0,0.0,0.0,0.0,1.4373,1.4746,1.4889,1.5201,1.6449,1.7806,1.9481,2.1971,2.3361,2.4175,2.4351,2.4596,2.4826,2.4982,2.5233,2.5464,2.5586,2.585,0.0,0.0,0.0,0.0,0.0,0.0,0.0,0.0,0.0,0.0,0.0,0.0,0.0,0.0,0.0,2.4792,2.4548,2.4507,2.444,2.4311,2.4311,2.4243,2.4087,2.4087,2.4066,2.4053,2.4053,2.4053,2.4087,2.4053,2.4066,2.4121,2.4121,2.4121,2.4121,2.4121,2.4121,2.4121,2.4087,2.4087,2.4087,2.4053,2.4053,2.4053,0.0,0.0,0.0,0.0,0.0,0.0,0.0,0.0,0.0,0.0,0.0,0.0,0.0,0.0,0.0,0.0,0.0,0.0,1.3431,0.0,0.0,1.4848,1.4977,1.5174,1.5479,1.5038,1.4828,1.4882,1.434,1.4801,0.0,0.0,1.7256,1.8213,1.7914,1.7378,1.6659,1.5771,1.5113,1.4692,1.5018,1.5031,1.4875,1.5031,1.4835,1.4468,1.4346,0.0,0.0,0.0,1.4299,0.0,0.0,0.0,1.4312,1.4373,1.457,1.495,1.5778,1.8091,2.0661,2.2344,2.3436,2.4189,2.4473,2.467,2.4826,0.0,2.5145,2.5267,2.5287,2.5552,2.5796,0.0,0.0,0.0,0.0,0.0,0.0,0.0,0.0,0.0,0.0,0.0,0.0,0.0,2.4582,2.4419,2.4385,2.4243,2.4175,2.4155,2.4155,2.4087,2.3931,2.3931,2.3856,2.3734,2.3734,2.3802,2.391,2.3802,2.3877,2.4121,2.4121,2.4121,2.4121,2.4121,2.4121,2.41,2.3978,2.3931,2.391,2.3788,2.3734,2.3734,0.0,0.0,0.0,0.0,0.0,0.0,0.0,0.0,0.0,0.0,0.0,0.0,0.0,0.0,0.0,1.3641,1.3498,1.3437,1.3526,1.3722,1.4068,1.4577,1.4753,1.4896,1.5004,1.4672,1.4529,1.4597,1.4156,0.0,0.0,1.6686,1.7351,0.0,0.0,1.7236,1.6693,1.5811,1.5228,1.4903,1.5031,1.5153,1.5221,1.5038,1.4889,1.4726,1.4414,0.0,0.0,0.0,0.0,1.4312,1.4394,0.0,0.0,0.0,1.457,1.5269,1.7114,1.8993,2.0824,2.25,2.3327,2.3836,2.4229,2.4494,2.4704,2.486,2.5003,2.5145,2.5213,2.541,2.5586,2.564,2.5708,0.0,0.0,0.0,0.0,0.0,0.0,0.0,0.0,0.0,0.0,0.0,2.4419,2.4311,2.4229,2.4155,2.4087,2.3999,2.3999,2.3924,2.3768,2.368,2.3571,2.3415,2.3415,2.3449,2.3524,2.3449,2.3592,2.3877,2.3788,2.3788,2.3856,2.368,2.366,2.3734,2.366,2.3592,2.3524,2.3646,2.3626,2.3558,0.0,0.0,0.0,0.0,0.0,0.0,0.0,0.0,0.0,0.0,0.0,0.0,0.0,0.0,0.0,0.0,1.3526,1.3464,1.362,1.3763,1.396,1.4231,1.4489,1.4577,1.4462,1.4278,1.4204,1.4245,0.0,0.0,1.6863,1.7019,1.7806,0.0,1.8158,1.7487,0.0,0.0,0.0,0.0,1.5208,1.5262,1.5452,1.5262,1.5174,1.5086,1.4672,0.0,0.0,0.0,0.0,0.0,0.0,0.0,0.0,0.0,0.0,1.5316,1.767,1.8993,2.0139,2.1991,2.2832,2.3361,2.3924,2.4297,2.4548,2.4704,2.486,2.5003,2.5111,2.5267,2.541,2.541,2.5443,2.5464,2.5464,0.0,0.0,0.0,0.0,0.0,0.0,0.0,0.0,0.0,2.4297,2.4243,2.4121,2.4087,2.4012,2.389,2.3856,2.3754,2.3558,2.3381,2.3259,2.3219,2.3151,2.3151,2.3219,2.3185,2.3293,2.3503,2.3436,2.3483,2.3612,2.3327,2.3307,2.3449,2.3361,2.3273,2.3185,2.3381,2.3402,2.3361,0.0,0.0,0.0,0.0,0.0,0.0,0.0,0.0,0.0,0.0,0.0,0.0,1.341,1.341,1.3417,1.3424,1.341,1.3464,1.362,1.3763,1.3912,1.4075,1.4238,0.0,1.4312,1.4014,1.3939,1.4082,0.0,0.0,1.7182,1.7758,1.8959,2.0594,1.9271,1.8355,1.7738,0.0,0.0,0.0,0.0,1.4991,1.5065,1.5601,0.0,0.0,0.0,0.0,0.0,0.0,0.0,0.0,0.0,0.0,0.0,0.0,0.0,0.0,1.6062,1.7202,1.8464,2.0404,2.176,2.2832,2.37,2.4141,2.4406,2.4548,2.4704,2.4806,2.4813,2.5057,2.5247,2.5247,2.5376,2.5464,2.5464,2.5213,2.5023,0.0,0.0,0.0,0.0,0.0,0.0,0.0,2.4141,2.4121,2.4121,2.3978,2.389,2.389,2.3768,2.3537,2.3259,2.2961,2.2961,2.3219,2.294,2.2961,2.3219,2.3083,2.3029,2.3049,2.3185,2.3327,2.3449,2.3293,2.3307,2.3415,2.3151,2.3029,2.3008,2.2873,2.292,2.3049,0.0,0.0,0.0,0.0,0.0,0.0,0.0,0.0,0.0,0.0,0.0,0.0,0.0,1.3682,1.3682,1.3682,1.36,1.3573,1.3627,1.3763,1.3865,1.3919,1.4163,1.4299,1.4299,1.4,1.3919,0.0,0.0,1.5099,1.6775,1.748,1.8565,1.9875,1.9115,1.864,1.8342,1.6707,0.0,0.0,0.0,0.0,0.0,0.0,0.0,0.0,0.0,0.0,0.0,0.0,0.0,0.0,0.0,0.0,0.0,0.0,1.4502,1.4943,1.5906,1.6856,1.7948,1.9522,2.0804,2.1882,2.2588,2.3436,2.4066,2.4121,2.4406,2.465,2.465,2.4738,2.4826,2.4935,2.4914,2.488,2.488,2.4718,2.4596,2.4596,0.0,0.0,0.0,0.0,0.0,0.0,0.0,2.3931,2.3843,2.3788,2.3714,2.3612,2.347,2.3185,2.2798,2.2784,2.2784,2.2798,2.2784,2.2832,2.294,2.2886,2.2873,2.2873,2.2818,2.294,2.3151,2.3008,2.2974,2.3008,2.2907,2.2798,2.273,2.2764,2.2818,2.2886,0.0,0.0,0.0,0.0,0.0,0.0,0.0,0.0,0.0,0.0,0.0,0.0,0.0,0.0,1.3838,1.3838,1.3756,1.3682,1.3634,1.381,1.3899,1.3844,1.4136,1.4299,1.4299,1.4143,1.4041,1.3994,1.4299,1.5106,1.6395,1.7297,1.8355,1.9481,1.8884,1.883,0.0,0.0,0.0,1.6551,0.0,0.0,1.6246,0.0,0.0,0.0,0.0,0.0,0.0,0.0,0.0,0.0,0.0,0.0,0.0,0.0,0.0,1.4936,1.5486,1.6246,1.7263,1.8816,1.9766,2.0648,2.1896,2.273,2.3314,2.3612,2.4033,2.4372,2.4473,2.446,2.4473,2.4684,2.4636,2.4562,2.4562,2.444,2.4351,2.4351,2.4209,0.0,0.0,0.0,0.0,0.0,0.0,0.0,2.368,2.3578,2.3436,2.3239,2.3083,2.2852,2.2554,2.2656,2.2676,2.2622,2.2676,2.2764,2.2852,2.2798,2.2818,2.2852,2.2798,2.2873,2.2995,2.2784,2.2764,2.2852,2.2798,2.2696,2.2574,2.273,2.2784,2.2798,0.0,0.0,0.0,0.0,0.0,0.0,0.0,0.0,0.0,0.0,0.0,0.0,0.0,0.0,0.0,1.3865,1.3865,1.3804,1.3654,1.3912,1.4007,1.3858,1.4136,1.4299,1.4299,1.4428,1.4285,1.3844,1.4726,1.5466,1.6083,1.727,1.8464,1.9576,1.8728,1.8972,1.9997,0.0,1.8586,1.8023,0.0,1.6673,1.6693,0.0,0.0,0.0,1.7507,1.7168,0.0,0.0,0.0,0.0,0.0,0.0,0.0,0.0,0.0,0.0,0.0,0.0,0.0,1.8199,1.8586,1.9149,2.1652,2.2004,2.2079,2.2995,2.3524,2.3944,2.4277,2.4229,2.4209,2.4507,2.4548,2.4548,2.4548,2.444,2.4351,2.4331,2.4209,2.4053,2.389,0.0,0.0,0.0,2.3666,2.3666,2.3666,2.3361,2.3083,2.2798,2.2642,2.2554,2.2554,2.2554,2.2622,2.2784,2.2622,2.271,2.3008,2.2852,2.2873,2.3008,2.3151,2.313,2.2995,2.2696,2.2744,2.2995,2.2852,2.2696,2.2588,2.273,2.2784,2.2818,0.0,0.0,0.0,0.0,0.0,0.0,0.0,0.0,0.0,0.0,0.0,0.0,1.4007,1.4299,1.4489,1.4489,1.4489,1.434,1.3973,1.4027,1.4055,1.4007,1.4197,1.4299,1.4299,1.4231,1.4136,1.4007,1.4367,1.4848,1.5452,1.6435,1.7365,1.8233,1.862,1.8816,1.8728,1.7317,0.0,0.0,1.6802,1.7019,0.0,0.0,0.0,0.0,0.0,1.807,0.0,0.0,1.7066,1.6273,0.0,0.0,0.0,0.0,0.0,0.0,1.4699,0.0,0.0,0.0,0.0,0.0,1.8993,1.9698,2.0492,2.1828,2.2378,2.2886,2.3843,2.4066,2.4155,2.4229,2.4243,2.4243,2.4243,2.4209,2.4141,2.4033,2.3978,2.389,2.3754,0.0,0.0,0.0,2.3347,2.3259,2.3049,2.2961,2.2873,2.2784,2.2642,2.2554,2.2554,2.2554,2.2622,2.2784,2.2744,2.2818,2.3008,2.2852,2.2798,2.2852,2.2886,2.294,2.3008,2.3029,2.3029,2.3008,2.2961,2.292,2.2873,2.2798,2.2852,2.2961,0.0,0.0,0.0,0.0,0.0,0.0,0.0,0.0,0.0,0.0,0.0,0.0,1.4428,1.4957,1.5221,1.5038,1.4909,1.4672,1.4278,1.4143,1.4075,1.4075,1.4156,1.4265,1.4387,1.4367,1.4292,1.4163,1.438,1.4631,1.4923,1.5825,1.6476,1.6931,1.7582,1.7758,0.0,0.0,0.0,0.0,1.7426,0.0,0.0,1.8674,1.8905,0.0,0.0,0.0,1.8938,1.8742,1.8057,0.0,0.0,0.0,0.0,0.0,0.0,0.0,0.0,0.0,0.0,0.0,0.0,0.0,1.8057,1.864,1.9325,2.0967,2.1638,2.2215,2.3151,2.3503,2.37,2.3822,2.3836,2.389,2.4012,2.4033,2.3965,2.3822,2.3802,2.3714,2.3503,2.3537,2.3436,2.3063,2.3097,2.3008,2.2696,2.2744,2.2744,2.2696,2.2608,2.252,2.2466,2.2466,2.2479,2.25,2.2567,2.2676,2.2818,2.273,2.273,2.2784,2.271,2.2784,2.292,2.294,2.3008,2.3097,2.3029,2.3008,2.3008,2.2974,2.2995,2.3008,0.0,0.0,0.0,0.0,0.0,0.0,0.0,0.0,0.0,0.0,1.4475,1.4679,1.5167,1.5778,1.5995,1.5594,1.5255,1.4923,1.4584,1.4285,1.4116,1.4095,1.4129,1.4258,1.4509,1.4679,1.4618,1.4326,1.4584,1.4672,1.4604,1.5404,0.0,0.0,0.0,0.0,0.0,0.0,0.0,1.765,1.8301,1.864,0.0,0.0,2.0098,0.0,2.0207,2.0153,1.9976,1.9481,1.8654,0.0,0.0,0.0,0.0,0.0,1.5099,0.0,0.0,0.0,0.0,0.0,0.0,0.0,1.7935,1.8179,1.8464,2.0153,2.098,2.1604,2.231,2.2696,2.2974,2.3185,2.3327,2.3524,2.3843,2.3877,2.3802,2.3646,2.3626,2.3503,2.3205,2.3293,2.3205,2.2784,2.2873,2.2818,2.2534,2.2656,2.2676,2.2554,2.252,2.2445,2.2337,2.2303,2.2235,2.2113,2.2249,2.2391,2.2534,2.2534,2.2608,2.273,2.2608,2.2622,2.2744,2.2608,2.2798,2.3185,2.3063,2.3029,2.3049,2.3171,2.313,2.3049,0.0,0.0,0.0,0.0,0.0,0.0,0.0,0.0,0.0,1.535,1.5588,1.5995,1.6686,1.6673,1.6585,1.6497,1.5995,1.5452,1.4916,1.4597,1.4373,1.4258,1.4482,1.4577,1.4516,1.478,1.4774,1.4468,1.4529,1.4726,0.0,1.5235,0.0,0.0,0.0,0.0,0.0,0.0,0.0,1.7283,1.7317,0.0,1.9997,2.0207,2.0648,2.1143,2.1177,2.1157,2.1034,0.0,1.9569,1.8687,0.0,0.0,0.0,0.0,0.0,0.0,0.0,0.0,0.0,0.0,0.0,0.0,1.6001,1.6653,1.7636,1.8599,1.9271,2.0085,2.1408,2.2004,2.2181,2.1882,2.2554,2.3273,2.3822,2.3788,2.3626,2.3347,2.3307,2.3185,2.2907,2.2886,2.2818,2.2608,2.252,2.2445,2.2391,2.2411,2.2466,2.2554,2.2323,2.2235,2.2337,2.2093,2.2025,2.2113,2.2147,2.2235,2.2378,2.2378,2.2391,2.2425,2.252,2.2574,2.2588,2.2574,2.2744,2.3049,2.3029,2.3083,2.3185,2.3205,2.3205,2.3185,0.0,0.0,0.0,0.0,0.0,0.0,0.0,0.0,1.5798,1.5954,1.6558,1.7026,1.7175,1.7324,1.727,1.6897,1.6313,1.5778,1.5337,1.4808,1.4482,1.4407,1.455,1.4692,1.4841,1.493,1.493,1.4848,1.4618,1.4624,1.4848,1.5004,0.0,0.0,0.0,0.0,0.0,0.0,1.5995,1.6842,1.7901,0.0,2.0485,2.0933,2.1333,2.1652,2.1652,2.1652,2.1496,2.0451,1.9963,0.0,0.0,1.7528,1.7317,0.0,1.6178,1.6313,0.0,0.0,0.0,1.6076,0.0,0.0,0.0,1.6368,1.6937,1.7989,1.8321,1.8796,1.9997,2.0349,2.0594,2.1034,2.155,2.2201,2.3097,2.3293,2.3293,2.313,2.3049,2.292,2.2696,2.273,2.271,2.2574,2.2425,2.2337,2.2337,2.2411,2.2479,2.2554,2.2344,2.2215,2.2235,2.1937,2.1774,2.1774,2.1937,2.2038,2.2113,2.2269,2.2337,2.2337,2.2255,2.2303,2.2432,2.2289,2.2445,2.2784,2.2873,2.2995,2.313,2.3205,2.3219,2.3219,0.0,0.0,0.0,0.0,0.0,0.0,0.0,0.0,1.6402,1.6551,1.7324,1.7772,1.7561,1.7846,1.786,1.7405,1.6605,1.6069,0.0,0.0,1.4618,1.4557,1.4611,1.478,1.5092,1.5038,1.5052,1.514,1.4719,1.4557,1.4645,1.4835,1.4841,0.0,1.4855,1.4903,0.0,0.0,0.0,1.6822,0.0,1.98,2.0275,2.1374,2.1774,2.1774,2.1991,2.2038,2.1828,2.0627,0.0,2.0207,1.8531,1.8321,0.0,0.0,0.0,0.0,0.0,0.0,0.0,0.0,0.0,1.6354,0.0,0.0,0.0,1.7555,1.765,1.7806,1.8586,1.8654,1.8938,1.9997,2.0363,2.0858,2.1848,2.2255,2.2554,2.2798,2.2656,2.25,2.2432,2.2466,2.2479,2.2466,2.2255,2.2181,2.2289,2.2411,2.2486,2.252,2.2378,2.2215,2.2072,2.1815,2.1597,2.1441,2.1706,2.1862,2.1903,2.216,2.2289,2.2289,2.2038,2.2059,2.2269,2.2025,2.2167,2.2534,2.2676,2.2852,2.3029,2.313,2.3205,2.3219,1.3607,1.3885,0.0,0.0,1.5147,1.573,1.6015,1.6307,1.6741,1.7412,1.7704,1.8091,0.0,0.0,0.0,0.0,0.0,0.0,1.6985,0.0,1.4991,1.4726,1.4964,1.5004,1.4794,1.5031,1.5106,1.4997,1.4672,1.4719,1.5099,1.4875,1.4964,0.0,1.493,0.0,0.0,0.0,1.6185,0.0,1.8884,1.9061,0.0,2.079,2.1408,2.1408,2.2344,2.2588,2.2378,0.0,2.1299,2.0892,0.0,1.9271,0.0,0.0,0.0,0.0,0.0,0.0,0.0,0.0,1.7772,0.0,0.0,0.0,1.7127,1.6619,0.0,1.7358,1.7738,0.0,0.0,1.8002,1.8884,1.9678,1.9942,2.0241,2.0878,2.2072,2.1848,2.1686,2.1937,2.1618,2.1597,2.2127,2.1652,2.1564,2.2113,2.2147,2.2215,2.2357,2.2215,2.2059,2.1916,2.176,2.1597,2.1441,2.1618,2.176,2.1882,2.2059,2.2127,2.2127,2.2093,2.2113,2.2127,2.2093,2.2201,2.2378,2.252,2.2764,2.3008,2.3029,2.3117,2.3219,1.3627,1.3939,0.0,0.0,1.512,1.5669,1.6144,1.691,1.7575,1.7982,1.8464,1.8918,0.0,0.0,0.0,0.0,0.0,0.0,0.0,0.0,1.5879,1.5404,1.5588,1.5567,1.5269,1.5384,1.5289,1.497,1.4658,1.4611,1.4787,1.4665,1.4848,0.0,1.5079,0.0,1.6049,0.0,1.6483,0.0,0.0,0.0,0.0,2.1068,2.2093,2.2181,2.2622,2.2744,2.2534,0.0,2.1319,0.0,0.0,0.0,0.0,0.0,0.0,0.0,0.0,0.0,0.0,0.0,0.0,0.0,0.0,0.0,1.6497,0.0,0.0,0.0,0.0,0.0,0.0,0.0,1.8145,0.0,1.9203,1.9149,1.9624,2.1157,0.0,0.0,2.0933,2.1055,2.1231,2.1564,2.1285,2.1319,2.1828,2.1937,2.2093,2.2337,2.2201,2.2038,2.1882,2.174,2.1597,2.1441,2.1597,2.1706,2.176,2.1916,2.1971,2.1971,2.1903,2.1903,2.1971,2.1971,2.2072,2.2235,2.2466,2.2696,2.2907,2.3063,2.3171,2.3219,0.0,0.0,0.0,0.0,0.0,1.5703,1.6388,1.7195,1.786,0.0,0.0,0.0,1.9732,1.9535,0.0,0.0,0.0,1.8464,0.0,0.0,1.6646,0.0,0.0,0.0,0.0,0.0,1.5357,1.5031,1.4679,1.4597,1.4753,1.4679,1.4923,1.5432,0.0,1.5967,1.6775,0.0,0.0,1.7772,1.8993,1.94,1.9488,2.1496,2.25,2.2852,2.2886,2.2907,2.2744,2.1726,2.1509,0.0,2.0682,0.0,0.0,0.0,0.0,0.0,1.8531,0.0,0.0,0.0,0.0,0.0,0.0,0.0,0.0,0.0,0.0,0.0,0.0,0.0,0.0,0.0,0.0,1.8002,1.8606,1.8199,1.8423,0.0,0.0,0.0,0.0,2.0471,2.0702,2.1001,2.0702,2.077,2.1387,2.1597,2.1862,2.2201,2.2181,2.2079,2.1882,2.1774,2.1638,2.1441,2.155,2.1638,2.1672,2.1774,2.1828,2.1815,2.1726,2.176,2.1882,2.1882,2.2004,2.2201,2.2445,2.2622,2.2744,2.3049,2.3171,2.3171,1.3804,1.3966,0.0,0.0,0.0,0.0,0.0,0.0,0.0,0.0,0.0,0.0,0.0,0.0,0.0,0.0,0.0,1.9447,1.9576,0.0,1.7066,0.0,0.0,0.0,0.0,0.0,0.0,1.5174,1.4733,1.4808,1.5377,1.5092,1.535,1.6056,1.6205,1.6693,1.7419,1.786,1.8796,2.0031,2.0526,2.1564,2.2744,0.0,2.2113,2.3029,2.3151,0.0,0.0,2.25,2.2303,0.0,0.0,0.0,0.0,0.0,0.0,0.0,0.0,0.0,0.0,1.8301,0.0,0.0,0.0,0.0,1.7514,0.0,0.0,0.0,0.0,0.0,0.0,0.0,1.765,0.0,0.0,1.7134,1.7141,0.0,0.0,0.0,0.0,1.982,1.978,2.0505,1.9746,1.9712,2.0756,2.1068,2.1441,2.1882,2.2181,2.2181,2.1882,2.1882,2.1726,2.1441,2.1441,2.153,2.1672,2.1672,2.1672,2.1672,2.1672,2.176,2.1882,2.1882,2.2059,2.2337,2.25,2.2554,2.2608,2.2907,2.3008,2.3029,0.0,0.0,0.0,0.0,0.0,0.0,0.0,1.6998,0.0,0.0,0.0,0.0,0.0,0.0,2.1726,0.0,0.0,2.0858,2.0417,1.9644,0.0,0.0,0.0,1.7378,0.0,0.0,0.0,0.0,0.0,1.5262,1.556,1.5459,1.5757,1.6388,0.0,1.7419,0.0,0.0,0.0,0.0,0.0,2.1672,2.2974,0.0,0.0,2.3151,2.3205,2.3219,0.0,2.2764,2.25,2.2269,2.1916,2.1475,2.1055,2.0946,2.0845,0.0,0.0,0.0,2.0912,1.9305,0.0,0.0,0.0,0.0,0.0,0.0,0.0,0.0,0.0,0.0,1.8199,1.7846,1.7792,1.7602,0.0,1.6286,0.0,0.0,0.0,0.0,0.0,0.0,1.9128,1.9481,1.8952,1.9115,2.0261,2.0526,2.0926,2.1564,2.1794,2.1848,2.174,2.174,2.1686,2.1597,2.1496,2.153,2.1672,2.1564,2.1584,2.1672,2.1564,2.1652,2.1882,2.1882,2.2004,2.2215,2.2466,2.2554,2.2588,2.2907,2.3008,2.3029,1.4814,0.0,0.0,0.0,0.0,0.0,0.0,0.0,0.0,0.0,2.0295,0.0,2.2588,0.0,2.3029,0.0,2.2961,2.2235,2.1163,2.0858,0.0,1.9115,1.8918,0.0,0.0,0.0,0.0,0.0,0.0,1.6022,1.6117,1.6001,1.6212,1.6714,1.7317,1.8002,1.8742,1.9834,2.0349,0.0,0.0,2.2181,0.0,0.0,2.3185,2.3151,0.0,2.3185,2.3171,2.2886,2.2656,2.2466,2.2255,2.1828,2.1387,2.1374,2.1285,2.1123,2.0912,2.1211,0.0,0.0,1.959,0.0,1.7901,0.0,0.0,0.0,0.0,0.0,0.0,0.0,0.0,1.8409,1.8023,1.7378,0.0,1.5818,0.0,0.0,0.0,0.0,0.0,1.8124,1.8287,1.8498,1.8091,1.8267,0.0,0.0,2.0363,2.0946,2.1421,2.1652,2.1584,2.1638,2.1638,2.1584,2.155,2.1584,2.1672,2.1564,2.1597,2.174,2.1584,2.1686,2.1971,2.1971,2.2059,2.2215,2.2466,2.2554,2.2588,2.2907,2.3042,2.3097,0.0,0.0,0.0,0.0,1.5893,0.0,0.0,0.0,1.8864,0.0,2.1001,2.2201,2.3415,2.3802,2.4155,2.4582,2.4331,0.0,2.1903,2.1903,0.0,0.0,1.9481,1.9271,1.8674,0.0,0.0,0.0,0.0,0.0,1.7039,1.6707,1.6714,1.7039,1.7935,0.0,1.8674,2.0614,2.1618,2.1991,2.273,2.3097,2.3219,2.3219,0.0,2.3029,2.3029,2.3097,2.3171,2.2886,2.2784,2.273,2.2445,2.2235,2.2059,2.1774,2.1794,2.1774,2.1211,2.1265,2.1279,2.0404,0.0,0.0,0.0,0.0,2.0275,0.0,0.0,0.0,0.0,0.0,0.0,1.9203,1.8267,1.7026,1.5418,0.0,0.0,0.0,0.0,1.7073,1.8124,1.7589,1.7283,1.7548,1.7168,1.7195,0.0,0.0,1.9752,2.0085,2.1089,2.1584,2.1441,2.1584,2.1597,2.1455,2.1597,2.1672,2.1692,2.1686,2.176,2.1882,2.174,2.1848,2.2127,2.2113,2.2201,2.2357,2.25,2.2554,2.2608,2.2907,2.3097,2.3219,1.5418,1.5649,1.5825,0.0,1.5683,1.5893,0.0,0.0,0.0,0.0,2.2004,2.3327,2.4629,2.5036,2.5267,2.5389,2.5023,0.0,0.0,0.0,0.0,2.1726,2.1408,2.1233,2.1132,1.9983,0.0,1.9491,0.0,0.0,1.7968,1.7317,1.7121,1.7344,1.8253,1.8728,1.8972,2.0594,2.176,2.2588,2.2995,2.3185,0.0,0.0,2.3117,2.3171,2.3171,2.3117,2.3049,2.2974,2.2798,2.2608,2.252,2.2323,2.2093,2.2025,2.2025,2.2025,2.1862,2.1971,2.1971,2.1408,2.1021,2.0594,0.0,0.0,0.0,0.0,0.0,0.0,0.0,0.0,0.0,1.8409,1.7331,1.6347,0.0,0.0,0.0,1.5961,0.0,1.5839,1.6883,1.691,1.6754,1.6503,1.6273,1.6551,0.0,0.0,0.0,1.9908,2.0736,2.1265,2.1441,2.1475,2.1584,2.1774,2.1706,2.1794,2.1991,2.1882,2.1916,2.2038,2.1903,2.2004,2.2269,2.216,2.2269,2.25,2.2534,2.2622,2.2744,2.294,2.3097,2.3219,1.5683,0.0,0.0,1.6212,0.0,0.0,1.7534,0.0,0.0,2.1177,2.2534,0.0,2.4738,2.5464,2.5905,2.5973,2.5688,0.0,0.0,0.0,0.0,2.2798,2.284,2.2729,2.2118,2.1681,0.0,2.0211,0.0,0.0,1.8301,1.7548,1.7202,1.727,1.8233,1.8708,1.8905,2.0736,2.2004,2.2798,2.3029,0.0,0.0,2.313,2.3151,2.3219,2.3219,2.3171,2.3097,2.3029,2.2886,2.273,2.2588,2.2445,2.2289,2.2235,2.2215,2.2215,2.2215,2.2269,2.2289,2.2113,2.1862,2.1564,2.1089,2.1299,2.1455,0.0,0.0,0.0,0.0,0.0,0.0,0.0,0.0,0.0,0.0,0.0,0.0,0.0,1.5703,0.0,1.6008,1.6232,1.6171,1.5723,1.5974,0.0,0.0,0.0,0.0,1.9081,2.0329,2.1089,2.1245,2.1564,2.176,2.1794,2.1848,2.195,2.2113,2.2025,2.2059,2.2201,2.2038,2.2113,2.2337,2.2249,2.2303,2.2466,2.2534,2.273,2.2974,2.2995,2.3063,2.313,0.0,0.0,0.0,0.0,0.0,0.0,0.0,1.9379,0.0,2.1726,0.0,2.3978,2.4541,2.5566,2.6271,0.0,0.0,2.5654,2.4453,2.4813,2.4535,2.3334,2.4207,2.426,2.3105,2.3505,0.0,0.0,0.0,0.0,1.8267,1.7534,1.7141,1.708,1.807,1.862,1.8918,2.0967,2.2167,2.2744,2.294,2.3097,2.3219,2.3219,2.3219,2.3219,2.3219,2.3205,2.3171,2.3049,2.2995,2.292,2.2642,2.2554,2.252,2.2378,2.2337,2.2337,2.2357,2.2378,2.2411,2.2554,2.2588,2.252,2.2235,2.2269,2.2289,2.2004,2.1848,0.0,0.0,0.0,0.0,1.687,0.0,0.0,0.0,0.0,0.0,0.0,0.0,0.0,1.5594,1.5744,1.5662,1.5133,0.0,0.0,0.0,0.0,0.0,1.8179,1.9942,2.0946,2.1089,0.0,2.195,2.176,2.1971,2.2093,2.2113,2.2113,2.2181,2.2303,2.2181,2.2215,2.2337,2.2337,2.2357,2.2411,2.2534,2.2832,2.3185,2.3063,2.3008,2.3029,0.0,0.0,0.0,0.0,0.0,1.9345,2.075,2.1333,2.2025,2.3171,2.4582,0.0,2.5973,2.6413,2.6698,2.6712,2.6488,0.0,0.0,0.0,0.0,2.5599,2.6121,2.6341,2.6535,2.5053,2.3814,0.0,0.0,0.0,1.8111,1.7487,1.7249,1.7372,1.8057,1.904,2.0241,2.1143,0.0,2.2445,2.2852,2.3097,2.3219,2.3219,2.3219,2.3219,2.3219,2.3151,2.3042,2.3008,2.292,2.2784,2.2608,2.2554,2.252,2.2378,2.2337,2.2357,2.2479,2.252,2.2554,2.271,2.2744,2.2696,2.252,2.25,2.2466,2.2289,2.2235,2.1937,2.0946,0.0,0.0,0.0,0.0,0.0,0.0,0.0,0.0,0.0,0.0,1.6422,0.0,0.0,0.0,0.0,0.0,0.0,0.0,0.0,0.0,0.0,1.9698,0.0,0.0,0.0,2.1903,2.2215,2.2025,2.1991,2.2113,2.2113,2.2127,2.216,2.2249,2.2323,2.2337,2.2337,2.2479,2.271,2.273,2.2873,2.3042,2.3029,2.3008,2.3029,0.0,0.0,0.0,0.0,0.0,0.0,0.0,2.3097,0.0,2.389,2.467,2.5287,2.5518,2.6169,2.6576,2.6576,2.6699,2.6782,2.6545,2.7275,2.7323,2.6995,2.7608,0.0,2.7114,0.0,2.4912,2.2922,0.0,0.0,0.0,1.7277,1.6958,1.6985,1.767,1.885,2.0349,0.0,0.0,2.2269,2.3073,2.3375,2.3225,2.3793,2.3506,2.3219,2.3219,2.3185,2.3117,2.3029,2.2961,2.2852,2.2622,2.2554,2.252,2.2378,2.2337,2.2357,2.2432,2.2445,2.2479,2.2622,2.273,2.2764,2.2696,2.273,2.273,2.25,2.2445,2.2079,2.0878,1.9569,0.0,0.0,0.0,0.0,0.0,0.0,0.0,0.0,0.0,0.0,0.0,0.0,0.0,0.0,0.0,0.0,0.0,0.0,0.0,0.0,0.0,0.0,0.0,0.0,0.0,2.1991,2.2004,2.2038,2.2113,2.2113,2.2147,2.2235,2.2303,2.2337,2.2337,2.2337,2.2466,2.2656,2.2588,2.2744,2.2995,2.292,2.2995,2.313,0.0,1.8355,0.0,0.0,2.0682,0.0,0.0,2.4426,2.5477,2.4616,2.512,2.5339,2.5463,2.6253,2.7102,2.7067,2.7556,2.7686,2.7441,2.7961,2.8415,2.8136,2.8529,2.8503,2.7465,2.7595,2.6125,0.0,0.0,0.0,0.0,1.7134,1.6781,0.0,0.0,0.0,0.0,0.0,2.136,2.2483,2.3334,2.3654,2.3499,2.408,2.38,2.3225,2.3513,2.3225,2.3185,2.3029,2.2974,2.2961,2.2642,2.2554,2.252,2.2378,2.2337,2.2357,2.2411,2.2425,2.2479,2.2656,2.2764,2.2818,2.2784,2.2852,2.2832,2.2567,2.2432,2.2045,2.0967,2.0051,0.0,0.0,0.0,0.0,0.0,0.0,0.0,0.0,0.0,0.0,1.571,0.0,0.0,0.0,0.0,0.0,0.0,0.0,0.0,0.0,0.0,2.0031,2.077,0.0,2.2072,0.0,2.1991,2.2038,2.2025,2.2038,2.2127,2.2249,2.2303,2.2337,2.2337,2.2337,2.2432,2.2534,2.2391,2.2622,2.2995,2.2798,2.292,2.3171,0.0,0.0,0.0,0.0,0.0,0.0,0.0,2.5496,2.6816,2.5939,2.6851,2.7705,2.772,2.8591,2.9015,2.886,2.9016,2.8919,2.8573,2.9103,2.9477,2.9114,2.96,2.9532,2.9315,2.8417,2.6807,0.0,0.0,0.0,0.0,0.0,0.0,0.0,0.0,0.0,0.0,2.0756,2.2146,2.3463,2.3094,2.3668,2.4367,2.4374,2.38,2.3225,2.4094,2.38,2.3185,2.2907,2.2886,2.2961,2.2642,2.2554,2.252,2.2378,2.2337,2.2391,2.2676,2.2744,2.2798,2.3083,2.3083,2.2961,2.2818,2.2696,2.2554,2.2391,2.2038,2.155,2.0899,2.0471,1.9908,0.0,0.0,0.0,0.0,0.0,0.0,0.0,0.0,0.0,0.0,1.6266,0.0,0.0,1.5662,0.0,0.0,0.0,0.0,1.7222,0.0,1.9624,2.0756,2.1408,2.1916,2.2269,2.2025,2.1828,2.1726,2.1848,2.1916,2.1937,2.2215,2.2337,2.2337,2.2337,2.2432,2.2534,2.2391,2.2622,2.2974,2.2676,2.2764,2.3008,0.0,0.0,0.0,0.0,0.0,0.0,0.0,2.6366,2.7414,2.7988,2.7898,2.8363,2.8693,2.8663,2.8612,2.9195,2.969,2.9931,2.9606,3.0383,3.0498,3.0268,3.0288,3.0204,2.9692,2.8758,2.729,0.0,0.0,0.0,0.0,0.0,0.0,0.0,0.0,2.0375,2.1485,2.2212,2.3033,2.3612,2.4663,2.4889,2.4374,2.5521,2.5227,2.4668,2.4948,2.494,2.4632,2.4402,2.3742,2.2818,2.252,2.2432,2.2411,2.2889,2.2606,2.2378,2.3147,2.2984,2.2818,2.292,2.3049,2.3083,2.2832,2.273,2.2642,2.25,2.2255,2.1937,2.1509,2.0892,2.0383,0.0,0.0,0.0,0.0,0.0,0.0,0.0,0.0,0.0,0.0,0.0,0.0,0.0,0.0,0.0,0.0,0.0,0.0,1.7032,0.0,1.9257,2.0363,2.1231,2.1815,2.2059,2.1937,2.1903,2.1937,2.1991,2.2072,2.216,2.2289,2.2337,2.2337,2.2337,2.2378,2.2411,2.2357,2.25,2.273,2.2608,2.2696,2.2873,2.2553,0.0,2.3011,0.0,2.4929,2.604,2.6908,2.7847,2.861,2.9493,2.9015,2.9103,2.9772,2.9352,2.924,2.9782,3.0318,3.0556,3.0509,3.11,3.1244,3.0951,3.0781,0.0,2.9757,2.9059,2.7804,2.6306,2.4107,0.0,0.0,0.0,0.0,0.0,2.0742,2.1722,2.3079,2.3367,2.4119,2.4681,2.5933,2.5799,2.5242,2.6387,2.6101,2.5521,2.5815,2.5815,2.5483,2.5267,2.4598,2.3348,2.2771,2.2654,2.2344,2.2875,2.2613,2.2398,2.3454,2.358,2.3094,2.3508,2.364,2.3654,2.3404,2.3313,2.3237,2.2792,2.2654,2.2201,2.1937,2.1299,2.0824,0.0,0.0,0.0,0.0,0.0,0.0,0.0,1.7846,1.6971,1.6076,1.5716,0.0,0.0,0.0,0.0,0.0,0.0,0.0,0.0,0.0,0.0,0.0,2.1157,2.174,2.1882,2.1937,2.1991,2.2038,2.2093,2.2201,2.2337,2.2337,2.2337,2.2337,2.2337,2.2337,2.2337,2.2337,2.2432,2.2554,2.25,2.2588,2.271,2.5166,2.5275,2.5916,2.7235,2.7719,2.8107,2.8614,2.9645,3.0513,3.0513,3.0661,3.0762,3.0762,3.1437,3.1942,3.1585,3.1544,3.1479,3.1309,3.1122,3.0951,0.0,0.0,3.031,2.9944,2.9246,2.8523,2.7784,0.0,0.0,2.3016,0.0,2.0998,2.1353,2.2023,2.2785,2.3614,2.4008,2.5217,2.6424,2.5739,2.6093,2.6673,2.6673,2.6101,2.5528,2.6379,2.6101,2.5461,2.5148,2.5133,2.5208,2.4049,2.3001,2.2337,2.2337,2.2337,2.2709,2.3714,2.4018,2.4308,2.5345,2.5506,2.523,2.5073,2.4902,2.446,2.347,2.2764,2.2059,2.1916,2.1638,2.1231,2.0648,0.0,0.0,0.0,0.0,0.0,0.0,1.8267,1.729,1.6388,1.6029,0.0,0.0,0.0,0.0,0.0,0.0,0.0,1.6978,1.8287,0.0,2.0315,2.1211,2.174,2.1882,2.2038,2.2025,2.1882,2.2038,2.2201,2.2337,2.2337,2.2337,2.2337,2.2337,2.2337,2.2337,2.2337,2.2432,2.2534,2.2391,2.2432,2.2534,2.6387,2.646,2.6885,2.7526,2.8639,2.9353,2.9631,3.0287,3.0855,3.1167,3.0981,3.1099,3.1767,3.1429,3.1326,0.0,3.1845,3.1796,0.0,3.152,3.1373,3.0951,3.0756,3.0375,2.9782,2.9181,2.8523,2.78,0.0,0.0,0.0,2.2725,2.2772,2.361,2.4079,2.4851,2.5789,2.6139,2.6353,2.6595,2.6928,2.6951,2.6673,2.7229,2.7229,2.7245,2.7229,2.7165,2.6747,2.6503,2.6105,2.5748,2.524,2.4175,2.3433,2.3768,2.3229,2.2799,2.3496,2.3651,2.3238,2.355,2.4017,2.3765,2.358,2.3612,2.3775,2.3986,2.3392,2.299,2.2736,2.2002,2.1441,2.0933,0.0,0.0,0.0,0.0,0.0,0.0,1.7704,1.6876,0.0,1.6096,0.0,0.0,0.0,0.0,0.0,0.0,0.0,0.0,1.8477,0.0,2.0329,2.1319,2.1882,2.2038,2.2093,2.2147,2.2201,2.2249,2.2289,2.2337,2.2337,2.2337,2.2337,2.2337,2.2337,2.2337,2.2337,2.2378,2.2411,2.2357,2.2378,2.2391,2.7851,2.8105,2.8406,2.8953,2.995,3.057,3.0801,3.1087,3.1246,3.1836,3.1638,3.1429,3.2096,3.1767,0.0,3.1836,3.1926,3.1861,3.1568,3.1585,3.1414,3.0927,3.0756,3.0375,2.9782,0.0,0.0,2.8206,2.6663,2.5248,2.4246,2.4127,2.4532,2.5209,2.551,2.6119,2.6955,2.7142,2.7169,2.7221,2.7442,2.7378,2.7054,2.7402,2.7654,2.7613,2.7678,2.7629,2.75,2.7248,2.6872,2.6513,2.5991,2.5362,2.4762,2.4641,2.4051,2.3612,2.4284,2.4474,2.4329,2.4286,2.4502,2.4867,2.4063,2.4088,2.4247,2.4529,2.4202,2.3544,2.3285,2.2575,2.2055,2.159,0.0,2.0804,2.0241,0.0,0.0,0.0,0.0,0.0,0.0,1.67,0.0,0.0,0.0,0.0,0.0,0.0,0.0,1.7467,1.8918,0.0,2.0648,2.1475,2.195,2.2113,2.216,2.2249,2.2337,2.2337,2.2337,2.2337,2.2337,2.2337,2.2337,2.2337,2.2337,2.2337,2.2337,2.2337,2.2337,2.2337,2.2337,2.2337,2.9903,2.9968,0.0,0.0,3.1292,0.0,3.178,3.1966,3.2007,3.1836,3.1966,3.2072,3.2056,3.2056,3.1991,3.182,0.0,0.0,0.0,3.1373,3.1122,3.0756,3.0545,0.0,2.9928,2.9562,2.9181,2.8799,2.7296,2.6379,2.5997,2.568,2.5786,2.6249,2.6444,2.6801,2.7296,2.7459,2.7654,2.7784,2.7613,2.7443,2.7313,2.7459,2.7418,2.7313,2.7459,2.7524,2.7459,2.7118,2.7126,2.7183,2.6842,2.6521,2.626,2.4933,2.4552,2.4634,2.5755,2.612,2.6159,2.6323,2.6644,2.7121,2.6243,2.5754,2.5347,2.4812,2.4395,2.4239,2.4067,2.3366,2.2594,2.2132,2.1499,2.0702,1.9942,0.0,0.0,0.0,0.0,0.0,0.0,1.767,1.7846,0.0,0.0,0.0,0.0,0.0,1.75,1.8321,1.9522,2.0492,2.1211,2.1672,2.1971,2.2127,2.2269,2.2337,2.2337,2.2337,2.2337,2.2337,2.2337,2.2337,2.2337,2.2337,2.2337,2.2323,2.2337,2.2337,2.2323,2.2337,2.2337,2.2323,0.0,0.0,3.0545,3.1179,3.1292,3.1455,3.195,3.195,3.1861,3.182,3.1861,3.1836,3.169,3.1674,3.165,3.1609,3.1731,3.169,3.1373,3.1179,3.0927,3.0569,3.0245,2.9903,2.9546,2.9181,2.8693,2.806,2.7678,2.7231,2.676,2.6801,2.676,2.6631,2.6931,2.7142,2.7296,2.7459,2.7654,2.7784,2.7613,2.7589,2.7654,2.7418,2.7402,2.7459,2.7378,2.7248,2.7118,2.7037,2.6947,2.6842,2.676,2.6542,2.6354,2.5669,2.5001,2.488,2.497,2.5016,2.5091,2.5016,2.4978,2.5285,2.5894,2.5209,2.508,2.5904,2.5224,2.4518,2.4885,2.365,2.263,2.226,2.1388,2.0383,1.9644,1.8952,0.0,0.0,1.7792,1.7772,1.7358,1.7792,1.7935,0.0,0.0,0.0,0.0,1.8199,1.8552,1.8654,1.9929,2.0804,2.1211,2.1774,2.2127,2.2289,2.2323,2.2337,2.2337,2.2337,2.2337,2.2337,2.2337,2.2337,2.2337,2.2337,2.2269,2.2181,2.2289,2.2269,2.2181,2.2303,2.2269,2.2181,3.0269,3.0415,3.0651,3.1203,3.1292,3.1398,3.169,3.1715,3.1674,3.1585,3.165,3.165,3.1568,3.1544,3.1544,3.1544,3.1633,3.1585,3.1309,3.1032,3.0781,3.0504,3.0058,2.9733,2.9546,2.9181,2.8693,2.8036,2.7889,2.7613,2.7248,2.7183,2.7061,2.689,2.7142,2.7272,2.7296,2.7548,2.7719,2.7784,2.7613,2.75,2.7418,2.7313,2.7231,2.7183,2.7167,2.7142,2.7102,2.6947,2.689,2.6842,2.676,2.6801,2.6842,2.6211,2.6038,2.5871,2.5692,2.577,2.5894,2.5879,2.5424,2.5042,2.5832,2.5754,2.563,2.5637,2.5427,2.5248,2.5147,2.4325,2.3148,2.2427,2.1441,2.0059,1.885,1.8321,0.0,1.7467,1.788,1.8179,1.8145,1.8599,1.8694,1.8199,0.0,0.0,1.8179,1.9006,1.94,1.9183,2.0282,2.1021,2.1319,2.1848,2.2215,2.2432,2.2378,2.2337,2.2337,2.2337,2.2337,2.2337,2.2337,2.2303,2.2235,2.2235,2.2147,2.2025,2.2181,2.2147,2.2025,2.2181,2.2147,2.2025,3.0375,3.0464,3.0651,3.1162,3.1244,3.1268,3.1309,3.1438,3.1463,3.1309,3.1414,3.1503,3.1463,3.1463,3.1463,3.1463,3.1463,3.1398,3.1244,3.0911,3.0626,3.0415,2.9903,2.9627,2.9587,2.9246,2.8823,2.8336,2.8011,2.7735,2.7548,2.7272,2.7102,2.7012,2.7248,2.7313,2.7296,2.7654,2.78,2.7784,2.7613,2.7378,2.7142,2.7207,2.7061,2.6825,2.6931,2.7061,2.7142,2.6866,2.689,2.6996,2.6866,2.6931,2.7012,2.6825,2.6777,2.6777,2.6736,2.6842,2.7012,2.7167,2.6298,2.5771,2.6062,2.6267,2.6147,2.5042,2.531,2.5899,2.5361,2.468,2.3883,2.2777,2.1645,2.0124,1.8307,0.0,1.746,1.7487,1.807,1.8654,1.9081,1.9556,1.959,1.9006,1.9237,1.9217,0.0,1.9644,2.0051,1.9841,2.0614,2.1177,2.1509,2.1882,2.2235,2.252,2.2391,2.2337,2.2337,2.2337,2.2323,2.2303,2.2323,2.2235,2.2079,2.2093,2.2025,2.1903,2.2059,2.2025,2.1903,2.2059,2.2004,2.1848,3.0228,3.0375,3.061,3.0992,3.1057,3.1162,3.1463,3.1398,3.1309,3.1292,3.1309,3.1268,3.1122,3.1097,3.1097,3.1097,3.1097,3.1073,3.1057,3.0716,3.0375,3.005,2.9668,2.9376,2.9221,2.8864,2.8563,2.8336,2.8141,2.7865,2.7548,2.7629,2.7443,2.7037,2.7508,2.7548,2.7296,2.7654,2.78,2.7784,2.7613,2.7613,2.7629,2.7207,2.7102,2.7142,2.689,2.6801,2.6842,2.6931,2.6996,2.7037,2.7142,2.7207,2.7207,2.7012,2.6972,2.6931,2.6777,2.676,2.6777,2.6825,2.6752,2.6437,2.6494,2.6099,2.5692,2.6237,2.5686,2.5157,2.5698,2.4858,2.4267,2.3768,2.2084,2.0277,1.9241,0.0,1.8086,1.7779,1.8654,1.9379,1.9698,1.9712,1.9752,1.9888,1.9481,1.9413,1.9834,2.0139,2.0383,2.0594,2.098,2.1387,2.1815,2.1882,2.2079,2.2378,2.2357,2.2337,2.2337,2.2337,2.2269,2.2147,2.2289,2.2181,2.1937,2.2059,2.2025,2.1903,2.2059,2.2025,2.1903,2.2059,2.1937,2.1726,3.018,3.0285,3.0456,3.0821,3.0886,3.0967,3.1227,3.1187,3.1138,3.1138,3.1138,3.1097,3.1008,3.0927,3.0886,3.0886,3.0886,3.0797,3.061,3.0439,3.0228,2.9968,2.9506,2.9181,2.901,2.8734,2.8523,2.8336,2.8165,2.7954,2.7678,2.767,2.7524,2.7313,2.7548,2.7564,2.7443,2.7694,2.78,2.7784,2.7613,2.7524,2.7483,2.7248,2.7077,2.6972,2.6907,2.689,2.689,2.6866,2.6996,2.7142,2.7012,2.7061,2.7102,2.6907,2.6866,2.6842,2.676,2.6671,2.659,2.659,2.659,2.659,2.659,2.6325,2.606,2.606,2.5853,2.5646,2.5559,2.5169,2.4731,2.4023,2.215,0.0,0.0,1.8906,1.8347,1.8628,1.9248,1.9698,2.0085,2.0064,2.0051,2.0098,1.9766,1.9746,2.0207,2.0363,2.0614,2.1001,2.1299,2.1672,2.2127,2.2038,2.2201,2.2567,2.2411,2.2337,2.2337,2.2337,2.2303,2.2235,2.2303,2.2215,2.2004,2.2079,2.1971,2.1794,2.2025,2.1916,2.1672,2.1903,2.1794,2.1564,3.0115,3.0204,3.031,3.0586,3.0691,3.0781,3.0886,3.0992,3.1057,3.0967,3.0992,3.1008,3.1008,3.0862,3.0781,3.0821,3.0781,3.0626,3.031,3.0163,3.0009,2.9839,2.9351,2.901,2.8888,2.8653,2.8482,2.8336,2.8125,2.7954,2.78,2.7629,2.7524,2.7483,2.7524,2.75,2.7443,2.7654,2.7735,2.7719,2.7548,2.7418,2.7337,2.7248,2.7061,2.6866,2.6931,2.6996,2.7037,2.6866,2.7012,2.7231,2.6955,2.6955,2.7037,2.6866,2.6777,2.6736,2.6695,2.6614,2.6525,2.6525,2.6525,2.6525,2.6525,2.6614,2.6397,2.5841,2.6212,2.6036,2.5346,2.5441,2.4862,2.3896,0.0,0.0,0.0,1.9441,1.9043,1.959,1.9817,2.0175,2.0329,2.0383,2.0329,2.0207,2.0098,2.0153,2.0417,2.0573,2.0858,2.1299,2.155,2.1848,2.2235,2.2181,2.2344,2.2676,2.2479,2.2378,2.2337,2.2337,2.2323,2.2289,2.2289,2.2201,2.2059,2.2059,2.1916,2.174,2.1971,2.1828,2.153,2.174,2.1672,2.1441,2.9928,3.0098,3.0228,3.0269,3.0545,3.0691,3.0545,3.0951,3.1138,3.0821,3.0902,3.1008,3.1008,3.0862,3.0821,3.0967,3.0846,3.0675,3.048,2.9993,2.9627,2.9457,2.9099,2.8905,2.8888,2.8547,2.8352,2.8336,2.7995,2.7824,2.78,2.7629,2.7459,2.7296,2.7459,2.7353,2.7077,2.7418,2.7564,2.7548,2.7353,2.7378,2.7483,2.7167,2.7126,2.7191,2.6866,2.6972,2.7231,2.7061,2.7126,2.7272,2.7248,2.7248,2.7231,2.7037,2.6866,2.6695,2.6525,2.659,2.672,2.672,2.672,2.672,2.672,2.659,2.6484,2.6484,2.6208,2.5973,2.5948,2.5526,2.4933,2.421,0.0,0.0,2.1512,2.1222,2.098,2.0483,2.0758,2.0942,2.0492,2.0526,2.0526,2.0505,2.0505,2.056,2.0736,2.0878,2.1177,2.1618,2.1652,2.174,2.1916,2.2181,2.2337,2.2378,2.2479,2.2466,2.2337,2.2337,2.2269,2.2127,2.2127,2.2038,2.1903,2.1903,2.1882,2.1862,2.1882,2.1794,2.1652,2.1672,2.1584,2.1441,2.9903,3.0009,3.0098,3.0204,3.0334,3.0439,3.048,3.0651,3.074,3.061,3.0651,3.0732,3.0846,3.0691,3.0651,3.0846,3.0691,3.0464,3.0163,2.9952,2.9611,2.9116,2.8953,2.8823,2.8718,2.8458,2.8287,2.8182,2.7824,2.7654,2.7629,2.7459,2.7337,2.7272,2.7337,2.7296,2.7183,2.7313,2.7378,2.7353,2.7183,2.7167,2.7207,2.7183,2.7077,2.6955,2.7037,2.7012,2.6931,2.6866,2.6972,2.7102,2.6972,2.7012,2.7061,2.676,2.6695,2.6695,2.6509,2.6509,2.6509,2.6289,2.6314,2.6403,2.6403,2.6354,2.6338,2.6444,2.6273,2.6038,2.5802,2.551,2.5144,2.4641,0.0,2.2861,2.2219,2.1582,2.1145,2.063,2.0602,2.0663,2.0526,2.0539,2.0539,2.0539,2.0627,2.0756,2.0912,2.1143,2.1387,2.1672,2.176,2.1916,2.216,2.2289,2.2391,2.2466,2.2432,2.2391,2.2337,2.2337,2.2249,2.2113,2.2113,2.2025,2.1882,2.1882,2.1828,2.176,2.1848,2.174,2.155,2.1638,2.1564,2.1441,2.9822,2.9903,2.9993,3.0115,3.018,3.0245,3.031,3.0456,3.0521,3.0415,3.0439,3.0521,3.0651,3.0504,3.048,3.0651,3.0504,3.0269,2.9968,2.9798,2.9457,2.8905,2.8823,2.8718,2.8523,2.8352,2.8165,2.7995,2.7694,2.7524,2.7459,2.7272,2.7231,2.7272,2.7207,2.7231,2.7272,2.7207,2.7231,2.7248,2.7012,2.6972,2.7012,2.7077,2.6996,2.6842,2.7037,2.7012,2.689,2.672,2.6825,2.6972,2.6736,2.6736,2.6785,2.6549,2.6549,2.6631,2.6509,2.6468,2.6419,2.6233,2.6273,2.6379,2.6379,2.6379,2.6403,2.6525,2.6379,2.6119,2.5802,2.5526,2.5169,2.4698,2.3999,2.3585,2.3355,2.245,2.1712,2.1369,2.1146,2.08,2.0539,2.0539,2.0539,2.0539,2.0682,2.0858,2.1055,2.1353,2.1584,2.1726,2.1882,2.2079,2.2337,2.2391,2.2432,2.2479,2.2391,2.2323,2.2269,2.2215,2.216,2.2113,2.2004,2.1971,2.195,2.1848,2.1726,2.1597,2.1706,2.1584,2.1387,2.1496,2.1496,2.1441,2.9635,2.9822,2.9944,2.9944,3.0098,3.0163,2.9968,3.0415,3.0626,3.0269,3.0375,3.048,3.048,3.0334,3.0285,3.0464,3.0334,3.0139,2.9944,2.9441,2.9059,2.8888,2.8718,2.8523,2.8336,2.8165,2.7995,2.78,2.7629,2.7443,2.7272,2.7102,2.7102,2.7248,2.7102,2.7102,2.7248,2.7077,2.7126,2.7231,2.689,2.6842,2.6996,2.6801,2.6842,2.6996,2.6801,2.6972,2.7191,2.6655,2.672,2.6955,2.6574,2.6468,2.6468,2.6468,2.6468,2.6468,2.6468,2.6468,2.6509,2.6695,2.6736,2.6736,2.6736,2.6736,2.6736,2.6736,2.6444,2.6143,2.5948,2.5502,2.4909,2.4186,2.4064,2.4064,2.4064,2.3586,2.3013,2.2763,2.2172,2.1308,2.0546,2.0539,2.0539,2.0539,2.0682,2.0899,2.1197,2.1509,2.174,2.1882,2.2025,2.2181,2.2337,2.2479,2.2479,2.2337,2.2337,2.2249,2.2113,2.195,2.1971,2.2093,2.1794,2.1828,2.2079,2.1794,2.1584,2.1441,2.1441,2.1353,2.1211,2.1211,2.1319,2.1441,2.9611,2.9717,2.9757,2.9757,2.9903,3.0058,3.0139,3.0163,3.0204,3.0228,3.0269,3.031,3.031,3.035,3.0415,3.048,3.0204,2.9839,2.9416,2.8994,2.8693,2.8507,2.8563,2.8458,2.8165,2.8101,2.7995,2.78,2.7508,2.7337,2.7272,2.6972,2.6842,2.6907,2.6972,2.6972,2.6907,2.7102,2.7077,2.6907,2.6931,2.689,2.6825,2.6907,2.689,2.6825,2.6907,2.6907,2.6866,2.672,2.6736,2.6785,2.6549,2.6468,2.6444,2.6314,2.6379,2.6468,2.6468,2.6549,2.6566,2.6249,2.6168,2.6208,2.6338,2.6168,2.6062,2.6314,2.6078,2.5786,2.5591,2.5331,2.5039,2.4681,2.4633,2.438,2.4127,2.396,2.3296,2.2303,2.2003,2.1421,2.0546,2.0539,2.0539,2.0539,2.0878,2.1157,2.1367,2.1652,2.1848,2.1882,2.2025,2.2181,2.2337,2.2378,2.2378,2.2337,2.2235,2.216,2.2113,2.195,2.1848,2.1794,2.1706,2.1652,2.1631,2.1543,2.1421,2.1279,2.1279,2.1245,2.1211,2.1211,2.1319,2.1441,2.9416,2.9522,2.957,2.957,2.9668,2.9798,2.9968,2.9903,2.9903,3.0098,3.0115,3.0115,3.0115,3.0204,3.0245,3.0163,2.9839,2.9457,2.9059,2.8783,2.8507,2.8247,2.8336,2.8271,2.7971,2.7971,2.7889,2.7694,2.7483,2.7337,2.7272,2.7061,2.6996,2.7053,2.7102,2.7142,2.7167,2.7167,2.7077,2.6947,2.6907,2.6842,2.676,2.6866,2.6842,2.676,2.6866,2.6825,2.672,2.6566,2.6484,2.6419,2.646,2.6354,2.6249,2.6208,2.6273,2.6379,2.6444,2.659,2.6631,2.6249,2.6184,2.6273,2.6395,2.6184,2.6062,2.6273,2.6021,2.5721,2.555,2.5315,2.5079,2.4892,2.4803,2.4779,2.4357,2.4188,2.3479,2.2405,2.2097,2.1491,2.0648,2.0573,2.056,2.0627,2.0946,2.1197,2.1333,2.1686,2.1882,2.1882,2.2093,2.2249,2.2337,2.2337,2.2303,2.2249,2.2093,2.1991,2.1937,2.1848,2.1781,2.176,2.1692,2.1652,2.1597,2.1496,2.1353,2.1211,2.1211,2.1211,2.1211,2.1211,2.1319,2.1441,2.914,2.927,2.9392,2.9416,2.9416,2.9481,2.9676,2.9676,2.9717,2.9928,2.9944,2.9944,2.9944,2.9944,2.9863,2.9692,2.9351,2.9059,2.8864,2.8693,2.8442,2.8101,2.806,2.7971,2.78,2.78,2.7719,2.7564,2.7548,2.7459,2.7296,2.7272,2.7353,2.7524,2.7353,2.7467,2.7719,2.7248,2.7142,2.7231,2.6907,2.676,2.6736,2.676,2.676,2.6736,2.6736,2.672,2.6655,2.6314,2.6103,2.6013,2.6314,2.6184,2.5948,2.6119,2.6184,2.6249,2.6403,2.659,2.6695,2.6525,2.6614,2.6736,2.6695,2.6549,2.6419,2.6419,2.6143,2.5843,2.568,2.538,2.5079,2.4892,2.4722,2.4681,2.4852,2.4381,2.3924,2.3297,2.2405,2.1533,2.1013,2.0627,2.0614,2.0756,2.0933,2.1068,2.1211,2.1652,2.1903,2.1882,2.216,2.2323,2.2337,2.2323,2.2249,2.2113,2.195,2.1815,2.1672,2.1652,2.1726,2.1828,2.1706,2.1726,2.1828,2.155,2.1353,2.1211,2.1211,2.1211,2.1211,2.1211,2.1319,2.1441,2.9116,2.9181,2.9246,2.9392,2.9416,2.9522,2.9839,2.9652,2.9587,2.9903,2.9944,2.9944,2.9944,2.9944,2.9863,2.9692,2.9351,2.901,2.8693,2.8507,2.8287,2.8076,2.793,2.7841,2.78,2.78,2.7784,2.7735,2.7613,2.7524,2.7483,2.7337,2.7296,2.7337,2.7443,2.7443,2.7402,2.7418,2.7288,2.7077,2.7142,2.6996,2.676,2.6907,2.6866,2.6736,2.6736,2.6655,2.6484,2.6273,2.6184,2.6143,2.6062,2.5997,2.5908,2.5826,2.5997,2.6208,2.6249,2.6509,2.6736,2.6695,2.672,2.6671,2.6379,2.6184,2.6038,2.6038,2.5891,2.568,2.5485,2.529,2.5079,2.4892,2.4828,2.4828,2.4868,2.499,2.4524,2.3924,2.3101,2.2252,2.1626,2.0807,2.0614,2.0756,2.1021,2.1177,2.1211,2.176,2.2004,2.1882,2.2059,2.2215,2.2337,2.2215,2.2147,2.2113,2.195,2.1815,2.1672,2.155,2.1509,2.153,2.1509,2.1509,2.153,2.1455,2.1353,2.1211,2.1211,2.1211,2.1211,2.1211,2.1319,2.1441,2.8994,2.901,2.9059,2.914,2.9164,2.9246,2.9522,2.9392,2.9376,2.9652,2.9692,2.9692,2.9692,2.9692,2.9627,2.9441,2.9181,2.8864,2.8507,2.8393,2.8222,2.7954,2.7849,2.78,2.78,2.78,2.78,2.78,2.7719,2.767,2.767,2.7573,2.7524,2.7524,2.7629,2.7564,2.7402,2.7418,2.7272,2.7012,2.7012,2.6907,2.6736,2.6842,2.6825,2.672,2.6631,2.6444,2.6208,2.6208,2.6103,2.5973,2.6038,2.5948,2.5802,2.5802,2.5997,2.6208,2.6208,2.6403,2.6614,2.6614,2.6549,2.646,2.6354,2.6184,2.6038,2.5948,2.5721,2.555,2.5526,2.525,2.5014,2.4998,2.4852,2.4746,2.4746,2.4892,2.4725,2.3846,2.3598,2.2748,2.183,2.1047,2.0573,2.0648,2.0946,2.1109,2.1109,2.1618,2.1862,2.1781,2.1991,2.2147,2.2235,2.2215,2.2147,2.2004,2.1991,2.1882,2.1672,2.1652,2.1652,2.1652,2.1584,2.155,2.155,2.1475,2.1387,2.1319,2.1319,2.1319,2.1319,2.1319,2.1319,2.1319,2.8888,2.8888,2.8888,2.8929,2.8905,2.8953,2.9116,2.9116,2.9164,2.9351,2.9376,2.9376,2.9416,2.9392,2.9286,2.9116,2.897,2.8734,2.8352,2.8336,2.8182,2.7824,2.78,2.78,2.78,2.78,2.78,2.78,2.78,2.78,2.78,2.78,2.78,2.78,2.78,2.7719,2.7524,2.7353,2.7167,2.6996,2.6842,2.676,2.6736,2.6736,2.672,2.6671,2.6484,2.6208,2.5948,2.6078,2.5908,2.5721,2.6021,2.5908,2.5697,2.5843,2.6038,2.6208,2.6208,2.6338,2.6468,2.6468,2.6338,2.6233,2.6354,2.6273,2.6103,2.5932,2.5656,2.5485,2.5615,2.5274,2.4998,2.512,2.4868,2.4633,2.4633,2.4746,2.4565,2.4047,2.3807,2.3236,2.1816,2.1047,2.0546,2.0539,2.0804,2.0967,2.0967,2.1387,2.1638,2.1638,2.1916,2.2079,2.2079,2.2181,2.2113,2.1882,2.1991,2.1903,2.1638,2.176,2.1815,2.1794,2.1686,2.1638,2.1618,2.1496,2.1441,2.1441,2.1441,2.1441,2.1441,2.1408,2.1333,2.1231,2.8888,2.8888,2.8929,2.9075,2.8994,2.8953,2.9116,2.901,2.8994,2.9164,2.9181,2.9246,2.9392,2.927,2.9099,2.8929,2.8905,2.8734,2.8352,2.8336,2.8182,2.7824,2.78,2.78,2.78,2.78,2.78,2.78,2.78,2.78,2.78,2.78,2.78,2.78,2.78,2.7719,2.7524,2.7353,2.7167,2.7012,2.6996,2.689,2.6736,2.6736,2.6631,2.6484,2.6314,2.6103,2.5908,2.5786,2.5721,2.568,2.5737,2.5721,2.568,2.5697,2.5956,2.6208,2.6208,2.6338,2.6468,2.6468,2.6338,2.6168,2.6038,2.5997,2.5908,2.5745,2.568,2.5591,2.5461,2.538,2.529,2.5169,2.4974,2.4828,2.4828,2.4722,2.4633,2.438,2.3866,2.3091,2.1816,2.1555,2.1308,2.0539,2.0702,2.0811,2.0811,2.1231,2.1475,2.1475,2.176,2.1916,2.1916,2.1815,2.1794,2.1882,2.1774,2.1638,2.1475,2.1496,2.1496,2.1496,2.1475,2.1475,2.1475,2.1441,2.1441,2.1441,2.1441,2.1441,2.1421,2.1299,2.1319,2.1367,2.8864,2.8718,2.8628,2.8823,2.8693,2.8628,2.8823,2.8783,2.8799,2.897,2.8994,2.9034,2.9116,2.9059,2.897,2.8888,2.8888,2.8734,2.8352,2.8336,2.8182,2.7824,2.78,2.78,2.78,2.78,2.78,2.78,2.78,2.78,2.78,2.78,2.78,2.78,2.7694,2.7564,2.7378,2.7207,2.7012,2.6866,2.6866,2.6801,2.672,2.6631,2.6525,2.6419,2.6143,2.5932,2.5786,2.5697,2.568,2.568,2.568,2.568,2.568,2.568,2.5932,2.6208,2.6208,2.6273,2.6314,2.6314,2.6127,2.5891,2.5802,2.5721,2.5632,2.568,2.5526,2.542,2.5526,2.5234,2.4998,2.512,2.4909,2.4722,2.4722,2.4633,2.4592,2.4592,2.4087,2.3336,2.2323,2.1816,2.1308,2.0539,2.0682,2.077,2.077,2.1034,2.1197,2.1197,2.1408,2.155,2.1638,2.1584,2.1618,2.176,2.1618,2.1597,2.1686,2.1597,2.1564,2.1564,2.1475,2.1441,2.1441,2.1441,2.1441,2.1441,2.1441,2.1387,2.1279,2.1055,2.1001,2.1034]}]]